[[{"header":{"parameterUnit":"m.s-1","parameterCategory":1,"la1":31.0,"la2":29.5877,"lo1":-88.7671,"lo2":-86.6584,"dy":0.0162,"dx":0.0185,"nx":115,"ny":88,"refTime":"2023-05-17T18:00:00:Z","depth":0,"parameterNumber":2,"parameterNumberName":"U-component_of_WINDS"},"data":[0.0,0.0,0.0,0.0,0.0,0.0,0.0,0.0,0.0,0.0,0.0,0.0,0.0,0.0,0.0,0.0,0.0,0.0,0.0,0.0,0.0,0.0,0.0,0.0,0.0,0.0,0.0,0.0,0.0,0.0,0.0,0.0,0.0,0.0,0.0,0.0,0.0,0.0,0.0,0.0,0.0,0.0,0.0,0.0,0.0,0.0,0.0,0.0,0.0,0.0,0.0,0.0,0.0,0.0,0.0,0.0,0.0,0.0,0.0,0.0,0.0,0.0,0.0,0.0,0.0,0.0,0.0,0.0,0.0,0.0,0.0,0.0,0.0,0.0,0.0,0.0,0.0,0.0,0.0,0.0,0.0,0.0,0.0,0.0,0.0,0.0,0.0,0.0,0.0,0.0,0.0,0.0,0.0,0.0,0.0,0.0,0.0,0.0,0.0,0.0,0.0,0.0,0.0,0.0,0.0,0.0,0.0,0.0,0.0,0.0,0.0,0.0,0.0,0.0,0.0,0.0,0.0,0.0,0.0,0.0,0.0,0.0,0.0,0.0,0.0,0.0,0.0,0.0,0.0,0.0,0.0,0.0,0.0,0.0,0.0,0.0,0.0,0.0,0.0,0.0,0.0,0.0,0.0,0.0,0.0,0.0,0.0,0.0,0.0,0.0,0.0,0.0,0.0,0.0,0.0,0.0,0.0,0.0,0.0,0.0,0.0,0.0,0.0,0.0,0.0,0.0,0.0,0.0,0.0,0.0,0.0,0.0,0.0,0.0,0.0,0.0,0.0,0.0,0.0,0.0,0.0,0.0,0.0,0.0,0.0,0.0,0.0,0.0,0.0,0.0,0.0,0.0,0.0,0.0,0.0,0.0,0.0,0.0,0.0,0.0,0.0,0.0,0.0,0.0,0.0,0.0,0.0,0.0,0.0,0.0,0.0,0.0,0.0,0.0,0.0,0.0,0.0,0.0,0.0,0.0,0.0,0.0,0.0,0.0,0.0,0.0,0.0,0.0,0.0,0.0,0.0,0.0,0.0,0.0,0.0,0.0,0.0,0.0,0.0,0.0,0.0,0.0,0.0,0.0,0.0,0.0,0.0,0.0,0.0,0.0,0.0,0.0,0.0,0.0,0.0,0.0,0.0,0.0,0.0,0.0,0.0,0.0,0.0,0.0,0.0,0.0,0.0,0.0,0.0,0.0,0.0,0.0,0.0,0.0,0.0,0.0,0.0,0.0,0.0,0.0,0.0,0.0,0.0,0.0,0.0,0.0,0.0,0.0,0.0,0.0,0.0,0.0,0.0,0.0,0.0,0.0,0.0,0.0,0.0,0.0,0.0,0.0,0.0,0.0,0.0,0.0,0.0,0.0,0.0,0.0,0.0,0.0,0.0,0.0,0.0,0.0,0.0,0.0,0.0,0.0,0.0,0.0,0.0,0.0,0.0,0.0,0.0,0.0,0.0,0.0,0.0,0.0,0.0,0.0,0.0,0.0,0.0,0.0,0.0,0.0,0.0,0.0,0.0,0.0,0.0,0.0,0.0,0.0,0.0,0.0,0.0,0.0,0.0,0.0,0.0,0.0,0.0,0.0,0.0,0.0,0.0,0.0,0.0,0.0,0.0,0.0,0.0,0.0,0.0,0.0,0.0,0.0,0.0,0.0,0.0,0.0,0.0,0.0,0.0,0.0,0.0,0.0,0.0,0.0,0.0,0.0,0.0,0.0,0.0,0.0,0.0,0.0,0.0,0.0,0.0,0.0,0.0,0.0,0.0,0.0,0.0,0.0,0.0,0.0,0.0,0.0,0.0,0.0,0.0,0.0,0.0,0.0,0.0,0.0,0.0,0.0,0.0,0.0,0.0,0.0,0.0,0.0,0.0,0.0,0.0,0.0,0.0,0.0,0.0,0.0,0.0,0.0,0.0,0.0,0.0,0.0,0.0,0.0,0.0,0.0,0.0,0.0,0.0,0.0,0.0,0.0,0.0,0.0,0.0,0.0,0.0,0.0,0.0,0.0,0.0,0.0,0.0,0.0,0.0,0.0,0.0,0.0,0.0,0.0,0.0,0.0,0.0,0.0,0.0,0.0,0.0,0.0,0.0,0.0,0.0,0.0,0.0,0.0,0.0,0.0,0.0,0.0,0.0,0.0,0.0,0.0,0.0,0.0,0.0,0.0,0.0,0.0,0.0,0.0,0.0,0.0,0.0,0.0,0.0,0.0,0.0,0.0,0.0,0.0,0.0,0.0,0.0,0.0,0.0,0.0,0.0,0.0,0.0,0.0,0.0,0.0,0.0,0.0,0.0,0.0,0.0,0.0,0.0,0.0,0.0,0.0,0.0,0.0,0.0,0.0,0.0,0.0,0.0,0.0,0.0,0.0,0.0,0.0,0.0,0.0,0.0,0.0,0.0,0.0,0.0,0.0,0.0,0.0,0.0,0.0,0.0,0.0,0.0,0.0,0.0,0.0,0.0,0.0,0.0,0.0,0.0,0.0,0.0,0.0,0.0,0.0,0.0,0.0,0.0,0.0,0.0,0.0,0.0,0.0,0.0,0.0,0.0,0.0,0.0,0.0,0.0,0.0,0.0,0.0,0.0,0.0,0.0,0.0,0.0,0.0,0.0,0.0,0.0,0.0,0.0,0.0,0.0,0.0,0.0,0.0,0.0,0.0,0.0,0.0,0.0,0.0,0.0,0.0,0.0,0.0,0.0,0.0,0.0,0.0,0.0,0.0,0.0,0.0,0.0,0.0,0.0,0.0,0.0,0.0,0.0,0.0,0.0,0.0,0.0,0.0,0.0,0.0,0.0,0.0,0.0,0.0,0.0,0.0,0.0,0.0,0.0,0.0,0.0,0.0,0.0,0.0,0.0,0.0,0.0,0.0,0.0,0.0,0.0,0.0,0.0,0.0,0.0,0.0,0.0,0.0,0.0,0.0,0.0,0.0,0.0,0.0,0.0,0.0,0.0,0.0,0.0,0.0,0.0,0.0,0.0,0.0,0.0,0.0,0.0,0.0,0.0,0.0,0.0,0.0,0.0,0.0,0.0,0.0,0.0,0.0,0.0,0.0,0.0,0.0,0.0,0.0,0.0,0.0,0.0,0.0,0.0,0.0,0.0,0.0,0.0,0.0,0.0,0.0,0.0,0.0,0.0,0.0,0.0,0.0,0.0,0.0,0.0,0.0,0.0,0.0,0.0,0.0,0.0,0.0,0.0,0.0,0.0,0.0,0.0,0.0,0.0,0.0,0.0,0.0,0.0,0.0,0.0,0.0,0.0,0.0,0.0,0.0,0.0,0.0,0.0,0.0,0.0,0.0,0.0,0.0,0.0,0.0,0.0,0.0,0.0,0.0,0.0,0.0,0.0,0.0,0.0,0.0,0.0,0.0,0.0,0.0,0.0,0.0,0.0,0.0,0.0,0.0,0.0,0.0,0.0,0.0,0.0,0.0,0.0,0.0,0.0,0.0,0.0,0.0,0.0,0.0,0.0,0.0,0.0,0.0,0.0,0.0,0.0,0.0,0.0,0.0,0.0,0.0,0.0,0.0,0.0,0.0,0.0,0.0,0.0,0.0,0.0,0.0,0.0,0.0,0.0,0.0,0.0,0.0,0.0,0.0,0.0,0.0,0.0,0.0,0.0,0.0,0.0,0.0,0.0,0.0,0.0,0.0,0.0,0.0,0.0,0.0,0.0,0.0,0.0,0.0,0.0,0.0,0.0,0.0,0.0,0.0,0.0,0.0,0.0,0.0,0.0,0.0,0.0,0.0,0.0,0.0,0.0,0.0,0.0,0.0,0.0,0.0,0.0,0.0,0.0,0.0,0.0,0.0,0.0,0.0,0.0,0.0,0.0,0.0,0.0,0.0,0.0,0.0,0.0,0.0,0.0,0.0,0.0,0.0,0.0,0.0,0.0,0.0,0.0,0.0,0.0,0.0,0.0,0.0,0.0,0.0,0.0,0.0,0.0,0.0,0.0,0.0,0.0,0.0,0.0,0.0,0.0,0.0,0.0,0.0,0.0,0.0,0.0,0.0,0.0,0.0,0.0,0.0,0.0,0.0,0.0,0.0,0.0,0.0,0.0,0.0,0.0,0.0,0.0,0.0,0.0,0.0,0.0,0.0,0.0,0.0,0.0,0.0,0.0,0.0,0.0,0.0,0.0,0.0,0.0,0.0,0.0,0.0,0.0,0.0,0.0,0.0,0.0,0.0,0.0,0.0,0.0,0.0,0.0,0.0,0.0,0.0,0.0,0.0,0.0,0.0,0.0,0.0,0.0,0.0,-0.5237,0.0,0.0,0.0,0.0,0.0,0.0,0.0,0.0,0.0,0.0,0.0,0.0,0.0,0.0,0.0,0.0,0.0,0.0,0.0,0.0,0.0,0.0,0.0,0.0,0.0,0.0,0.0,0.0,0.0,0.0,0.0,0.0,0.0,0.0,0.0,0.0,0.0,0.0,0.0,0.0,0.0,0.0,0.0,0.0,0.0,0.0,0.0,0.0,0.0,0.0,0.0,0.0,0.0,0.0,0.0,0.0,0.0,0.0,0.0,0.0,0.0,0.0,0.0,0.0,0.0,0.0,0.0,0.0,0.0,0.0,0.0,0.0,0.0,0.0,0.0,0.0,0.0,0.0,0.0,0.0,0.0,0.0,0.0,0.0,0.0,0.0,0.0,0.0,0.0,0.0,0.0,0.0,0.0,0.0,0.0,0.0,0.0,0.0,0.0,0.0,0.0,0.0,0.0,0.0,0.0,0.0,0.0,0.0,0.0,0.0,-0.6862,-0.6156,-0.5938,-0.5589,-0.5125,0.0,0.0,0.0,0.0,0.0,0.0,0.0,0.0,0.0,0.0,0.0,0.0,0.0,0.0,0.0,0.0,0.0,0.0,0.0,0.0,0.0,0.0,0.0,0.0,0.0,0.0,0.0,0.0,0.0,0.0,0.0,0.0,0.0,0.0,0.0,0.0,0.0,0.0,0.0,0.0,0.0,0.0,0.0,0.0,0.0,0.0,0.0,0.0,0.0,0.0,0.0,0.0,0.0,0.0,0.0,0.0,0.0,0.0,0.0,0.0,0.0,0.0,0.0,0.0,0.0,0.0,0.0,0.0,0.0,0.0,0.0,0.0,0.0,0.0,0.0,0.0,0.0,0.0,0.0,0.0,0.0,0.0,0.0,0.0,0.0,0.0,0.0,0.0,0.0,0.0,0.0,0.0,0.0,0.0,0.0,0.0,0.0,0.0,0.0,0.0,0.0,0.0,0.0,0.0,0.0,0.0,0.0,0.0,0.0,0.0,0.0,0.0,-0.6115,-0.5755,-0.5186,0.0,0.0,0.0,0.0,0.0,0.0,0.0,0.0,0.0,0.0,0.0,0.0,0.0,0.0,0.0,0.0,0.0,0.0,0.0,0.0,0.0,0.0,0.0,0.0,0.0,0.0,0.0,0.0,0.0,0.0,0.0,0.0,0.0,0.0,0.0,0.0,0.0,0.0,0.0,0.0,0.0,0.0,0.0,0.0,0.0,0.0,0.0,0.0,0.0,0.0,0.0,0.0,0.0,0.0,0.0,0.0,0.0,0.0,0.0,0.0,0.0,0.0,0.0,0.0,0.0,0.0,0.0,0.0,0.0,0.0,0.0,0.0,0.0,0.0,0.0,0.0,0.0,0.0,0.0,0.0,0.0,0.0,0.0,0.0,0.0,0.0,0.0,0.0,0.0,0.0,0.0,0.0,0.0,0.0,0.0,0.0,0.0,0.0,0.0,0.0,0.0,0.0,0.0,0.0,0.0,0.0,0.0,0.0,0.0,0.0,-0.6944,-0.6995,-0.6551,0.0,-0.5564,0.0,0.0,0.0,0.0,0.0,0.0,0.0,0.0,0.0,0.0,0.0,0.0,0.0,0.0,0.0,0.0,0.0,0.0,0.0,0.0,0.0,0.0,0.0,0.0,0.0,0.0,0.0,0.0,0.0,0.0,0.0,0.0,0.0,0.0,0.0,0.0,0.0,0.0,0.0,0.0,0.0,0.0,0.0,0.0,0.0,0.0,0.0,0.0,0.0,0.0,0.0,0.0,0.0,0.0,0.0,0.0,0.0,0.0,0.0,0.0,0.0,0.0,0.0,0.0,0.0,0.0,0.0,0.0,0.0,0.0,0.0,0.0,0.0,0.0,0.0,0.0,0.0,0.0,0.0,0.0,0.0,0.0,0.0,0.0,0.0,0.0,0.0,0.0,0.0,0.0,0.0,0.0,0.0,0.0,0.0,0.0,0.0,0.0,0.0,0.0,0.0,0.0,0.0,0.0,0.0,0.0,0.0,0.0,0.0,0.0,-0.6627,-0.6292,-0.5515,-0.5099,0.0,0.0,0.0,0.0,0.0,0.0,0.0,0.0,0.0,0.0,0.0,0.0,0.0,0.0,0.0,0.0,0.0,0.0,0.0,0.0,0.0,0.0,0.0,0.0,0.0,0.0,0.0,0.0,0.0,0.0,0.0,0.0,0.0,0.0,0.0,0.0,0.0,0.0,0.0,0.0,0.0,0.0,0.0,0.0,0.0,0.0,0.0,0.0,0.0,0.0,0.0,0.0,0.0,0.0,0.0,0.0,0.0,0.0,0.0,0.0,0.0,0.0,0.0,0.0,0.0,0.0,0.0,0.0,0.0,0.0,0.0,0.0,0.0,0.0,0.0,0.0,0.0,0.0,0.0,0.0,0.0,0.0,0.0,0.0,0.0,0.0,0.0,0.0,0.0,0.0,0.0,0.0,0.0,0.0,0.0,0.0,0.0,0.0,0.0,0.0,0.0,0.0,0.0,0.0,0.0,0.0,0.0,0.0,0.0,0.0,-0.701,-0.6292,-0.5632,-0.4921,-0.466,-0.4966,0.0,0.0,0.0,0.0,0.0,0.0,0.0,0.0,0.0,0.0,0.0,0.0,0.0,0.0,0.0,0.0,0.0,0.0,0.0,0.0,0.0,0.0,0.0,0.0,0.0,0.0,0.0,0.0,0.0,0.0,0.0,0.0,0.0,0.0,0.0,0.0,0.0,0.0,0.0,0.0,0.0,0.0,0.0,0.0,0.0,0.0,0.0,0.0,0.0,0.0,0.0,0.0,0.0,0.0,0.0,0.0,0.0,0.0,0.0,0.0,0.0,0.0,0.0,0.0,0.0,0.0,0.0,0.0,0.0,0.0,0.0,0.0,0.0,0.0,0.0,0.0,0.0,0.0,0.0,0.0,0.0,0.0,0.0,0.0,0.0,0.0,0.0,0.0,0.0,0.0,0.0,0.0,0.0,0.0,0.0,0.0,0.0,0.0,0.0,0.0,0.0,0.0,0.0,0.0,0.0,0.0,0.0,0.0,-0.8049,-0.6986,-0.6107,-0.5442,-0.5376,-0.539,0.0,0.0,0.0,0.0,0.0,0.0,0.0,0.0,0.0,0.0,0.0,0.0,0.0,0.0,0.0,0.0,0.0,0.0,0.0,0.0,0.0,0.0,0.0,0.0,0.0,0.0,0.0,0.0,0.0,0.0,0.0,0.0,0.0,0.0,0.0,0.0,0.0,0.0,0.0,0.0,0.0,0.0,0.0,0.0,0.0,0.0,0.0,0.0,0.0,0.0,0.0,0.0,0.0,0.0,0.0,0.0,0.0,0.0,0.0,0.0,0.0,0.0,0.0,0.0,0.0,0.0,0.0,0.0,0.0,0.0,0.0,0.0,0.0,0.0,0.0,0.0,0.0,0.0,0.0,0.0,0.0,0.0,0.0,0.0,0.0,0.0,0.0,0.0,0.0,0.0,0.0,0.0,0.0,0.0,0.0,0.0,0.0,0.0,0.0,0.0,0.0,0.0,0.0,0.0,0.0,0.0,0.0,0.0,0.0,-0.812,-0.6995,-0.5937,-0.5169,-0.5295,-0.5295,0.0,0.0,0.0,0.0,0.0,0.0,0.0,0.0,0.0,0.0,0.0,0.0,0.0,0.0,0.0,0.0,0.0,0.0,0.0,0.0,0.0,0.0,0.0,0.0,0.0,0.0,0.0,0.0,0.0,0.0,0.0,0.0,0.0,0.0,0.0,0.0,0.0,0.0,0.0,0.0,0.0,0.0,0.0,0.0,0.0,0.0,0.0,0.0,0.0,0.0,0.0,0.0,0.0,0.0,0.0,0.0,0.0,0.0,0.0,0.0,0.0,0.0,0.0,0.0,0.0,0.0,0.0,0.0,0.0,0.0,0.0,0.0,0.0,0.0,0.0,0.0,0.0,0.0,0.0,0.0,0.0,0.0,0.0,0.0,0.0,0.0,0.0,0.0,0.0,0.0,0.0,0.0,0.0,0.0,0.0,0.0,0.0,0.0,0.0,0.0,0.0,0.0,0.0,0.0,0.0,0.0,0.0,0.0,0.0,-0.7835,0.0,-0.5897,-0.4992,-0.5365,-0.5397,0.0,0.0,0.0,0.0,0.0,0.0,0.0,0.0,0.0,0.0,0.0,0.0,0.0,0.0,0.0,0.0,0.0,0.0,0.0,0.0,0.0,0.0,0.0,0.0,0.0,0.0,0.0,0.0,0.0,0.0,0.0,0.0,0.0,0.0,0.0,0.0,0.0,0.0,0.0,0.0,0.0,0.0,0.0,0.0,0.0,0.0,0.0,0.0,0.0,0.0,0.0,0.0,0.0,0.0,0.0,0.0,0.0,0.0,0.0,0.0,0.0,0.0,0.0,0.0,0.0,0.0,0.0,0.0,0.0,0.0,0.0,0.0,0.0,0.0,0.0,0.0,0.0,0.0,0.0,0.0,0.0,0.0,0.0,0.0,0.0,0.0,0.0,0.0,0.0,0.0,0.0,0.0,0.0,0.0,0.0,0.0,0.0,0.0,0.0,0.0,0.0,0.0,0.0,0.0,0.0,0.0,0.0,0.0,-0.782,-0.7105,-0.6706,-0.6044,-0.4922,-0.5617,-0.5795,0.0,0.0,0.0,0.0,0.0,0.0,0.0,0.0,0.0,0.0,0.0,0.0,0.0,0.0,0.0,0.0,0.0,0.0,0.0,0.0,0.0,0.0,0.0,0.0,0.0,0.0,0.0,0.0,0.0,0.0,0.0,0.0,0.0,0.0,0.0,0.0,0.0,0.0,0.0,0.0,0.0,0.0,0.0,0.0,0.0,0.0,0.0,0.0,0.0,0.0,0.0,0.0,0.0,0.0,0.0,0.0,0.0,0.0,0.0,0.0,0.0,0.0,0.0,0.0,0.0,0.0,0.0,0.0,0.0,0.0,0.0,0.0,0.0,0.0,0.0,0.0,0.0,0.0,0.0,0.0,0.0,0.0,0.0,0.0,0.0,0.0,0.0,0.0,0.0,0.0,0.0,0.0,0.0,0.0,0.0,0.0,0.0,0.0,0.0,0.0,0.0,0.0,0.0,0.0,0.0,0.0,0.0,0.0,0.0,-0.9097,-0.8675,-0.8204,-0.7571,-0.6582,-0.5837,0.0,0.0,0.0,0.0,0.0,0.0,0.0,0.0,0.0,0.0,0.0,0.0,0.0,0.0,0.0,0.0,0.0,0.0,0.0,0.0,0.0,0.0,0.0,0.0,0.0,0.0,0.0,0.0,0.0,0.0,0.0,0.0,0.0,0.0,0.0,0.0,0.0,0.0,0.0,0.0,0.0,0.0,0.0,0.0,0.0,0.0,0.0,0.0,0.0,0.0,0.0,0.0,0.0,0.0,0.0,0.0,0.0,0.0,0.0,0.0,0.0,0.0,0.0,0.0,0.0,0.0,0.0,0.0,0.0,0.0,0.0,0.0,0.0,0.0,0.0,0.0,0.0,0.0,0.0,0.0,0.0,0.0,0.0,0.0,0.0,0.0,0.0,0.0,0.0,0.0,0.0,0.0,0.0,0.0,0.0,0.0,0.0,0.0,0.0,0.0,0.0,0.0,0.0,0.0,0.0,0.0,0.0,0.0,0.0,-1.0269,-0.9811,-0.9446,-0.9133,-0.7388,-0.6477,-0.6481,0.0,0.0,0.0,0.0,0.0,0.0,0.0,0.0,0.0,0.0,0.0,0.0,0.0,0.0,0.0,0.0,0.0,0.0,0.0,0.0,0.0,0.0,0.0,0.0,0.0,0.0,0.0,0.0,0.0,0.0,0.0,0.0,0.0,0.0,0.0,0.0,0.0,0.0,0.0,0.0,0.0,0.0,0.0,0.0,0.0,0.0,0.0,0.0,0.0,0.0,0.0,0.0,0.0,0.0,0.0,0.0,0.0,0.0,0.0,0.0,0.0,0.0,0.0,0.0,0.0,0.0,0.0,0.0,0.0,0.0,0.0,0.0,0.0,0.0,0.0,0.0,0.0,0.0,0.0,0.0,0.0,0.0,0.0,0.0,0.0,0.0,0.0,0.0,0.0,0.0,0.0,0.0,0.0,0.0,0.0,0.0,0.0,0.0,0.0,0.0,0.0,0.0,0.0,0.0,0.0,0.0,0.0,0.0,-1.0676,-1.026,-0.9987,-0.9776,-0.8027,-0.7548,0.0,0.0,0.0,0.0,0.0,0.0,0.0,0.0,0.0,0.0,0.0,0.0,0.0,0.0,0.0,0.0,0.0,0.0,0.0,0.0,0.0,0.0,0.0,0.0,0.0,0.0,0.0,0.0,0.0,0.0,0.0,0.0,0.0,0.0,0.0,0.0,0.0,0.0,0.0,0.0,0.0,0.0,0.0,0.0,0.0,0.0,0.0,0.0,0.0,0.0,0.0,0.0,0.0,0.0,0.0,0.0,0.0,0.0,0.0,0.0,0.0,0.0,0.0,0.0,0.0,0.0,0.0,0.0,0.0,0.0,0.0,0.0,0.0,0.0,0.0,0.0,0.0,0.0,0.0,0.0,0.0,0.0,0.0,0.0,0.0,0.0,0.0,0.0,0.0,0.0,0.0,0.0,0.0,0.0,0.0,0.0,0.0,0.0,0.0,0.0,0.0,0.0,0.0,0.0,0.0,0.0,0.0,0.0,0.0,-1.0429,-1.1394,-1.1607,-1.0806,-0.8853,-0.7592,0.0,0.0,0.0,0.0,0.0,0.0,0.0,0.0,0.0,0.0,0.0,0.0,0.0,0.0,0.0,0.0,0.0,0.0,0.0,0.0,0.0,0.0,0.0,0.0,0.0,0.0,0.0,0.0,0.0,0.0,0.0,0.0,0.0,0.0,0.0,0.0,0.0,0.0,0.0,0.0,0.0,0.0,0.0,0.0,0.0,0.0,0.0,0.0,0.0,0.0,0.0,0.0,0.0,0.0,0.0,0.0,0.0,0.0,0.0,0.0,0.0,0.0,0.0,0.0,0.0,0.0,0.0,0.0,0.0,0.0,0.0,0.0,0.0,0.0,0.0,0.0,0.0,0.0,0.0,0.0,0.0,0.0,0.0,0.0,0.0,0.0,0.0,0.0,0.0,0.0,0.0,0.0,0.0,0.0,0.0,0.0,0.0,0.0,0.0,0.0,0.0,0.0,0.0,0.0,0.0,0.0,0.0,0.0,-1.0915,-1.0998,-1.1913,-1.2169,-1.1674,-0.9621,-0.8418,0.0,0.0,0.0,0.0,0.0,0.0,0.0,0.0,0.0,0.0,0.0,0.0,0.0,0.0,0.0,0.0,0.0,0.0,0.0,0.0,0.0,0.0,0.0,0.0,0.0,0.0,0.0,0.0,0.0,0.0,0.0,0.0,0.0,0.0,0.0,0.0,0.0,0.0,0.0,0.0,0.0,0.0,0.0,0.0,0.0,0.0,0.0,0.0,0.0,0.0,0.0,0.0,0.0,0.0,0.0,0.0,0.0,0.0,0.0,0.0,0.0,0.0,0.0,0.0,0.0,0.0,0.0,0.0,0.0,0.0,0.0,0.0,0.0,0.0,0.0,0.0,0.0,0.0,0.0,0.0,0.0,0.0,0.0,0.0,0.0,0.0,0.0,0.0,0.0,0.0,0.0,0.0,0.0,0.0,0.0,0.0,0.0,0.0,0.0,0.0,0.0,0.0,0.0,0.0,0.0,0.0,0.0,0.0,-1.0221,-1.1915,-1.1895,-1.2003,-1.222,-1.0516,-0.9758,0.0,0.0,0.0,0.0,0.0,0.0,0.0,0.0,0.0,0.0,0.0,0.0,0.0,0.0,0.0,0.0,0.0,0.0,0.0,0.0,0.0,0.0,0.0,0.0,0.0,0.0,0.0,0.0,0.0,0.0,0.0,0.0,0.0,0.0,0.0,0.0,0.0,0.0,0.0,0.0,0.0,0.0,0.0,0.0,0.0,0.0,0.0,0.0,0.0,0.0,0.0,0.0,0.0,0.0,0.0,0.0,0.0,0.0,0.0,0.0,0.0,0.0,0.0,0.0,0.0,0.0,0.0,0.0,0.0,0.0,0.0,0.0,0.0,0.0,0.0,0.0,0.0,0.0,0.0,0.0,0.0,0.0,0.0,0.0,0.0,0.0,0.0,0.0,0.0,0.0,0.0,0.0,0.0,0.0,0.0,0.0,0.0,0.0,0.0,0.0,0.0,0.0,0.0,0.0,0.0,0.0,0.0,0.0,-1.0334,-1.1038,-1.096,-1.1278,-1.2055,-1.2439,-1.17,0.0,0.0,0.0,0.0,0.0,0.0,0.0,0.0,0.0,0.0,0.0,0.0,0.0,0.0,0.0,0.0,0.0,0.0,0.0,0.0,0.0,0.0,0.0,0.0,0.0,0.0,0.0,0.0,0.0,0.0,0.0,0.0,0.0,0.0,0.0,0.0,0.0,0.0,0.0,0.0,0.0,0.0,0.0,0.0,0.0,0.0,0.0,0.0,-0.2263,0.0,0.0,0.0,0.0,0.0,0.0,0.0,0.0,0.0,0.0,0.0,0.0,0.0,0.0,0.0,0.0,0.0,0.0,0.0,0.0,0.0,0.0,0.0,0.0,0.0,0.0,0.0,0.0,0.0,0.0,0.0,0.0,0.0,0.0,0.0,0.0,0.0,0.0,0.0,0.0,0.0,0.0,0.0,0.0,0.0,0.0,0.0,0.0,0.0,0.0,0.0,0.0,0.0,0.0,0.0,0.0,0.0,0.0,0.0,-1.0555,-1.1314,-1.0781,-1.0985,-1.2062,-1.3027,-1.2029,0.0,0.0,0.0,0.0,0.0,0.0,0.0,0.0,0.0,0.0,0.0,0.0,0.0,0.0,0.0,0.0,0.0,0.0,0.0,0.0,0.0,0.0,0.0,0.0,0.0,0.0,0.0,0.0,0.0,0.0,0.0,0.0,0.0,0.0,0.0,0.0,0.0,0.0,0.0,0.0,0.0,0.0,0.0,0.0,0.0,0.0,0.0,0.0,0.0,0.0,0.0,0.0,0.0,0.0,0.0,0.0,0.0,0.0,0.0,0.0,0.0,0.0,0.0,0.0,0.0,0.0,0.0,0.0,0.0,0.0,0.0,0.0,0.0,0.0,0.0,0.0,0.0,0.0,0.0,0.0,0.0,0.0,0.0,0.0,0.0,0.0,0.0,0.0,0.0,0.0,0.0,0.0,0.0,0.0,0.0,0.0,0.0,0.0,0.0,0.0,0.0,0.0,0.0,0.0,0.0,0.0,0.0,-1.0381,-1.0665,-1.1543,-1.0623,-1.0717,-1.1903,-1.274,-1.1659,-0.8513,0.0,0.0,0.0,0.0,0.0,0.0,0.0,0.0,0.0,0.0,0.0,0.0,0.0,0.0,0.0,0.0,0.0,0.0,0.0,0.0,0.0,0.0,0.0,0.0,0.0,0.0,0.0,0.0,0.0,0.0,0.0,0.0,0.0,0.0,0.0,0.0,0.0,0.0,-0.3631,-0.5582,0.0,0.0,0.0,0.0,0.0,0.0,0.0,0.0,-0.3293,0.0,0.0,0.0,0.0,0.0,0.0,0.0,0.0,0.0,0.0,0.0,0.0,0.0,0.0,0.0,0.0,0.0,0.0,0.0,0.0,0.0,0.0,0.0,0.0,0.0,0.0,0.0,0.0,0.0,0.0,0.0,0.0,0.0,0.0,0.0,0.0,0.0,0.0,0.0,0.0,0.0,0.0,0.0,0.0,0.0,0.0,0.0,0.0,0.0,0.0,0.0,0.0,0.0,0.0,0.0,0.0,-0.9586,-1.0245,-1.0415,-1.0002,-0.9532,-0.9775,-1.0757,-1.1737,-1.1541,-1.0101,0.0,0.0,0.0,0.0,0.0,0.0,0.0,0.0,0.0,0.0,0.0,0.0,0.0,0.0,0.0,0.0,0.0,0.0,0.0,0.0,0.0,0.0,0.0,0.0,0.0,0.0,0.0,0.0,0.0,0.0,0.0,0.0,0.0,0.0,0.0,0.0,0.0,0.0,0.0,-0.7221,-0.8439,0.0,0.0,0.0,0.0,0.0,0.0,0.0,0.0,-0.23,0.0,0.0,0.0,0.0,0.0,0.0,0.0,0.0,0.0,0.0,0.0,0.0,0.0,0.0,0.0,0.0,0.0,0.0,0.0,0.0,0.0,0.0,0.0,0.0,0.0,0.0,0.0,0.0,0.0,0.0,0.0,0.0,0.0,0.0,0.0,0.0,0.0,0.0,0.0,0.0,0.0,0.0,0.0,0.0,0.0,0.0,0.0,0.0,0.0,0.0,0.0,0.0,0.0,0.0,0.0,-0.8907,-0.9515,-0.9589,-0.9038,-0.8981,-0.9276,-0.9987,-1.1099,-1.1338,0.0,0.0,0.0,0.0,0.0,0.0,0.0,0.0,0.0,0.0,0.0,0.0,0.0,0.0,0.0,0.0,0.0,0.0,0.0,0.0,0.0,0.0,0.0,0.0,0.0,0.0,0.0,0.0,0.0,0.0,0.0,0.0,0.0,0.0,0.0,0.0,0.0,0.0,0.0,0.0,-0.5904,-0.7005,-0.5625,0.0,0.0,0.0,0.0,0.0,0.0,-0.4234,-0.4604,0.0,0.0,0.0,0.0,0.0,0.0,0.0,0.0,0.0,0.0,0.0,0.0,0.0,0.0,0.0,0.0,0.0,0.0,0.0,0.0,0.0,0.0,0.0,0.0,0.0,0.0,0.0,0.0,0.0,0.0,0.0,0.0,0.0,0.0,0.0,0.0,0.0,0.0,0.0,0.0,0.0,0.0,0.0,0.0,0.0,0.0,0.0,0.0,0.0,0.0,0.0,0.0,0.0,0.0,0.0,-0.8464,-0.8949,-0.8987,-0.8483,-0.867,-0.8998,-0.9471,-1.0944,-1.1544,0.0,0.0,0.0,0.0,0.0,0.0,0.0,0.0,0.0,0.0,0.0,0.0,0.0,0.0,0.0,0.0,0.0,0.0,0.0,0.0,0.0,0.0,0.0,0.0,0.0,0.0,0.0,0.0,0.0,0.0,0.0,0.0,0.0,0.0,0.0,0.0,0.0,0.0,0.0,0.0,0.0,-0.5601,-0.3492,-0.7171,0.0,0.0,0.0,0.0,-0.4706,-0.5782,0.0,0.0,0.0,0.0,0.0,0.0,0.0,0.0,0.0,0.0,0.0,0.0,0.0,0.0,0.0,0.0,0.0,0.0,0.0,0.0,0.0,0.0,0.0,0.0,0.0,0.0,0.0,0.0,0.0,0.0,0.0,0.0,0.0,0.0,0.0,0.0,0.0,0.0,0.0,0.0,0.0,0.0,0.0,0.0,0.0,0.0,0.0,0.0,0.0,0.0,0.0,0.0,0.0,0.0,0.0,0.0,-0.8615,-0.9261,-0.9208,-0.8377,-0.8579,-0.8889,-0.9266,-1.174,-1.2757,0.0,0.0,0.0,0.0,0.0,0.0,0.0,0.0,0.0,0.0,0.0,0.0,0.0,0.0,0.0,0.0,0.0,0.0,0.0,0.0,0.0,0.0,0.0,0.0,0.0,0.0,0.0,0.0,0.0,0.0,0.0,0.0,0.0,0.0,0.0,0.0,0.0,0.0,0.0,0.0,0.0,-0.6663,-0.6698,-0.9728,-1.1241,0.0,0.0,-0.6266,-0.3077,-0.2411,0.0,0.0,0.0,0.0,0.0,0.0,0.0,0.0,0.0,0.0,0.0,0.0,0.0,0.0,0.0,0.0,0.0,0.0,0.0,0.0,0.0,0.0,0.0,0.0,0.0,0.0,0.0,0.0,0.0,0.0,0.0,0.0,0.0,0.0,0.0,0.0,0.0,0.0,0.0,0.0,0.0,0.0,0.0,0.0,0.0,0.0,0.0,0.0,0.0,0.0,0.0,0.0,0.0,0.0,0.0,-0.7946,-0.8253,-0.8518,-0.8546,-0.8314,-0.8555,-0.884,-0.9136,-1.1585,-1.2506,0.0,0.0,0.0,0.0,0.0,0.0,0.0,0.0,0.0,0.0,0.0,0.0,0.0,0.0,0.0,0.0,0.0,0.0,0.0,0.0,0.0,0.0,0.0,0.0,0.0,0.0,0.0,0.0,0.0,0.0,0.0,0.0,0.0,0.0,0.0,0.0,0.0,0.0,0.0,0.0,0.0,0.0,-0.7046,-1.0201,0.0,0.0,0.0,-0.863,-0.7433,0.0,0.0,0.0,0.0,0.0,0.0,0.0,0.0,0.0,0.0,0.0,0.0,0.0,0.0,0.0,0.0,0.0,0.0,0.0,0.0,0.0,0.0,0.0,0.0,0.0,0.0,0.0,0.0,0.0,0.0,0.0,0.0,0.0,0.0,0.0,0.0,0.0,0.0,0.0,0.0,0.0,0.0,0.0,0.0,0.0,0.0,0.0,0.0,0.0,0.0,0.0,0.0,0.0,0.0,0.0,0.0,0.0,-0.7876,-0.7902,-0.7998,-0.8187,-0.8476,-0.8751,-0.9084,-1.1072,0.0,0.0,0.0,0.0,0.0,0.0,0.0,0.0,0.0,0.0,0.0,0.0,0.0,0.0,0.0,0.0,0.0,0.0,0.0,0.0,0.0,0.0,0.0,0.0,0.0,0.0,0.0,-0.0382,0.0,0.0,0.0,0.0,0.0,0.0,0.0,0.0,0.0,0.0,0.0,0.0,0.0,0.0,-0.5115,-0.666,-1.0491,-1.2679,0.0,0.0,-1.0725,-0.9763,-0.7519,-0.648,0.0,0.0,0.0,0.0,0.0,0.0,0.0,0.0,0.0,0.0,0.0,0.0,0.0,0.0,0.0,0.0,0.0,0.0,0.0,0.0,0.0,0.0,0.0,0.0,0.0,0.0,0.0,0.0,0.0,0.0,0.0,0.0,0.0,0.0,0.0,0.0,0.0,0.0,0.0,0.0,0.0,0.0,0.0,0.0,0.0,0.0,0.0,0.0,0.0,0.0,0.0,0.0,0.0,0.0,-0.7259,-0.7515,-0.7786,-0.7884,-0.7942,-0.8234,-0.8571,-0.8919,-1.0279,-1.1328,0.0,0.0,0.0,0.0,0.0,0.0,0.0,0.0,0.0,0.0,0.0,0.0,0.0,0.0,0.0,0.0,0.0,0.0,0.0,0.0,0.0,0.0,0.0,0.0,0.0,0.0,0.0,0.0,0.0,0.0,0.0,0.0,0.0,0.0,0.0,0.0,0.0,0.0,0.0,0.0,0.0,-0.5412,-0.5923,-1.1165,-1.3556,0.0,-1.0987,-1.1023,-0.6684,-0.5053,-0.5117,-0.7653,0.0,0.0,0.0,0.0,0.0,0.0,0.0,0.0,0.0,0.0,0.0,0.0,0.0,0.0,0.0,0.0,0.0,0.0,0.0,0.0,0.0,0.0,0.0,0.0,0.0,0.0,0.0,0.0,0.0,0.0,0.0,0.0,0.0,0.0,0.0,0.0,0.0,0.0,0.0,0.0,0.0,0.0,0.0,0.0,0.0,0.0,0.0,0.0,0.0,0.0,0.0,0.0,0.0,-0.7259,-0.7528,-0.7579,-0.7635,-0.7739,-0.8437,-0.8763,-0.8606,-1.0338,-1.1511,0.0,0.0,0.0,0.0,0.0,0.0,0.0,0.0,0.0,0.0,0.0,0.0,0.0,0.0,0.0,0.0,0.0,0.0,0.0,0.0,0.0,0.0,0.0,0.0,0.0,0.0,0.0,0.0,0.1261,0.1453,0.1227,0.0,0.0,0.0,0.0,0.0,0.0,0.0,0.0,0.0,0.0,-0.8069,-0.7212,-1.0525,0.0,0.0,-1.0894,-1.0382,-0.8434,-0.6703,-0.6649,-0.9734,-0.8878,0.0,0.0,0.0,0.0,0.0,0.0,0.0,0.0,0.0,0.0,0.0,0.0,0.0,0.0,0.0,0.0,0.0,0.0,0.0,0.0,0.0,0.0,0.0,0.0,0.0,0.0,0.0,0.0,0.0,0.0,0.0,0.0,0.0,0.0,0.0,0.0,0.0,0.0,0.0,0.0,0.0,0.0,0.0,0.0,0.0,0.0,0.0,0.0,0.0,0.0,0.0,0.0,-0.7152,-0.7715,-0.7525,-0.7453,-0.7559,-0.8498,-0.8925,-0.8789,-1.0407,-1.1613,0.0,0.0,0.0,0.0,0.0,0.0,0.0,0.0,0.0,0.0,0.0,0.0,0.0,0.0,0.0,0.0,0.0,0.0,0.0,0.0,0.0,0.0,0.0,0.0,0.0,0.0,0.0,0.0,0.1751,0.1804,0.0502,0.0,0.0,0.0,0.0,0.0,0.0,0.0,0.0,0.0,0.0,-0.9286,-0.8584,-1.071,-1.24,-1.2406,-1.1993,-1.1421,-1.0806,-0.9277,-0.903,-1.1614,0.0,0.0,0.0,0.0,0.0,0.0,0.0,0.0,0.0,0.0,0.0,0.0,0.0,0.0,0.0,0.0,0.0,0.0,0.0,0.0,0.0,0.0,0.0,0.0,0.0,0.0,0.0,-0.0495,0.0,0.0,-0.1048,0.0,0.0,0.0,0.0,0.0,0.0,0.0,0.0,0.0,0.0,0.0,0.0,0.0,0.0,0.0,0.0,0.0,0.0,0.0,0.0,0.0,0.0,-0.6879,-0.7987,-0.761,-0.7406,-0.7449,-0.8323,-0.9049,-0.9461,-1.0339,-1.1551,-1.3126,0.0,0.0,0.0,0.0,0.0,0.0,0.0,0.0,0.0,0.0,0.0,0.0,0.0,0.0,0.0,0.0,0.0,0.0,0.0,0.0,0.0,0.0,0.0,0.0,0.0,0.0,0.1951,0.2093,0.1526,0.0,0.0,0.0,0.0,0.0,0.0,0.0,0.0,0.0,-0.7055,-0.7679,-0.8435,-0.9853,-1.2133,-1.367,-1.3547,-1.4513,-1.4788,-1.3193,-1.2344,-1.2189,0.0,0.0,0.0,0.0,0.0,0.0,0.0,0.0,0.0,0.0,0.0,0.0,0.0,0.0,0.0,0.0,0.0,0.0,0.0,0.0,0.0,0.0,0.0,0.0,0.0,0.0,0.0,-0.0538,-0.088,0.0,0.0,0.0,0.0,0.0,0.0,0.0,0.0,0.0,0.0,0.0,-0.8197,-0.8777,0.0,0.0,0.0,0.0,0.0,0.0,0.0,0.0,0.0,0.0,0.0,0.0,-0.7175,-0.8441,-0.805,-0.7995,-0.8405,-0.9255,-0.9675,-0.9589,-1.059,-1.1778,-1.321,0.0,0.0,0.0,0.0,0.0,0.0,0.0,0.0,0.0,0.0,0.0,0.0,0.0,0.0,0.0,0.0,0.0,0.0,0.0,0.0,0.0,0.0,0.0,0.0,0.0,-0.4749,0.0,0.0,0.0,0.0,0.0,0.0,0.0,0.0,0.0,0.0,0.0,-1.057,-1.0211,-1.3097,-1.4765,-1.3509,-1.3809,-1.4017,0.0,0.0,0.0,0.0,0.0,0.0,0.0,0.0,0.0,0.0,0.0,0.0,0.0,0.0,-1.0815,-1.2162,-1.0813,-0.9485,-0.9653,0.0,0.0,0.0,0.0,0.0,0.0,0.0,0.0,0.0,0.0,0.0,0.0,0.0,0.0,-0.1131,-0.128,-0.2308,0.0,0.0,0.0,0.0,0.0,0.0,0.0,0.0,-0.6222,-0.7282,-0.8388,-0.9104,-0.9722,0.0,-1.0811,-1.1153,0.0,0.0,0.0,0.0,0.0,0.0,0.0,0.0,-0.7466,-0.8924,-0.8147,-0.7946,-0.8537,-0.946,-0.9915,-0.9875,-1.1091,-1.212,-1.2888,-1.4038,-1.4568,0.0,0.0,0.0,0.0,0.0,0.0,0.0,0.0,0.0,0.0,0.0,0.0,0.0,0.0,0.0,0.0,0.0,0.0,0.0,0.0,0.0,0.0,0.0,-0.6837,0.0,0.0,0.0,0.0,0.0,0.0,0.0,0.0,0.0,-0.8592,-1.1558,-1.3795,-1.3299,-1.58,-1.7321,-1.6387,0.0,0.0,0.0,0.0,0.0,0.0,0.0,-1.6334,-1.7667,-1.7752,-1.8197,-1.9798,-1.83,-1.6924,-1.7129,0.0,0.0,-1.7036,-1.5603,-1.4412,-1.4682,-1.2075,-1.0627,-1.3322,-1.356,-1.4,0.0,0.0,0.0,0.0,0.0,0.0,0.0,0.0,-0.112,-0.1401,0.0,-0.3384,0.0,0.0,0.0,0.0,-0.3259,-0.3809,0.0,0.0,-0.6565,-0.7688,-0.9141,-0.9234,-0.9867,-1.0979,-1.1873,-1.2628,-1.3244,-1.2043,0.0,0.0,0.0,0.0,0.0,0.0,-0.781,-0.9419,-0.8009,-0.7429,-0.7936,-0.8971,-0.9804,-1.0333,-1.1769,-1.2455,-1.2292,-1.3728,-1.3726,-1.1963,-1.4211,0.0,0.0,0.0,0.0,0.0,0.0,0.0,0.0,0.0,0.0,0.0,0.0,0.0,0.0,0.0,0.0,0.0,0.0,0.0,0.0,-0.3943,0.0,0.0,0.0,0.0,0.0,0.0,0.0,0.0,0.0,0.0,-1.5513,-1.4205,-1.3991,-1.6362,0.0,0.0,0.0,0.0,-1.7634,-2.0612,-2.0625,-2.0174,-2.0156,-1.9348,-1.8851,-1.9245,0.0,0.0,-1.9166,-1.9955,-2.038,-2.0457,-2.0324,-1.9452,-1.6259,-1.8103,-1.9955,-2.005,-1.9599,-2.002,-2.0117,-1.9336,-1.9521,-0.0624,0.0,0.0,0.0,0.0,-0.0781,-0.1017,-0.0936,-0.1606,-0.1829,-0.1765,-0.2686,0.0,0.0,0.0,0.0,0.0,0.0,-0.5571,-0.6893,-0.7408,-0.836,-0.9688,-0.9034,-0.9392,-1.0572,-1.0891,-1.1613,-1.266,-1.2545,-1.2388,-1.2249,0.0,0.0,0.0,0.0,-0.9227,-0.983,-0.9062,-0.8873,-0.9424,-0.9762,-1.0177,-1.0734,-1.1659,-1.2275,-1.2473,-1.3311,-1.3777,-1.3833,-1.3651,0.0,0.0,0.0,0.0,0.0,0.0,0.0,0.0,0.0,0.0,0.0,0.0,0.0,0.0,0.0,0.0,0.0,0.0,0.0,-0.9663,-0.8298,-0.8891,0.0,0.0,0.0,0.0,0.0,0.0,0.0,0.0,0.0,-1.983,-1.9927,-2.0037,0.0,0.0,-2.1626,-2.1659,-2.0282,-1.9573,-2.0506,-1.9899,0.0,-1.9444,-1.9657,-1.989,-2.0005,-1.978,-1.9719,-2.0018,-2.0274,-2.0441,-2.05,-2.0506,-2.0155,-1.9396,-1.921,-1.9493,-1.9441,-1.8976,-1.8756,-1.9263,-1.896,-1.8544,-0.1565,-0.0721,-0.0897,-0.0759,-0.0521,-0.112,-0.1253,-0.1137,-0.1643,-0.2005,-0.2289,-0.2769,-0.3288,-0.3754,-0.3346,0.0,0.0,0.0,-0.6258,-0.7384,-0.7706,-0.8456,-0.9387,-0.8806,-0.9193,-1.0335,-1.0678,-1.125,-1.2081,-1.2813,-1.2928,-1.257,0.0,0.0,-1.1137,-1.0041,-0.9603,-0.9752,-0.9263,-0.9243,-0.9715,-1.0057,-1.0458,-1.0875,-1.1343,-1.1776,-1.2274,-1.2708,-1.3025,-1.3156,-1.3608,-1.4049,0.0,0.0,0.0,0.0,0.0,0.0,0.0,0.0,0.0,0.0,0.0,-1.2832,-1.402,0.0,0.0,0.0,-0.7001,-0.5996,-1.2195,-1.3412,0.0,0.0,0.0,0.0,0.0,0.0,0.0,-2.0332,-2.1385,-2.2061,-2.2088,-2.2559,-2.2333,-2.0772,-2.1466,-2.2165,-2.2293,0.0,-2.0441,-2.079,-2.0345,-1.9887,-1.9645,-1.9998,-2.0299,-2.0288,-2.0353,-2.0388,-2.0385,-2.042,-2.0456,-2.0497,-2.0514,-2.051,-2.0565,-2.0056,-1.9671,-1.9684,-1.9283,-1.9121,-1.9607,-1.9243,-1.8873,-0.2621,-0.2253,-0.2166,-0.2071,-0.1857,-0.1451,-0.1286,-0.1281,-0.1377,-0.1987,-0.2944,-0.3378,-0.3659,-0.3829,-0.4061,0.0,-0.4899,-0.5851,-0.6713,-0.7525,-0.7749,-0.8214,-0.8903,-0.874,-0.9224,-1.031,-1.0925,-1.1299,-1.156,-1.2704,-1.306,-1.2607,-1.2632,-1.2456,-1.2033,-1.0469,-0.9617,-0.9605,-0.9242,-0.9093,-0.92,-1.0013,-1.0583,-1.0825,-1.0865,-1.1148,-1.1721,-1.2072,-1.1806,-1.1074,-1.3763,-1.4484,-1.2768,0.0,0.0,0.0,0.0,0.0,0.0,0.0,0.0,0.0,0.0,0.0,0.0,0.0,0.0,0.0,-0.5639,0.0,-1.1233,-1.7991,0.0,0.0,0.0,-1.6096,-1.5896,-1.9256,-2.1613,-2.1681,0.0,0.0,-2.272,-2.2689,-2.1803,-1.9415,-1.9219,-1.9843,-2.1307,-2.0807,-2.0521,-2.1346,-2.1353,-2.102,-2.0308,-2.0268,-2.0295,-2.0294,-2.0373,-2.0396,-2.0388,-2.0449,-2.0508,-2.0503,-2.0513,-2.0511,-2.051,-2.0476,-2.0502,-2.0526,-2.0539,-2.0555,-2.0513,-2.0423,-2.0338,-0.3662,-0.3509,-0.2944,-0.2448,-0.2019,-0.1539,-0.1218,-0.0958,-0.1428,-0.1999,-0.2554,-0.2903,-0.3155,-0.3305,-0.3703,-0.4151,-0.4654,-0.6188,-0.7196,-0.7771,-0.8666,-0.9362,-0.9899,-0.9393,-0.9612,-1.0396,-1.0236,-1.0391,-1.0836,-1.1344,-1.226,-1.3514,-1.3671,-1.3864,-1.4079,-1.3579,-1.2864,-1.1971,-1.1873,-1.115,-0.9856,-1.0109,-1.0274,-1.0285,-1.0483,-1.0821,-1.1324,-1.1461,-1.1697,-1.2034,-1.2799,-1.3922,-1.5467,-1.5287,0.0,0.0,0.0,0.0,0.0,0.0,0.0,0.0,0.0,-1.3278,-1.625,0.0,-1.8058,0.0,-1.72,-1.5259,-1.5075,-1.3538,0.0,0.0,-1.677,-1.6953,-1.972,-2.0889,-2.172,-2.2431,-2.2103,-2.1825,-2.1801,-2.1286,-2.0704,-2.0027,-2.1109,-2.2115,-2.2473,-2.122,-2.0573,-2.1247,-2.0477,-1.9791,-2.0222,-2.0288,-2.0302,-2.0295,-2.034,-2.0388,-2.0388,-2.0439,-2.0506,-2.0508,-2.0503,-2.0516,-2.0492,-2.0499,-2.0508,-2.0521,-2.0566,-2.0602,-2.0601,-2.0575,-2.057,-0.4237,-0.4207,-0.3775,-0.3413,-0.3101,-0.2151,-0.1798,-0.1949,-0.2271,-0.2716,-0.3215,-0.3394,-0.345,-0.3406,-0.3935,-0.4464,-0.504,-0.656,-0.7636,-0.8283,-0.9226,-0.9872,-1.027,-1.0015,-1.0167,-1.0659,-1.0599,-1.0771,-1.1189,-1.144,-1.2142,-1.3217,-1.346,-1.41,-1.5066,-1.4879,-1.4271,-1.3411,-1.3115,-1.205,-1.0161,-1.0349,-1.0636,-1.0977,-1.0952,-1.153,-1.2753,-1.2392,-1.2577,-1.3527,-1.3283,-1.3866,-1.5479,-1.5798,-1.6431,0.0,0.0,0.0,0.0,0.0,0.0,0.0,0.0,0.0,0.0,0.0,-1.9079,-2.1317,-1.9211,-1.7553,-1.721,-1.3905,-1.3833,-1.8989,-1.8136,-1.8174,-2.0662,-2.0603,-2.0708,-2.1586,-2.1274,-2.0966,-2.0943,-2.0581,-2.0292,-2.0246,-2.1105,-2.1733,-2.1629,-2.0843,-2.0477,-2.0877,-2.0197,-1.9748,-2.0276,-2.0354,-2.0347,-2.0353,-2.0377,-2.0394,-2.0399,-2.0429,-2.0454,-2.0429,-2.0449,-2.0448,-2.0409,-2.0449,-2.0471,-2.047,-2.0484,-2.0539,-2.0586,-2.0602,-2.0598,-0.463,-0.458,-0.453,-0.453,-0.4426,-0.3092,-0.2834,-0.3381,-0.3386,-0.371,-0.4258,-0.4236,-0.4096,-0.391,-0.4502,-0.5179,-0.5875,-0.715,-0.8172,-0.8992,-0.9791,-1.0273,-1.0443,-1.0718,-1.0935,-1.1063,-1.143,-1.1712,-1.1932,-1.2168,-1.2432,-1.2705,-1.3023,-1.4012,-1.5565,-1.5289,-1.491,-1.4377,-1.3716,-1.2497,-1.0717,-1.1224,-1.1871,-1.2537,-1.2291,-1.2997,-1.484,-1.4026,-1.4071,-1.5154,-1.4694,-1.4491,-1.4854,-1.6617,-1.7541,0.0,-1.8804,0.0,0.0,0.0,0.0,0.0,0.0,0.0,0.0,-1.845,-1.8882,-1.9652,-1.692,-1.5998,-1.8085,-1.6417,-1.6502,-1.952,-1.9354,-1.9288,-2.0054,-1.9603,-1.9482,-2.0185,-2.0246,-2.0253,-2.0265,-2.0269,-2.025,-2.0238,-2.0323,-2.0427,-2.0249,-2.0285,-2.0315,-2.0292,-2.0424,-2.0502,-2.0424,-2.0502,-2.0553,-2.0417,-2.0359,-2.0383,-2.0388,-2.0377,-2.0353,-2.0334,-2.0347,-2.0371,-2.0289,-2.0332,-2.0395,-2.0366,-2.037,-2.0418,-2.0537,-2.0586,-2.0546,-0.5031,-0.4807,-0.4707,-0.4656,-0.4646,-0.4358,-0.4026,-0.3743,-0.392,-0.4212,-0.4515,-0.4281,-0.4431,-0.4868,-0.549,-0.636,-0.7471,-0.8451,-0.9209,-0.9906,-1.1025,-1.1394,-1.1263,-1.1907,-1.2132,-1.1958,-1.2033,-1.2063,-1.1978,-1.221,-1.2987,-1.4318,-1.458,-1.5318,-1.6501,0.0,0.0,0.0,-1.482,-1.3871,-1.3085,-1.4637,-1.5412,-1.5191,-1.5363,0.0,-1.5821,-1.5452,-1.5531,-1.6196,-1.6662,0.0,0.0,0.0,0.0,0.0,0.0,0.0,0.0,0.0,0.0,0.0,-2.1543,-2.096,-1.9417,-1.933,-1.9501,-1.9785,-1.8347,-1.7416,-1.7557,-1.7198,-1.753,-1.8912,-1.8885,-1.9124,-1.9978,-1.9869,-1.9849,-2.0012,-2.0002,-1.9982,-1.9982,-2.003,-2.004,-1.9992,-2.0079,-2.0115,-2.0133,-2.0227,-2.0287,-2.0334,-2.0869,-2.1074,-2.0342,-2.0894,-2.1061,-2.0469,-2.0262,-2.0306,-2.0294,-2.0219,-2.0223,-2.0269,-2.0294,-2.0268,-2.0164,-2.0238,-2.0283,-2.0257,-2.0225,-2.0302,-2.0472,-2.0515,-2.0307,-0.5293,-0.5073,-0.5022,-0.5073,0.0,-0.5143,-0.5,-0.4774,-0.4741,-0.4864,-0.5153,-0.5247,-0.5419,-0.5733,-0.6488,-0.7313,-0.8238,-0.9101,-0.9883,-1.058,-1.164,-1.2249,-1.239,-1.3258,-1.362,-1.3661,-1.3861,-1.3782,-1.3395,-1.3467,-1.3815,-1.4385,-1.4633,-1.5046,-1.5581,-1.584,-1.5724,-1.5196,-1.5051,-1.4292,-1.302,-1.3967,-1.4699,-1.5087,-1.5108,0.0,0.0,0.0,0.0,0.0,0.0,0.0,0.0,-1.7473,0.0,-1.8538,-1.9556,-2.0121,-2.0116,-2.0715,-2.1058,-2.0966,-2.0732,-2.0218,-1.9364,-1.8961,-1.8712,-1.87,-1.8248,-1.7864,-1.7636,-1.7603,-1.7873,-1.8488,-1.8224,-1.8445,-1.9606,-1.9509,-1.946,-1.9855,-1.9931,-1.992,-1.996,-1.9971,-1.9971,-1.9901,-1.9962,-2.0022,-2.0096,-2.0235,-2.0301,-2.0366,-2.1034,-2.1244,-2.0493,-2.09,-2.1196,-2.0373,-2.0142,-2.0175,-2.0148,-2.0095,-2.0059,-2.0097,-2.0124,-2.0124,-2.005,-2.0087,-2.0148,-2.0129,-2.0109,-2.0165,-2.0336,-2.0425,-2.0391,-0.5462,-0.5352,-0.5352,-0.5458,-0.5618,-0.5677,-0.5736,-0.5837,-0.5523,0.0,0.0,-0.6177,-0.6394,-0.6516,-0.7481,-0.8201,-0.8833,-0.9798,-1.0606,-1.1307,-1.2294,-1.3085,-1.3701,-1.4473,-1.4993,-1.5285,-1.5673,-1.5511,-1.4891,-1.4831,-1.4488,-1.3949,-1.4196,-1.433,-1.4397,-1.4718,-1.4641,-1.4165,-1.5012,-1.4604,-1.2827,-1.3209,-1.3932,-1.4966,-1.4797,-1.5569,-1.7397,-1.6713,-1.6603,-1.727,-1.6169,-1.5744,-1.6313,-1.7215,-1.8083,-1.8929,-2.0678,-2.1425,-2.0802,-2.0768,-2.036,-1.9419,-1.8943,-1.8824,-1.9086,-1.8429,-1.7932,-1.7814,-1.8047,-1.8146,-1.8122,-1.8135,-1.8222,-1.8495,-1.7981,-1.8205,-1.94,-1.9095,-1.9063,-1.975,-1.9818,-1.9828,-2.0017,-1.9896,-1.9824,-1.9764,-1.9783,-1.9893,-2.0041,-2.0208,-2.0308,-2.0404,-2.1005,-2.1199,-2.0504,-2.0831,-2.0929,-2.0193,-2.0031,-2.005,-1.9993,-1.9963,-1.9922,-1.9918,-1.995,-1.995,-1.9907,-1.996,-2.0001,-2.0059,-2.001,-2.002,-2.015,-2.0294,-2.034,-0.5403,-0.5567,-0.5567,-0.5626,-0.5791,-0.5896,-0.6005,-0.6105,-0.569,-0.5587,-0.5719,-0.6196,-0.6625,-0.7136,-0.8402,-0.9307,-1.0035,-1.1396,-1.2093,-1.2299,-1.3586,-1.4392,-1.4726,-1.5209,-1.5599,-1.5885,-1.5935,-1.5724,-1.5259,-1.4993,-1.4488,-1.3865,-1.3997,-1.4176,-1.4211,-1.4138,-1.3941,-1.3741,-1.5379,-1.5827,-1.4923,-1.6559,-1.75,-1.7568,-1.7821,-1.8135,-1.83,-1.8413,-1.8601,-1.8696,-1.8843,-1.8781,-1.8518,-1.8944,-1.9229,-1.9148,-2.0317,-2.0669,-1.9881,-2.0372,-2.0144,-1.8878,-1.8455,-1.8497,-1.903,-1.889,-1.8835,-1.9008,-1.9151,-1.9234,-1.9328,-1.9309,-1.9318,-1.9412,-1.9244,-1.9216,-1.9456,-1.9316,-1.9426,-2.0039,-1.9545,-1.952,-2.0051,-1.9682,-1.9329,-1.9206,-1.9439,-1.9651,-1.995,-2.0145,-2.0268,-2.0361,-2.0962,-2.0983,-2.0298,-2.0756,-2.0839,-1.9924,-1.9862,-1.9888,-1.9836,-1.9793,-1.9788,-1.9881,-1.9904,-1.9881,-1.9837,-1.987,-1.9915,-1.9922,-1.9919,-1.9941,-2.0009,-2.0096,-1.9988,-0.5572,-0.5622,-0.5677,-0.5791,-0.5896,-0.6064,-0.6173,-0.6223,-0.6338,-0.6273,-0.6287,-0.7114,-0.7614,-0.7911,-0.9204,-1.0191,-1.0788,-1.2035,-1.2762,-1.314,-1.4212,-1.5064,-1.5578,-1.6073,-1.6467,-1.6744,-1.6744,-1.6322,-1.5513,-1.5309,-1.4796,-1.4021,-1.3835,-1.3825,-1.3846,-1.354,-1.3331,-1.3263,-1.4472,-1.4789,-1.4243,-1.5291,-1.5894,-1.6045,-1.643,-1.6686,-1.6774,-1.7314,-1.7638,-1.7638,-1.8068,-1.8444,-1.8846,-1.907,-1.9216,-1.9379,-1.9884,-2.0059,-1.9727,-1.99,-1.9861,-1.9486,-1.9013,-1.9048,-1.9685,-1.9336,-1.9422,-2.0137,-2.0228,-2.0137,-1.9961,-1.9822,-1.9623,-1.9227,-1.9459,-1.9682,-1.9771,-2.01,-2.0409,-2.0661,-2.0407,-2.0243,-2.0492,-2.0183,-1.9647,-1.9165,-1.9246,-1.9684,-2.0233,-2.0579,-2.0613,-2.0259,-2.0747,-2.0809,-2.0074,-2.055,-2.0646,-1.9851,-1.9757,-1.977,-1.9707,-1.9668,-1.9712,-1.977,-1.977,-1.9751,-1.9782,-1.9788,-1.9794,-1.9806,-1.9788,-1.9801,-1.9873,-1.9958,-1.9791,-0.5736,-0.5732,-0.5791,-0.5896,-0.6059,-0.6332,-0.6337,-0.6287,-0.7031,-0.7189,-0.7045,-0.8004,-0.8547,-0.8717,-1.0015,-1.0906,-1.1541,-1.2589,-1.3316,-1.3839,-1.481,-1.5645,-1.6273,-1.6809,-1.7157,-1.7352,-1.7352,-1.671,-1.5696,-1.541,-1.4879,-1.401,-1.3438,-1.3347,-1.3639,-1.3155,-1.2951,-1.3095,-1.3626,-1.3714,-1.3358,-1.3672,-1.4004,-1.4312,-1.4657,-1.4966,-1.5299,-1.6065,-1.6526,-1.6694,-1.7194,-1.7889,-1.881,-1.9001,-1.9175,-1.9499,-1.9678,-1.9802,-1.9932,-1.9742,-1.9751,-2.0133,-1.9665,-1.9689,-2.0328,-1.9956,-1.9963,-2.077,-2.0888,-2.0741,-2.0439,-2.0256,-1.9927,-1.9413,-1.9787,-2.0183,-2.0255,-2.0737,-2.1164,-2.1271,-2.1057,-2.0788,-2.085,-2.071,-2.0254,-1.9597,-1.9594,-2.0055,-2.0711,-2.1083,-2.0884,-2.0445,-2.0634,-2.0684,-1.9981,-2.0226,-2.0292,-1.9742,-1.986,-1.986,-1.9814,-1.9838,-1.9921,-1.9924,-1.9892,-2.003,-2.0063,-1.9851,-1.9838,-1.9994,-1.9913,-1.9712,-1.9788,-1.9877,-1.9868,-0.5841,-0.6119,-0.6064,-0.6059,-0.6282,-0.6761,-0.6712,-0.6445,-0.7676,-0.8078,-0.7911,-0.8495,-0.9065,-0.9592,-1.061,-1.1465,-1.2184,-1.3537,-1.4226,-1.4442,-1.5586,-1.6434,-1.6815,-1.7173,-1.7352,-1.7352,-1.7131,-1.6471,-1.5555,-1.5005,-1.4249,-1.3322,-1.2582,-1.2781,-1.3564,-1.3092,-1.304,-1.3518,-1.3614,-1.3587,-1.352,-1.3753,-1.4044,-1.441,-1.4643,-1.4949,-1.5342,-1.5953,-1.6623,-1.7195,-1.7894,-1.8536,-1.9067,-1.9515,-1.9664,-1.941,-1.985,-2.0228,-2.0385,-2.0297,-2.0182,-2.0093,-1.9976,-2.0203,-2.1017,-2.0805,-2.0576,-2.0807,-2.0929,-2.1033,-2.0939,-2.0898,-2.0806,-2.0613,-2.0773,-2.088,-2.0813,-2.0719,-2.0894,-2.15,-2.0977,-2.0514,-2.1112,-2.0786,-2.0401,-2.0416,-2.0421,-2.0648,-2.1169,-2.1352,-2.1223,-2.0598,-2.0682,-2.0583,-1.9931,-1.9718,-1.9791,-1.9689,-2.0229,-2.0285,-2.0136,-2.0765,-2.1484,-2.0217,-2.0356,-2.0712,-2.0607,-2.0326,-2.0,-2.0469,-2.0263,-1.9738,-1.9788,-1.9868,-1.9861,-0.6332,-0.6603,-0.6652,-0.6652,-0.682,-0.7246,-0.73,-0.709,-0.8256,-0.8817,-0.9006,-0.9496,-0.9858,-1.0179,-1.1242,-1.2055,-1.2626,-1.3788,-1.4482,-1.491,-1.5835,-1.6497,-1.6876,-1.7044,-1.7115,-1.7031,-1.6471,-1.5808,-1.505,-1.4376,-1.3825,-1.3418,-1.2775,-1.2715,-1.3065,-1.2519,-1.2309,-1.2531,-1.2786,-1.2925,-1.303,-1.3649,-1.4209,-1.46,-1.4931,-1.5462,-1.616,-1.6831,-1.7439,-1.8,-1.8507,-1.9065,-1.978,-2.0012,-2.0075,-1.9899,-2.0009,-2.0202,-2.0478,-2.0441,-2.0659,-2.117,-2.0861,-2.1015,-2.1769,-2.1817,-2.1737,-2.1584,-2.1779,-2.1836,-2.155,-2.1406,-2.1133,-2.0674,-2.0893,-2.1188,-2.0965,-2.137,-2.1807,-2.2055,-2.164,-2.1441,-2.1715,-2.1206,-2.0824,-2.0928,-2.0918,-2.1074,-2.1622,-2.1952,-2.1945,-2.1676,-2.1441,-2.071,-1.9793,-1.9456,-1.9518,-1.9736,-2.0304,-2.0616,-2.0686,-2.1241,-2.1699,-2.0618,-2.0843,-2.1039,-2.0952,-2.0388,-1.9974,-2.0586,-2.0437,-1.9851,-2.0369,-2.0133,-1.9953,-0.6825,-0.7041,-0.7192,-0.7241,-0.73,-0.7717,-0.7824,-0.7877,-0.8764,-0.9488,-0.9894,-1.0592,-1.0939,-1.1157,-1.1801,-1.2501,-1.3246,-1.3956,-1.4674,-1.5334,-1.6107,-1.6595,-1.6735,-1.696,-1.6863,-1.6509,-1.5864,-1.5039,-1.4272,-1.3647,-1.3334,-1.3226,-1.2859,-1.2652,-1.2659,-1.2187,-1.2004,-1.2223,-1.2431,-1.2579,-1.2797,-1.3564,-1.4175,-1.4482,-1.5031,-1.5741,-1.6558,-1.7313,-1.8017,-1.8641,-1.9005,-1.9549,-2.0222,-2.0424,-2.0469,-2.0499,-2.0376,-2.042,-2.0708,-2.0724,-2.1072,-2.1824,-2.1625,-2.1657,-2.2141,-2.2443,-2.2398,-2.2051,-2.2101,-2.1921,-2.1927,-2.179,-2.1369,-2.0685,-2.1247,-2.1562,-2.1471,-2.2017,-2.2281,-2.2304,-2.1955,-2.194,-2.1919,-2.1524,-2.1299,-2.1336,-2.1284,-2.1424,-2.2043,-2.2433,-2.2557,-2.2386,-2.1816,-2.1184,-2.0077,-1.9801,-1.9804,-2.03,-2.1042,-2.1633,-2.1461,-2.2092,-2.2065,-2.1339,-2.1325,-2.1151,-2.0939,-2.0425,-1.9911,-2.0471,-2.0479,-2.0131,-2.0364,-2.0214,-2.0101,-0.722,-0.7376,-0.7622,-0.7717,-0.7723,-0.8131,-0.8277,-0.8389,-0.9311,-1.0041,-1.0618,-1.1551,-1.2274,-1.2666,-1.2323,-1.288,-1.4107,-1.4305,-1.4858,-1.5748,-1.6479,-1.6637,-1.6398,-1.7005,-1.6782,-1.5808,-1.5433,-1.4492,-1.3208,-1.29,-1.2676,-1.2569,-1.257,-1.2618,-1.2696,-1.2454,-1.2531,-1.2887,-1.2754,-1.2812,-1.313,-1.3575,-1.3796,-1.3915,-1.4814,-1.566,-1.614,-1.704,-1.8014,-1.903,-1.9499,-1.9924,-2.027,-2.0634,-2.0863,-2.0911,-2.0972,-2.1082,-2.1272,-2.1272,-2.1458,-2.1853,-2.1903,-2.196,-2.2068,-2.2315,-2.2248,-2.184,-2.1324,-2.1213,-2.1694,-2.1871,-2.1916,-2.1792,-2.204,-2.2192,-2.2265,-2.2108,-2.2061,-2.1869,-2.1721,-2.1584,-2.1213,-2.1552,-2.1766,-2.1824,-2.1905,-2.2095,-2.2339,-2.2626,-2.2476,-2.2021,-2.1809,-2.179,-2.127,-2.0715,-2.0796,-2.1163,-2.173,-2.2895,-2.3057,-2.3034,-2.2501,-2.2046,-2.1971,-2.1634,-2.1052,-2.0557,-2.0129,-2.034,-2.083,-2.0763,-2.0795,-2.0783,-2.0546,-0.7854,-0.8215,-0.8527,-0.8679,-0.8732,-0.9086,-0.919,-0.9138,-1.0064,-1.0685,-1.1091,-1.176,-1.2372,-1.2881,-1.2676,-1.3228,-1.4305,-1.464,-1.5198,-1.5836,-1.6293,-1.6454,-1.6355,-1.657,-1.6343,-1.5644,-1.5165,-1.4266,-1.3055,-1.2881,-1.2822,-1.2735,-1.2686,-1.2676,-1.2676,-1.2421,-1.2421,-1.2559,-1.2421,-1.2372,-1.255,-1.3286,-1.3669,-1.3697,-1.5006,-1.6143,-1.6849,-1.7893,-1.8744,-1.9456,-1.987,-2.0177,-2.0342,-2.0527,-2.063,-2.0663,-2.0665,-2.0764,-2.1023,-2.1087,-2.1245,-2.1615,-2.1751,-2.1827,-2.1857,-2.1957,-2.1886,-2.1495,-2.1087,-2.1023,-2.1324,-2.1735,-2.1969,-2.1911,-2.2015,-2.2061,-2.1945,-2.1797,-2.1661,-2.1615,-2.1601,-2.1648,-2.1708,-2.1991,-2.2106,-2.2094,-2.2192,-2.2304,-2.236,-2.2497,-2.2468,-2.2203,-2.1917,-2.1888,-2.2323,-2.1509,-2.1189,-2.1412,-2.194,-2.2884,-2.3337,-2.3855,-2.357,-2.2412,-2.2314,-2.1784,-2.1071,-2.0783,-2.0399,-2.0966,-2.1367,-2.1414,-2.1422,-2.1253,-2.0721,-0.8385,-0.8744,-0.9194,-0.9413,-0.9465,-0.988,-0.9984,-1.0051,-1.0935,-1.1498,-1.1813,-1.2369,-1.2849,-1.3212,-1.3223,-1.3559,-1.4275,-1.4671,-1.5187,-1.578,-1.6151,-1.6151,-1.5964,-1.6051,-1.5676,-1.4971,-1.4417,-1.372,-1.3036,-1.2891,-1.2891,-1.2891,-1.2774,-1.2725,-1.2676,-1.2382,-1.2126,-1.2076,-1.2026,-1.1968,-1.2116,-1.3084,-1.3658,-1.3931,-1.5299,-1.6514,-1.73,-1.8249,-1.8983,-1.9472,-1.9762,-1.9975,-2.008,-2.0135,-2.0204,-2.022,-2.015,-2.0254,-2.0514,-2.0632,-2.0926,-2.1417,-2.157,-2.1648,-2.1648,-2.1738,-2.1587,-2.123,-2.1087,-2.1038,-2.1214,-2.1601,-2.1811,-2.1768,-2.1869,-2.1899,-2.1738,-2.157,-2.1417,-2.1308,-2.1432,-2.1617,-2.1754,-2.2065,-2.2123,-2.2007,-2.2118,-2.2203,-2.2175,-2.2287,-2.2415,-2.2463,-2.2255,-2.2183,-2.2433,-2.2113,-2.2172,-2.241,-2.2615,-2.3356,-2.3755,-2.431,-2.412,-2.3015,-2.2173,-2.1606,-2.1221,-2.0915,-2.1202,-2.1704,-2.2051,-2.2084,-2.1877,-2.1582,-2.0921,-0.881,-0.9165,-0.9595,-0.9859,-0.9918,-1.0265,-1.0718,-1.1073,-1.1843,-1.2339,-1.2669,-1.3389,-1.3671,-1.397,-1.3776,-1.3929,-1.4242,-1.4339,-1.4857,-1.5703,-1.602,-1.5824,-1.5302,-1.5516,-1.504,-1.3926,-1.327,-1.3047,-1.3057,-1.3027,-1.2949,-1.292,-1.2891,-1.2783,-1.2676,-1.2166,-1.1828,-1.1728,-1.1728,-1.1728,-1.1859,-1.3102,-1.3826,-1.405,-1.5567,-1.6697,-1.7107,-1.8027,-1.8707,-1.9049,-1.9139,-1.9236,-1.9493,-1.9551,-1.9603,-1.9675,-1.9566,-1.9645,-1.9899,-2.0089,-2.0548,-2.1182,-2.1417,-2.1432,-2.1493,-2.1601,-2.1479,-2.1039,-2.1119,-2.1294,-2.1309,-2.1511,-2.1634,-2.1603,-2.1768,-2.1811,-2.1781,-2.1615,-2.1339,-2.1039,-2.1166,-2.1166,-2.1151,-2.1694,-2.202,-2.1811,-2.1823,-2.1928,-2.1899,-2.1998,-2.2215,-2.2443,-2.2468,-2.247,-2.259,-2.2769,-2.3205,-2.3587,-2.3823,-2.4221,-2.4145,-2.4439,-2.3899,-2.2893,-2.1589,-2.1007,-2.0658,-2.0462,-2.0872,-2.1396,-2.1943,-2.2534,-2.2051,-2.1606,-2.1025,-0.9897,-1.0333,-1.0531,-1.06,-1.0621,-1.0522,-1.0675,-1.1065,-1.1921,-1.2446,-1.2841,-1.3455,-1.3859,-1.4077,-1.4218,-1.4423,-1.4677,-1.4422,-1.4631,-1.5165,-1.5096,-1.5177,-1.5415,-1.5261,-1.4888,-1.4368,-1.3937,-1.3821,-1.3896,-1.3568,-1.3311,-1.3271,-1.2919,-1.252,-1.2138,-1.1859,-1.1569,-1.1209,-1.1519,-1.1868,-1.2236,-1.3399,-1.4201,-1.4663,-1.5976,-1.6863,-1.7005,-1.7948,-1.8539,-1.8655,-1.8936,-1.9176,-1.9258,-1.9295,-1.9317,-1.9332,-1.9317,-1.9391,-1.9609,-1.9803,-2.0154,-2.0697,-2.0828,-2.0974,-2.1166,-2.1166,-2.1103,-2.099,-2.1183,-2.134,-2.1481,-2.1559,-2.165,-2.1738,-2.1768,-2.184,-2.1853,-2.1598,-2.1323,-2.1182,-2.1182,-2.1386,-2.1708,-2.2123,-2.1986,-2.1853,-2.1882,-2.1869,-2.184,-2.1899,-2.1969,-2.2198,-2.2402,-2.2686,-2.2785,-2.2965,-2.3338,-2.3682,-2.4037,-2.4321,-2.4357,-2.4264,-2.369,-2.2821,-2.1507,-2.0729,-2.0326,-2.0319,-2.0767,-2.1674,-2.2675,-2.2611,-2.2046,-2.1592,-2.1199,-1.0594,-1.085,-1.1099,-1.1026,-1.0812,-1.0685,-1.0788,-1.1039,-1.1774,-1.2245,-1.2702,-1.3849,-1.409,-1.3874,-1.405,-1.415,-1.4163,-1.4062,-1.4277,-1.4645,-1.4668,-1.4875,-1.5236,-1.4744,-1.4549,-1.4573,-1.4126,-1.4139,-1.455,-1.3873,-1.3506,-1.3387,-1.2828,-1.2314,-1.1891,-1.1451,-1.1057,-1.0998,-1.1309,-1.185,-1.2618,-1.3637,-1.449,-1.5085,-1.6207,-1.6846,-1.6973,-1.776,-1.8293,-1.8333,-1.8528,-1.8707,-1.8846,-1.8884,-1.8921,-1.8959,-1.9095,-1.9244,-1.9317,-1.9609,-1.9945,-2.0345,-2.041,-2.0478,-2.0697,-2.0679,-2.0745,-2.0877,-2.1103,-2.134,-2.1542,-2.1694,-2.1738,-2.1827,-2.184,-2.184,-2.1853,-2.1645,-2.137,-2.1308,-2.134,-2.1617,-2.1857,-2.2061,-2.1969,-2.1969,-2.1928,-2.194,-2.1882,-2.1895,-2.201,-2.2169,-2.2398,-2.2642,-2.2876,-2.3133,-2.3412,-2.3678,-2.3912,-2.4113,-2.421,-2.4173,-2.3824,-2.3015,-2.184,-2.1473,-2.1106,-2.0758,-2.0956,-2.2154,-2.3217,-2.2996,-2.2578,-2.2158,-2.1634,-1.0932,-1.0974,-1.1357,-1.1185,-1.0717,-1.0875,-1.106,-1.1208,-1.1565,-1.1956,-1.2706,-1.4022,-1.4334,-1.3464,-1.3522,-1.3389,-1.3145,-1.3498,-1.3821,-1.4058,-1.4379,-1.4686,-1.4653,-1.4031,-1.3998,-1.4268,-1.3929,-1.3955,-1.4415,-1.3795,-1.3474,-1.3314,-1.2488,-1.1968,-1.166,-1.0905,-1.0753,-1.0998,-1.1209,-1.1841,-1.2793,-1.3768,-1.4582,-1.5153,-1.6207,-1.6888,-1.7002,-1.7584,-1.7963,-1.7922,-1.8029,-1.8228,-1.8307,-1.8439,-1.8581,-1.862,-1.8974,-1.9095,-1.914,-1.9434,-1.9914,-2.0208,-2.0189,-2.0208,-2.0277,-2.0361,-2.0478,-2.073,-2.0991,-2.1293,-2.1587,-2.1781,-2.1899,-2.1928,-2.1945,-2.1886,-2.1738,-2.1678,-2.1587,-2.1386,-2.1495,-2.1678,-2.1645,-2.1836,-2.1911,-2.1928,-2.1899,-2.1911,-2.1982,-2.2027,-2.2198,-2.2298,-2.2398,-2.2588,-2.2782,-2.2892,-2.314,-2.333,-2.358,-2.3774,-2.3886,-2.3871,-2.361,-2.2806,-2.2279,-2.2007,-2.1788,-2.1351,-2.1589,-2.2648,-2.3216,-2.3312,-2.3039,-2.2514,-2.2013,-1.1791,-1.2069,-1.1937,-1.1773,-1.1543,-1.1209,-1.1214,-1.1442,-1.1614,-1.2023,-1.2662,-1.2823,-1.3334,-1.3703,-1.3188,-1.3215,-1.3464,-1.3383,-1.345,-1.3651,-1.3492,-1.3756,-1.3979,-1.3729,-1.3562,-1.3802,-1.3978,-1.4138,-1.3998,-1.3586,-1.3168,-1.2861,-1.1899,-1.1167,-1.0736,-1.0854,-1.0702,-1.0685,-1.146,-1.2141,-1.2887,-1.382,-1.472,-1.5603,-1.6262,-1.6705,-1.6931,-1.7543,-1.7963,-1.8123,-1.8268,-1.8361,-1.8464,-1.8669,-1.8784,-1.8784,-1.9035,-1.9244,-1.9332,-1.9354,-1.9666,-2.0104,-1.9909,-1.9995,-2.0292,-2.0135,-2.0376,-2.0828,-2.1182,-2.1415,-2.1794,-2.194,-2.2015,-2.2123,-2.2094,-2.2007,-2.1814,-2.1738,-2.1708,-2.1587,-2.157,-2.1645,-2.1794,-2.1823,-2.1869,-2.1869,-2.1869,-2.1869,-2.1969,-2.2039,-2.2169,-2.2226,-2.2326,-2.25,-2.2643,-2.2686,-2.2815,-2.2989,-2.3183,-2.3369,-2.3386,-2.3337,-2.2862,-2.2228,-2.2043,-2.1774,-2.1896,-2.1743,-2.2497,-2.3091,-2.3429,-2.3566,-2.3044,-2.252,-2.2256,-1.2158,-1.2329,-1.2274,-1.2075,-1.1765,-1.1368,-1.1366,-1.1497,-1.1473,-1.1714,-1.2091,-1.1758,-1.2028,-1.2601,-1.2043,-1.2154,-1.2769,-1.2802,-1.3007,-1.3305,-1.3084,-1.3091,-1.3331,-1.3261,-1.328,-1.328,-1.3644,-1.3767,-1.3642,-1.3313,-1.293,-1.2449,-1.153,-1.0908,-1.0736,-1.0744,-1.0998,-1.1183,-1.2089,-1.287,-1.3512,-1.4286,-1.5107,-1.5944,-1.6436,-1.6833,-1.7295,-1.7882,-1.8202,-1.8321,-1.8361,-1.8464,-1.8736,-1.8898,-1.8959,-1.8936,-1.9332,-1.9515,-1.9258,-1.9258,-1.9406,-1.9536,-1.9457,-1.9617,-1.9818,-1.9818,-2.0154,-2.0828,-2.1087,-2.1446,-2.1866,-2.2044,-2.2135,-2.2225,-2.2214,-2.2111,-2.1903,-2.1932,-2.1903,-2.1797,-2.1705,-2.1688,-2.1882,-2.184,-2.184,-2.1857,-2.1827,-2.1869,-2.194,-2.2039,-2.2096,-2.2141,-2.2198,-2.232,-2.2385,-2.2422,-2.2616,-2.2755,-2.2865,-2.3038,-2.3018,-2.2936,-2.2711,-2.23,-2.1931,-2.1756,-2.1978,-2.2224,-2.2659,-2.3145,-2.3595,-2.3551,-2.2958,-2.2733,-2.2442,-1.2332,-1.2107,-1.2485,-1.2186,-1.1686,-1.1567,-1.1543,-1.1479,-1.1272,-1.1265,-1.1398,-1.1066,-1.1113,-1.0979,-1.0986,-1.0805,-1.1483,-1.2181,-1.2496,-1.2789,-1.2765,-1.2805,-1.2814,-1.2713,-1.2679,-1.2721,-1.2806,-1.3109,-1.327,-1.3089,-1.2797,-1.2465,-1.1672,-1.1259,-1.1293,-1.1133,-1.1418,-1.2089,-1.2851,-1.3637,-1.434,-1.4915,-1.5522,-1.6194,-1.6735,-1.7212,-1.776,-1.8216,-1.8481,-1.8658,-1.8416,-1.862,-1.904,-1.9101,-1.9176,-1.925,-1.9588,-1.9588,-1.9109,-1.9258,-1.9258,-1.9072,-1.904,-1.9093,-1.9398,-1.969,-2.0104,-2.0797,-2.0959,-2.1446,-2.1928,-2.2152,-2.2197,-2.2254,-2.2225,-2.2197,-2.2168,-2.2168,-2.2094,-2.1928,-2.1882,-2.1853,-2.1811,-2.1781,-2.1781,-2.1827,-2.1827,-2.184,-2.194,-2.201,-2.2039,-2.2027,-2.2056,-2.2096,-2.2136,-2.2147,-2.2392,-2.2615,-2.2643,-2.273,-2.2738,-2.2718,-2.2745,-2.2513,-2.2141,-2.2115,-2.234,-2.2634,-2.2797,-2.2982,-2.3289,-2.3137,-2.2862,-2.2887,-2.273,-1.3248,-1.2456,-1.2597,-1.2541,-1.2358,-1.2027,-1.19,-1.1876,-1.1535,-1.1347,-1.1267,-1.1,-1.0938,-1.0988,-1.0966,-1.1306,-1.1677,-1.2143,-1.2297,-1.2282,-1.2546,-1.25,-1.2312,-1.2188,-1.2005,-1.2104,-1.2401,-1.2742,-1.2949,-1.3098,-1.3042,-1.2976,-1.2541,-1.2225,-1.1939,-1.2238,-1.2415,-1.2588,-1.3341,-1.4197,-1.4775,-1.5222,-1.5724,-1.6392,-1.6989,-1.7461,-1.7842,-1.8163,-1.8707,-1.931,-1.9241,-1.907,-1.9203,-1.9302,-1.942,-1.953,-1.9566,-1.9624,-1.95,-1.9184,-1.9011,-1.9072,-1.9003,-1.9145,-1.9523,-1.9854,-2.033,-2.091,-2.1306,-2.1658,-2.2106,-2.2254,-2.2254,-2.2225,-2.2197,-2.214,-2.202,-2.2032,-2.2003,-2.1928,-2.1899,-2.1853,-2.1827,-2.1797,-2.1781,-2.1781,-2.1781,-2.1811,-2.1882,-2.1982,-2.1969,-2.194,-2.1969,-2.2027,-2.1998,-2.2039,-2.2198,-2.2371,-2.2436,-2.2473,-2.2456,-2.2466,-2.2476,-2.2439,-2.2368,-2.2419,-2.2375,-2.2485,-2.2574,-2.2773,-2.2952,-2.3012,-2.3026,-2.3042,-2.3143,-1.38,-1.3467,-1.3155,-1.3033,-1.2923,-1.223,-1.1996,-1.2059,-1.1659,-1.158,-1.1579,-1.1219,-1.1117,-1.1156,-1.1091,-1.1356,-1.1974,-1.2484,-1.2861,-1.2963,-1.2933,-1.2957,-1.3268,-1.2813,-1.2469,-1.239,-1.281,-1.3109,-1.3237,-1.3277,-1.3255,-1.3273,-1.3079,-1.2842,-1.2622,-1.3016,-1.3003,-1.3143,-1.392,-1.4673,-1.4925,-1.5492,-1.5988,-1.662,-1.7157,-1.757,-1.7868,-1.8492,-1.9041,-1.9579,-1.9861,-1.9885,-1.9624,-1.947,-1.945,-1.9639,-1.9654,-1.953,-1.9384,-1.9161,-1.8912,-1.8912,-1.8889,-1.9153,-1.945,-1.9854,-2.0345,-2.0926,-2.1385,-2.1781,-2.218,-2.2163,-2.2163,-2.2135,-2.2077,-2.2003,-2.1928,-2.194,-2.1911,-2.1853,-2.184,-2.184,-2.1827,-2.1797,-2.1781,-2.1781,-2.1781,-2.1811,-2.1811,-2.1882,-2.1899,-2.1869,-2.1911,-2.1911,-2.1869,-2.1882,-2.2027,-2.2147,-2.2231,-2.2215,-2.2198,-2.2209,-2.2192,-2.2198,-2.2186,-2.2101,-2.2084,-2.2231,-2.2324,-2.2402,-2.2598,-2.2927,-2.3206,-2.325,-2.3424,-1.4312,-1.4552,-1.3899,-1.3631,-1.3451,-1.2533,-1.2205,-1.2342,-1.1805,-1.1707,-1.1819,-1.1498,-1.1183,-1.1178,-1.1045,-1.1467,-1.2393,-1.3164,-1.3819,-1.415,-1.378,-1.406,-1.454,-1.444,-1.4033,-1.3561,-1.3563,-1.3751,-1.3811,-1.3828,-1.387,-1.3726,-1.3738,-1.3811,-1.3595,-1.3523,-1.362,-1.3703,-1.4463,-1.4869,-1.4903,-1.5603,-1.6355,-1.6883,-1.7112,-1.7618,-1.8138,-1.8741,-1.9349,-1.9669,-2.0468,-2.0664,-2.0431,-1.9914,-1.9505,-1.9886,-1.9878,-1.9721,-1.9549,-1.9382,-1.9247,-1.8843,-1.9137,-1.9424,-1.9819,-2.0218,-2.0631,-2.1023,-2.1493,-2.1857,-2.2123,-2.2077,-2.2015,-2.1969,-2.1882,-2.1823,-2.184,-2.1853,-2.1811,-2.1811,-2.1827,-2.1827,-2.1797,-2.1781,-2.1781,-2.1781,-2.1781,-2.1781,-2.1781,-2.1811,-2.1811,-2.184,-2.1882,-2.2003,-2.1974,-2.1899,-2.1998,-2.2061,-2.2135,-2.2106,-2.2044,-2.2056,-2.2068,-2.1969,-2.1928,-2.1886,-2.1899,-2.201,-2.2068,-2.2044,-2.2309,-2.273,-2.308,-2.3405,-2.3624,-1.5214,-1.4937,-1.4547,-1.4222,-1.3965,-1.3313,-1.2951,-1.2818,-1.2273,-1.1811,-1.1483,-1.1373,-1.1122,-1.0996,-1.131,-1.2205,-1.3347,-1.4214,-1.4881,-1.5274,-1.5033,-1.5378,-1.5734,-1.6094,-1.6024,-1.5397,-1.4759,-1.4483,-1.4619,-1.4669,-1.4798,-1.5303,-1.5379,-1.5279,-1.4874,-1.4795,-1.444,-1.426,-1.4785,-1.4981,-1.4971,-1.5582,-1.6441,-1.6942,-1.7089,-1.7635,-1.846,-1.8795,-1.9314,-2.0457,-2.0497,-2.0682,-2.0925,-2.0768,-2.0643,-2.0509,-2.0263,-2.0022,-1.9922,-2.0022,-2.0208,-2.0357,-2.0557,-2.0895,-2.113,-2.1299,-2.1318,-2.1566,-2.188,-2.2132,-2.2044,-2.2045,-2.1919,-2.1873,-2.1691,-2.1603,-2.1683,-2.168,-2.179,-2.1917,-2.188,-2.1781,-2.1781,-2.1781,-2.1781,-2.1781,-2.1781,-2.1781,-2.1781,-2.1811,-2.1869,-2.1899,-2.1911,-2.2032,-2.2123,-2.2032,-2.2044,-2.2106,-2.2152,-2.2168,-2.2106,-2.2044,-2.2015,-2.1928,-2.1869,-2.184,-2.1869,-2.1882,-2.1957,-2.2032,-2.2303,-2.2574,-2.2875,-2.3193,-2.3508,-1.5688,-1.5723,-1.5204,-1.4883,-1.4628,-1.3983,-1.3563,-1.326,-1.265,-1.2158,-1.1911,-1.1608,-1.1553,-1.1663,-1.2097,-1.3091,-1.4329,-1.506,-1.5794,-1.6275,-1.6216,-1.6495,-1.6957,-1.7321,-1.7125,-1.6815,-1.6223,-1.5662,-1.5546,-1.5468,-1.5662,-1.5884,-1.6056,-1.5879,-1.5622,-1.5388,-1.509,-1.4891,-1.5115,-1.5193,-1.4785,-1.5406,-1.6056,-1.6806,-1.7092,-1.7613,-1.8494,-1.9134,-1.9573,-2.0438,-2.0804,-2.1226,-2.1479,-2.1591,-2.1326,-2.0855,-2.05,-2.0401,-2.0347,-2.0393,-2.0258,-2.0803,-2.1114,-2.1363,-2.1584,-2.1651,-2.1729,-2.2026,-2.2784,-2.2989,-2.2625,-2.2377,-2.2285,-2.2203,-2.182,-2.1694,-2.1918,-2.1802,-2.196,-2.2151,-2.2029,-2.1913,-2.1781,-2.1781,-2.1781,-2.1781,-2.1781,-2.1781,-2.1781,-2.184,-2.1899,-2.1869,-2.1899,-2.1945,-2.2036,-2.1974,-2.1882,-2.1945,-2.2036,-2.2036,-2.2065,-2.1957,-2.1969,-2.1969,-2.1911,-2.1886,-2.1899,-2.194,-2.1957,-2.202,-2.2226,-2.2429,-2.272,-2.2989,-2.3313,-1.6036,-1.6451,-1.5866,-1.5536,-1.5284,-1.451,-1.4094,-1.3743,-1.307,-1.2696,-1.2642,-1.229,-1.2282,-1.272,-1.3353,-1.4206,-1.5349,-1.5858,-1.6757,-1.7327,-1.7135,-1.7445,-1.8031,-1.8066,-1.771,-1.7738,-1.7625,-1.7317,-1.6402,-1.6201,-1.6178,-1.6155,-1.6171,-1.6084,-1.5908,-1.5711,-1.5452,-1.5405,-1.5465,-1.5351,-1.5045,-1.5029,-1.5626,-1.6666,-1.6832,-1.7204,-1.8227,-1.8791,-1.9407,-2.014,-2.09,-2.1609,-2.1969,-2.2123,-2.1752,-2.1008,-2.0679,-2.0826,-2.0769,-2.0894,-2.095,-2.1477,-2.1509,-2.1911,-2.2062,-2.2201,-2.2005,-2.2592,-2.3264,-2.3814,-2.3252,-2.2964,-2.2867,-2.2769,-2.2281,-2.1892,-2.2411,-2.2508,-2.2392,-2.2404,-2.2214,-2.2029,-2.1897,-2.1781,-2.1781,-2.1781,-2.1781,-2.1781,-2.1781,-2.1869,-2.1899,-2.1886,-2.1886,-2.1886,-2.1903,-2.1844,-2.1675,-2.1568,-2.1661,-2.1708,-2.1781,-2.1823,-2.1882,-2.1986,-2.2032,-2.202,-2.2003,-2.1986,-2.2032,-2.2077,-2.2147,-2.2332,-2.2657,-2.2894,-2.3168,-1.6654,-1.6873,-1.6471,-1.6192,-1.5874,-1.5148,-1.4746,-1.4469,-1.3743,-1.3381,-1.3433,-1.3329,-1.326,-1.3683,-1.4757,-1.5584,-1.6243,-1.7061,-1.784,-1.8423,-1.8315,-1.8479,-1.8965,-1.8982,-1.853,-1.8288,-1.8237,-1.7781,-1.7069,-1.6824,-1.6588,-1.6399,-1.6306,-1.6322,-1.6187,-1.5939,-1.567,-1.5644,-1.5668,-1.5524,-1.5328,-1.5103,-1.5361,-1.582,-1.6081,-1.6559,-1.7717,-1.8243,-1.868,-1.9521,-2.0591,-2.1175,-2.1417,-2.1921,-2.1969,-2.1769,-2.1625,-2.1491,-2.1316,-2.151,-2.2004,-2.2369,-2.298,-2.3486,-2.3342,-2.3367,-2.3504,-2.4282,-2.4348,-2.4165,-2.3901,-2.3554,-2.347,-2.3237,-2.2873,-2.2822,-2.3153,-2.2883,-2.2802,-2.2848,-2.2694,-2.2294,-2.2043,-2.1897,-2.1781,-2.1781,-2.1781,-2.1781,-2.1751,-2.1781,-2.1886,-2.1857,-2.1661,-2.1631,-2.1691,-2.1648,-2.154,-2.1306,-2.1354,-2.1401,-2.1584,-2.1735,-2.1915,-2.202,-2.2065,-2.2123,-2.2089,-2.2089,-2.2106,-2.2135,-2.2192,-2.2388,-2.2649,-2.2842,-2.2952,-1.7358,-1.6946,-1.656,-1.6306,-1.6056,-1.569,-1.5526,-1.5245,-1.4638,-1.4264,-1.4204,-1.3914,-1.4043,-1.4639,-1.573,-1.6557,-1.7206,-1.8175,-1.8965,-1.9436,-1.9651,-1.976,-1.9641,-1.9404,-1.9041,-1.8736,-1.8268,-1.7854,-1.7419,-1.7059,-1.6819,-1.6446,-1.6374,-1.6363,-1.6374,-1.6187,-1.6105,-1.5922,-1.5519,-1.5215,-1.5214,-1.4921,-1.4953,-1.5742,-1.5929,-1.6546,-1.7256,-1.7986,-1.8412,-1.9125,-2.0067,-2.0809,-2.1202,-2.1602,-2.1793,-2.2063,-2.2016,-2.1923,-2.1819,-2.1886,-2.2352,-2.3016,-2.3544,-2.3544,-2.3961,-2.4543,-2.4574,-2.4282,-2.4962,-2.5028,-2.4628,-2.4256,-2.4135,-2.3897,-2.3426,-2.3626,-2.3668,-2.3223,-2.3063,-2.3128,-2.3141,-2.2742,-2.2311,-2.2032,-2.1853,-2.1721,-2.1751,-2.1768,-2.1678,-2.1587,-2.1708,-2.1844,-2.154,-2.126,-2.1401,-2.1432,-2.1355,-2.1197,-2.1214,-2.1293,-2.1479,-2.1661,-2.1797,-2.202,-2.2152,-2.2163,-2.2147,-2.2163,-2.2168,-2.2225,-2.2254,-2.2377,-2.2515,-2.246,-2.2605,-1.7823,-1.7121,-1.6726,-1.6543,-1.6489,-1.6328,-1.6321,-1.6246,-1.5762,-1.5484,-1.5377,-1.498,-1.515,-1.5732,-1.6497,-1.7205,-1.8217,-1.9035,-1.9648,-2.0147,-2.0484,-2.0268,-1.9771,-1.9319,-1.9094,-1.91,-1.8164,-1.7771,-1.7595,-1.7274,-1.6819,-1.6394,-1.6374,-1.6374,-1.6374,-1.6343,-1.6312,-1.6126,-1.5304,-1.5055,-1.509,-1.4738,-1.4904,-1.5395,-1.5934,-1.6337,-1.6858,-1.7633,-1.8232,-1.8887,-1.9932,-2.0873,-2.1448,-2.1855,-2.2068,-2.2269,-2.2324,-2.2263,-2.2094,-2.2104,-2.2409,-2.3022,-2.3697,-2.3911,-2.4903,-2.5711,-2.5867,-2.4811,-2.5355,-2.562,-2.5384,-2.4919,-2.4794,-2.4406,-2.3887,-2.4156,-2.4366,-2.4053,-2.3865,-2.4017,-2.3868,-2.3205,-2.2744,-2.2269,-2.1958,-2.1727,-2.1691,-2.1738,-2.1587,-2.1402,-2.1402,-2.1495,-2.1166,-2.0878,-2.0975,-2.1039,-2.1023,-2.0991,-2.0991,-2.1119,-2.1308,-2.1462,-2.1615,-2.1857,-2.2152,-2.2152,-2.2032,-2.2152,-2.2242,-2.2271,-2.2282,-2.2282,-2.231,-2.2282,-2.247,-1.7688,-1.7585,-1.7121,-1.7121,-1.7451,-1.698,-1.6981,-1.7144,-1.7092,-1.701,-1.6808,-1.6618,-1.6538,-1.7073,-1.7122,-1.7838,-1.9236,-1.9353,-1.9882,-2.0169,-2.0172,-2.0161,-1.9663,-1.919,-1.8784,-1.8785,-1.7999,-1.7605,-1.7533,-1.715,-1.6757,-1.6436,-1.6374,-1.6374,-1.6374,-1.6374,-1.6249,-1.5975,-1.5275,-1.4909,-1.4944,-1.482,-1.4849,-1.4958,-1.5259,-1.5623,-1.5894,-1.7,-1.7968,-1.8644,-2.0052,-2.129,-2.1944,-2.2424,-2.2665,-2.289,-2.2883,-2.2808,-2.2623,-2.2589,-2.2682,-2.3024,-2.3646,-2.4603,-2.5546,-2.5554,-2.5648,-2.5768,-2.5911,-2.5872,-2.5677,-2.5486,-2.5212,-2.5051,-2.474,-2.4911,-2.5086,-2.5013,-2.4914,-2.499,-2.4547,-2.3753,-2.3128,-2.2621,-2.1902,-2.1624,-2.1448,-2.1479,-2.1324,-2.1183,-2.1071,-2.0991,-2.0679,-2.0496,-2.0514,-2.0548,-2.0496,-2.0462,-2.0462,-2.0747,-2.1055,-2.1213,-2.1462,-2.1691,-2.1961,-2.1961,-2.1961,-2.202,-2.2123,-2.2254,-2.2327,-2.2327,-2.2422,-2.246,-2.2773,-1.7585,-1.7441,-1.7152,-1.6984,-1.6922,-1.7245,-1.7122,-1.6966,-1.7349,-1.7359,-1.7124,-1.6683,-1.6763,-1.7222,-1.7927,-1.8427,-1.9478,-2.0699,-2.1019,-2.1471,-2.1616,-2.1239,-2.0545,-1.9462,-1.9106,-1.8511,-1.7574,-1.7098,-1.7162,-1.6891,-1.6643,-1.6415,-1.6374,-1.6374,-1.6374,-1.6316,-1.6066,-1.5716,-1.5312,-1.5018,-1.4654,-1.4785,-1.4785,-1.4824,-1.532,-1.5584,-1.5894,-1.7045,-1.7891,-1.8869,-2.0195,-2.1379,-2.2454,-2.292,-2.33,-2.3679,-2.3717,-2.3663,-2.3351,-2.3317,-2.3406,-2.4184,-2.4863,-2.553,-2.599,-2.5864,-2.5917,-2.599,-2.597,-2.5897,-2.568,-2.5492,-2.5323,-2.5508,-2.5584,-2.5659,-2.5635,-2.5513,-2.5573,-2.5487,-2.486,-2.4067,-2.3506,-2.298,-2.22,-2.1502,-2.1342,-2.1198,-2.1071,-2.0925,-2.0778,-2.0563,-2.0239,-2.003,-2.0,-1.998,-2.001,-1.9995,-2.003,-2.0447,-2.0878,-2.1166,-2.1401,-2.1601,-2.1721,-2.1781,-2.1811,-2.1869,-2.1974,-2.2152,-2.2254,-2.2355,-2.246,-2.2605,-2.285,-1.7595,-1.7534,-1.7307,-1.7077,-1.6881,-1.746,-1.746,-1.715,-1.7667,-1.7771,-1.7409,-1.7015,-1.7119,-1.7737,-1.8255,-1.9221,-2.0048,-2.1117,-2.1618,-2.1898,-2.1958,-2.1713,-2.073,-1.9761,-1.8938,-1.8197,-1.716,-1.6632,-1.6997,-1.6591,-1.6436,-1.6384,-1.6374,-1.6374,-1.6316,-1.6144,-1.5778,-1.5438,-1.4936,-1.4848,-1.4449,-1.4582,-1.4943,-1.5029,-1.5428,-1.5994,-1.642,-1.7331,-1.8249,-1.9268,-2.0434,-2.1545,-2.2525,-2.3237,-2.3687,-2.4148,-2.4573,-2.4592,-2.4168,-2.394,-2.4063,-2.4871,-2.5368,-2.5738,-2.5937,-2.6043,-2.6096,-2.6043,-2.5954,-2.5844,-2.568,-2.5546,-2.5524,-2.5675,-2.5621,-2.5659,-2.5746,-2.576,-2.5845,-2.5903,-2.5186,-2.4536,-2.3578,-2.2935,-2.1853,-2.1198,-2.0957,-2.0844,-2.0778,-2.0613,-2.0444,-2.0154,-1.9854,-1.9639,-1.9457,-1.9603,-1.9747,-1.994,-1.9995,-2.0392,-2.0778,-2.1055,-2.1308,-2.1432,-2.1554,-2.1615,-2.1675,-2.1721,-2.1886,-2.2077,-2.218,-2.231,-2.2432,-2.2552,-2.2615,-1.7729,-1.8102,-1.7781,-1.7595,-1.7585,-1.7729,-1.7936,-1.8019,-1.8143,-1.8185,-1.8071,-1.7719,-1.7978,-1.8615,-1.8765,-1.9633,-2.0614,-2.1293,-2.1488,-2.1427,-2.1837,-2.0787,-1.9823,-1.9149,-1.8829,-1.8176,-1.716,-1.6591,-1.6964,-1.6581,-1.6394,-1.6415,-1.6446,-1.6425,-1.6337,-1.5662,-1.5303,-1.5108,-1.4364,-1.4396,-1.4613,-1.4662,-1.4954,-1.5458,-1.5718,-1.6304,-1.6995,-1.7523,-1.8495,-1.9853,-2.0742,-2.1635,-2.2335,-2.3459,-2.3788,-2.3544,-2.4496,-2.4699,-2.4288,-2.416,-2.4729,-2.5323,-2.5721,-2.5811,-2.6079,-2.6168,-2.6168,-2.6043,-2.597,-2.5881,-2.5807,-2.5733,-2.5749,-2.5787,-2.5749,-2.577,-2.5855,-2.5931,-2.6033,-2.6049,-2.566,-2.5093,-2.3923,-2.2778,-2.1576,-2.0876,-2.059,-2.0478,-2.0494,-2.0376,-2.0204,-1.9889,-1.953,-1.9273,-1.9161,-1.9347,-1.953,-1.9711,-2.001,-2.0357,-2.0712,-2.1023,-2.1214,-2.1308,-2.1524,-2.1721,-2.1661,-2.1601,-2.1811,-2.2077,-2.2209,-2.2338,-2.2432,-2.2525,-2.2605,-1.685,-1.703,-1.7171,-1.7214,-1.7398,-1.8257,-1.8392,-1.7936,-1.7678,-1.7667,-1.7812,-1.741,-1.7585,-1.8259,-1.9357,-2.0102,-2.0673,-2.2128,-2.2233,-2.1039,-2.1738,-2.0991,-1.9952,-1.9205,-1.8896,-1.7922,-1.6933,-1.6524,-1.6581,-1.6691,-1.6483,-1.6405,-1.679,-1.6632,-1.6492,-1.6212,-1.6167,-1.541,-1.4932,-1.4815,-1.5001,-1.4902,-1.5147,-1.5866,-1.6218,-1.6779,-1.754,-1.7944,-1.8991,-2.0072,-2.0839,-2.1572,-2.2417,-2.3541,-2.4298,-2.4533,-2.5517,-2.6263,-2.6196,-2.62,-2.5819,-2.5934,-2.5967,-2.602,-2.6096,-2.6151,-2.6115,-2.6043,-2.6007,-2.5881,-2.5696,-2.5675,-2.5675,-2.5824,-2.586,-2.595,-2.6063,-2.6099,-2.6115,-2.6026,-2.5779,-2.4516,-2.3301,-2.2306,-2.1157,-2.0601,-2.0335,-2.0254,-2.022,-2.017,-2.003,-1.9675,-1.931,-1.8974,-1.886,-1.9109,-1.9221,-1.9332,-1.9782,-2.027,-2.0613,-2.1022,-2.1167,-2.1279,-2.1559,-2.1857,-2.1691,-2.1631,-2.1886,-2.2077,-2.2209,-2.2338,-2.2405,-2.2515,-2.2605,-1.653,-1.6644,-1.704,-1.7471,-1.7823,-1.8526,-1.8402,-1.7781,-1.7554,-1.7533,-1.744,-1.7111,-1.7426,-1.8323,-1.9326,-2.0396,-2.0682,-2.1885,-2.239,-2.1156,-2.1762,-2.0967,-2.003,-1.9414,-1.8791,-1.7917,-1.7482,-1.7094,-1.7503,-1.7543,-1.7557,-1.7521,-1.7429,-1.7376,-1.7116,-1.6894,-1.6557,-1.5817,-1.5409,-1.4971,-1.5169,-1.5398,-1.5586,-1.629,-1.6818,-1.7378,-1.8056,-1.8802,-1.9536,-2.0089,-2.0731,-2.1419,-2.2405,-2.3537,-2.4417,-2.4967,-2.5618,-2.6406,-2.6793,-2.6936,-2.6586,-2.6617,-2.6582,-2.6548,-2.6379,-2.6352,-2.6201,-2.6079,-2.6043,-2.5954,-2.5844,-2.5787,-2.5824,-2.597,-2.6023,-2.6132,-2.6151,-2.6222,-2.6057,-2.595,-2.5595,-2.4201,-2.2714,-2.1704,-2.0697,-2.0375,-2.0061,-2.0061,-2.0061,-2.0045,-1.996,-1.9639,-1.9273,-1.8936,-1.8846,-1.8945,-1.902,-1.8997,-1.9566,-2.0285,-2.0746,-2.1161,-2.1213,-2.1344,-2.1829,-2.2049,-2.1724,-2.1691,-2.1986,-2.2116,-2.222,-2.2321,-2.2405,-2.246,-2.2542,-1.6779,-1.6858,-1.7471,-1.8121,-1.8827,-1.8589,-1.8216,-1.7812,-1.8143,-1.7823,-1.7007,-1.7018,-1.7473,-1.8485,-1.9239,-2.0049,-2.0973,-2.1654,-2.1628,-2.1557,-2.1548,-2.0679,-1.9946,-1.9282,-1.9028,-1.8736,-1.8313,-1.8191,-1.8851,-1.8976,-1.8976,-1.8839,-1.8685,-1.8392,-1.7942,-1.7686,-1.7254,-1.6631,-1.5524,-1.54,-1.5739,-1.5809,-1.6402,-1.7088,-1.7667,-1.8338,-1.9014,-1.976,-2.0185,-2.0572,-2.1027,-2.1248,-2.2035,-2.3379,-2.3671,-2.4134,-2.4834,-2.5823,-2.6745,-2.6972,-2.7238,-2.734,-2.7372,-2.7342,-2.7118,-2.6756,-2.6407,-2.6338,-2.6319,-2.6236,-2.6151,-2.6115,-2.6079,-2.6168,-2.6168,-2.6222,-2.6277,-2.6179,-2.5962,-2.5773,-2.5517,-2.4388,-2.263,-2.1447,-2.0714,-2.0279,-2.008,-2.0166,-2.0166,-2.0166,-1.9995,-1.9711,-1.9347,-1.8959,-1.8907,-1.8983,-1.9169,-1.9221,-1.9792,-2.0431,-2.0874,-2.141,-2.1759,-2.2037,-2.2288,-2.2434,-2.2565,-2.2358,-2.2079,-2.227,-2.2603,-2.2525,-2.2694,-2.2344,-2.2293,-1.5388,-1.4902,-1.6858,-1.7624,-1.759,-1.852,-1.8609,-1.8216,-1.803,-1.7503,-1.6987,-1.6987,-1.7434,-1.8174,-1.9407,-2.0084,-2.0843,-2.1499,-2.1307,-2.132,-2.1524,-2.0953,-2.0392,-1.9772,-1.9775,-1.9508,-1.9213,-1.9126,-1.9483,-1.9889,-1.9878,-1.9563,-1.961,-1.9354,-1.9091,-1.903,-1.827,-1.7397,-1.602,-1.6096,-1.6417,-1.6526,-1.7387,-1.835,-1.8883,-1.9479,-1.9746,-2.0221,-2.0454,-2.0152,-2.0758,-2.1169,-2.1781,-2.3059,-2.382,-2.5135,-2.5637,-2.6115,-2.6974,-2.7874,-2.8172,-2.7883,-2.802,-2.8168,-2.7823,-2.7211,-2.6683,-2.6597,-2.6495,-2.6362,-2.6293,-2.6258,-2.6239,-2.6239,-2.6274,-2.6329,-2.6365,-2.635,-2.6133,-2.5841,-2.557,-2.4201,-2.2461,-2.1584,-2.0872,-2.0396,-2.0166,-2.0231,-2.0235,-2.0235,-2.0115,-1.9818,-1.953,-1.9184,-1.9064,-1.9101,-1.931,-1.9566,-2.0193,-2.0756,-2.1276,-2.1821,-2.2374,-2.2801,-2.3159,-2.351,-2.3843,-2.3516,-2.309,-2.3106,-2.3362,-2.3124,-2.2875,-2.2625,-2.2551,-1.4643,-1.4266,-1.6191,-1.7203,-1.7627,-1.8623,-1.8723,-1.8154,-1.7833,-1.741,-1.6987,-1.685,-1.7222,-1.8089,-1.9233,-2.0109,-2.0706,-2.1741,-2.1934,-2.1716,-2.1776,-2.1295,-2.0757,-2.0375,-2.0317,-2.0201,-2.0323,-2.0333,-2.0581,-2.0641,-2.0699,-2.0287,-2.0396,-1.9767,-1.9271,-1.8924,-1.8741,-1.8111,-1.7491,-1.7226,-1.7293,-1.7739,-1.8991,-1.9853,-2.031,-2.0314,-2.0184,-2.0607,-2.0323,-2.0103,-2.0791,-2.1389,-2.1914,-2.2825,-2.4258,-2.5363,-2.5375,-2.5916,-2.6682,-2.7428,-2.7774,-2.7988,-2.8189,-2.8451,-2.8062,-2.7425,-2.7039,-2.6786,-2.6567,-2.6434,-2.6364,-2.6329,-2.6345,-2.631,-2.6364,-2.6382,-2.6434,-2.6503,-2.6298,-2.6007,-2.5065,-2.3782,-2.263,-2.1797,-2.1189,-2.0864,-2.0635,-2.0512,-2.0424,-2.027,-2.02,-2.001,-1.9762,-1.9457,-1.942,-1.9522,-1.9775,-2.0227,-2.0877,-2.1399,-2.1853,-2.2436,-2.3109,-2.3621,-2.4106,-2.4303,-2.4339,-2.4464,-2.4262,-2.4218,-2.4181,-2.4228,-2.3846,-2.3177,-2.3214,-1.4257,-1.4132,-1.5496,-1.6884,-1.8243,-1.8754,-1.8495,-1.7802,-1.7698,-1.7358,-1.6884,-1.6618,-1.7164,-1.8261,-1.9274,-2.0252,-2.0971,-2.191,-2.2285,-2.2149,-2.1705,-2.1381,-2.123,-2.0692,-2.0911,-2.1176,-2.1355,-2.1375,-2.1947,-2.1832,-2.1272,-2.0996,-2.0323,-1.9706,-1.918,-1.8901,-1.8822,-1.8689,-1.8475,-1.8406,-1.8405,-1.932,-2.0717,-2.1275,-2.1342,-2.1247,-2.0939,-2.0769,-2.0583,-2.0746,-2.1,-2.1496,-2.2062,-2.2879,-2.4399,-2.4966,-2.4926,-2.5386,-2.6138,-2.6875,-2.7089,-2.7343,-2.7744,-2.8073,-2.7806,-2.7262,-2.6892,-2.716,-2.711,-2.6751,-2.663,-2.6464,-2.638,-2.6345,-2.6364,-2.6434,-2.6554,-2.6537,-2.6383,-2.6007,-2.5212,-2.3978,-2.3217,-2.2416,-2.1515,-2.1326,-2.1101,-2.087,-2.0793,-2.0597,-2.0476,-2.0355,-2.0263,-2.0167,-2.0311,-2.0393,-2.0445,-2.0894,-2.1537,-2.2189,-2.2703,-2.3301,-2.3916,-2.4514,-2.5094,-2.4679,-2.4645,-2.4796,-2.4929,-2.4858,-2.4955,-2.5319,-2.4949,-2.4152,-2.3951,-1.3441,-1.3137,-1.4691,-1.6239,-1.7666,-1.7953,-1.8143,-1.8154,-1.7481,-1.6974,-1.6628,-1.6938,-1.7656,-1.8713,-1.9748,-2.0767,-2.1567,-2.2235,-2.2237,-2.2247,-2.1987,-2.1913,-2.2015,-2.1522,-2.1753,-2.2091,-2.2246,-2.2016,-2.2236,-2.2007,-2.159,-2.1342,-2.0556,-1.9887,-1.9328,-1.9089,-1.9128,-1.8998,-1.8885,-1.8966,-1.8931,-1.9396,-2.0311,-2.1391,-2.1878,-2.1977,-2.1719,-2.1443,-2.1083,-2.0841,-2.0797,-2.1265,-2.2024,-2.3277,-2.404,-2.4461,-2.4623,-2.4896,-2.5513,-2.6335,-2.6744,-2.6733,-2.7011,-2.7348,-2.7352,-2.6894,-2.6911,-2.7435,-2.7582,-2.7169,-2.6778,-2.6616,-2.6432,-2.638,-2.6414,-2.6535,-2.6673,-2.6537,-2.6469,-2.5867,-2.5224,-2.4527,-2.38,-2.2963,-2.2062,-2.1572,-2.1347,-2.1209,-2.1368,-2.1239,-2.1155,-2.1088,-2.1029,-2.1042,-2.1152,-2.1341,-2.1402,-2.1584,-2.2133,-2.2829,-2.3544,-2.4285,-2.499,-2.563,-2.6034,-2.5463,-2.5122,-2.5203,-2.5327,-2.531,-2.5479,-2.5793,-2.5912,-2.5326,-2.5076,-1.292,-1.2846,-1.44,-1.576,-1.6845,-1.7481,-1.7771,-1.7688,-1.7243,-1.6794,-1.657,-1.7286,-1.825,-1.9453,-2.0571,-2.1448,-2.2209,-2.2862,-2.2834,-2.2665,-2.2494,-2.242,-2.2372,-2.2213,-2.2371,-2.2639,-2.2141,-2.1958,-2.2051,-2.1416,-2.0876,-2.0655,-2.0139,-1.9759,-1.9253,-1.9264,-1.9264,-1.9008,-1.8875,-1.8944,-1.9138,-1.9791,-2.0614,-2.1692,-2.23,-2.2443,-2.2272,-2.1958,-2.1594,-2.1441,-2.1616,-2.2576,-2.3308,-2.3861,-2.4329,-2.4576,-2.4627,-2.4475,-2.5226,-2.5914,-2.6481,-2.6365,-2.6721,-2.7199,-2.7046,-2.6691,-2.6742,-2.7197,-2.7632,-2.7356,-2.68,-2.6526,-2.6443,-2.6358,-2.6768,-2.7146,-2.6876,-2.6589,-2.6418,-2.6054,-2.5473,-2.4997,-2.4248,-2.3468,-2.2617,-2.1916,-2.1692,-2.1399,-2.1538,-2.2046,-2.1889,-2.1919,-2.1963,-2.1824,-2.1797,-2.2087,-2.2394,-2.2624,-2.2794,-2.3638,-2.4461,-2.5346,-2.6125,-2.6179,-2.6144,-2.5933,-2.566,-2.5519,-2.5652,-2.5754,-2.595,-2.6214,-2.6267,-2.6303,-2.5824,-1.2621,-1.2854,-1.4224,-1.5336,-1.6033,-1.6951,-1.7246,-1.7098,-1.7023,-1.6974,-1.7043,-1.7955,-1.8987,-2.027,-2.1606,-2.228,-2.2917,-2.3502,-2.3446,-2.3185,-2.2909,-2.2787,-2.2665,-2.258,-2.2519,-2.2187,-2.1682,-2.142,-2.1302,-2.059,-1.9879,-1.9365,-1.911,-1.8911,-1.8596,-1.8472,-1.8607,-1.8664,-1.8629,-1.8695,-1.9211,-1.9979,-2.0885,-2.1738,-2.2481,-2.279,-2.256,-2.2259,-2.2008,-2.2043,-2.231,-2.3182,-2.3814,-2.4062,-2.4347,-2.452,-2.4297,-2.4438,-2.5014,-2.5552,-2.5799,-2.5957,-2.6623,-2.6876,-2.6759,-2.6708,-2.6759,-2.694,-2.742,-2.7498,-2.6928,-2.6465,-2.6383,-2.6435,-2.7021,-2.7279,-2.6858,-2.6538,-2.6314,-2.6068,-2.5598,-2.5182,-2.4634,-2.3849,-2.3041,-2.237,-2.1985,-2.1676,-2.1692,-2.2463,-2.2832,-2.2987,-2.3142,-2.2964,-2.2655,-2.2994,-2.3452,-2.3382,-2.366,-2.4522,-2.5237,-2.5615,-2.5872,-2.5944,-2.5888,-2.5721,-2.5572,-2.5384,-2.5668,-2.5997,-2.6233,-2.642,-2.6734,-2.6656,-2.6162,-1.2621,-1.2691,-1.3475,-1.4389,-1.5237,-1.5741,-1.6276,-1.6943,-1.7073,-1.7566,-1.8351,-1.9167,-2.0254,-2.1759,-2.3091,-2.3777,-2.3975,-2.4297,-2.4124,-2.38,-2.3258,-2.3017,-2.2775,-2.2408,-2.2099,-2.1542,-2.1003,-2.0602,-2.0473,-1.9759,-1.9309,-1.9243,-1.8664,-1.8607,-1.8664,-1.8462,-1.8114,-1.8114,-1.8172,-1.8098,-1.875,-1.9619,-2.0618,-2.1524,-2.2268,-2.2755,-2.2899,-2.2535,-2.2309,-2.2287,-2.2577,-2.327,-2.3733,-2.4061,-2.4268,-2.4627,-2.4353,-2.4521,-2.5025,-2.5662,-2.5945,-2.6233,-2.6771,-2.6978,-2.686,-2.6775,-2.6775,-2.6725,-2.71,-2.7437,-2.7061,-2.6564,-2.6396,-2.6564,-2.6961,-2.6607,-2.6222,-2.6173,-2.6101,-2.5742,-2.5313,-2.5028,-2.4784,-2.3873,-2.2763,-2.2279,-2.224,-2.1993,-2.2178,-2.2902,-2.3634,-2.3887,-2.4108,-2.3998,-2.3669,-2.4131,-2.4521,-2.4382,-2.4322,-2.4789,-2.516,-2.5351,-2.554,-2.5615,-2.5519,-2.5323,-2.5246,-2.5323,-2.5631,-2.5961,-2.628,-2.6573,-2.694,-2.7006,-2.6539]},{"header":{"parameterUnit":"m.s-1","parameterCategory":1,"la1":31.0,"la2":29.5877,"lo1":-88.7671,"lo2":-86.6584,"dy":0.0162,"dx":0.0185,"nx":115,"ny":88,"refTime":"2023-05-17T18:00:00:Z","depth":0,"parameterNumber":3,"parameterNumberName":"V-component_of_WINDS"},"data":[0.0,0.0,0.0,0.0,0.0,0.0,0.0,0.0,0.0,0.0,0.0,0.0,0.0,0.0,0.0,0.0,0.0,0.0,0.0,0.0,0.0,0.0,0.0,0.0,0.0,0.0,0.0,0.0,0.0,0.0,0.0,0.0,0.0,0.0,0.0,0.0,0.0,0.0,0.0,0.0,0.0,0.0,0.0,0.0,0.0,0.0,0.0,0.0,0.0,0.0,0.0,0.0,0.0,0.0,0.0,0.0,0.0,0.0,0.0,0.0,0.0,0.0,0.0,0.0,0.0,0.0,0.0,0.0,0.0,0.0,0.0,0.0,0.0,0.0,0.0,0.0,0.0,0.0,0.0,0.0,0.0,0.0,0.0,0.0,0.0,0.0,0.0,0.0,0.0,0.0,0.0,0.0,0.0,0.0,0.0,0.0,0.0,0.0,0.0,0.0,0.0,0.0,0.0,0.0,0.0,0.0,0.0,0.0,0.0,0.0,0.0,0.0,0.0,0.0,0.0,0.0,0.0,0.0,0.0,0.0,0.0,0.0,0.0,0.0,0.0,0.0,0.0,0.0,0.0,0.0,0.0,0.0,0.0,0.0,0.0,0.0,0.0,0.0,0.0,0.0,0.0,0.0,0.0,0.0,0.0,0.0,0.0,0.0,0.0,0.0,0.0,0.0,0.0,0.0,0.0,0.0,0.0,0.0,0.0,0.0,0.0,0.0,0.0,0.0,0.0,0.0,0.0,0.0,0.0,0.0,0.0,0.0,0.0,0.0,0.0,0.0,0.0,0.0,0.0,0.0,0.0,0.0,0.0,0.0,0.0,0.0,0.0,0.0,0.0,0.0,0.0,0.0,0.0,0.0,0.0,0.0,0.0,0.0,0.0,0.0,0.0,0.0,0.0,0.0,0.0,0.0,0.0,0.0,0.0,0.0,0.0,0.0,0.0,0.0,0.0,0.0,0.0,0.0,0.0,0.0,0.0,0.0,0.0,0.0,0.0,0.0,0.0,0.0,0.0,0.0,0.0,0.0,0.0,0.0,0.0,0.0,0.0,0.0,0.0,0.0,0.0,0.0,0.0,0.0,0.0,0.0,0.0,0.0,0.0,0.0,0.0,0.0,0.0,0.0,0.0,0.0,0.0,0.0,0.0,0.0,0.0,0.0,0.0,0.0,0.0,0.0,0.0,0.0,0.0,0.0,0.0,0.0,0.0,0.0,0.0,0.0,0.0,0.0,0.0,0.0,0.0,0.0,0.0,0.0,0.0,0.0,0.0,0.0,0.0,0.0,0.0,0.0,0.0,0.0,0.0,0.0,0.0,0.0,0.0,0.0,0.0,0.0,0.0,0.0,0.0,0.0,0.0,0.0,0.0,0.0,0.0,0.0,0.0,0.0,0.0,0.0,0.0,0.0,0.0,0.0,0.0,0.0,0.0,0.0,0.0,0.0,0.0,0.0,0.0,0.0,0.0,0.0,0.0,0.0,0.0,0.0,0.0,0.0,0.0,0.0,0.0,0.0,0.0,0.0,0.0,0.0,0.0,0.0,0.0,0.0,0.0,0.0,0.0,0.0,0.0,0.0,0.0,0.0,0.0,0.0,0.0,0.0,0.0,0.0,0.0,0.0,0.0,0.0,0.0,0.0,0.0,0.0,0.0,0.0,0.0,0.0,0.0,0.0,0.0,0.0,0.0,0.0,0.0,0.0,0.0,0.0,0.0,0.0,0.0,0.0,0.0,0.0,0.0,0.0,0.0,0.0,0.0,0.0,0.0,0.0,0.0,0.0,0.0,0.0,0.0,0.0,0.0,0.0,0.0,0.0,0.0,0.0,0.0,0.0,0.0,0.0,0.0,0.0,0.0,0.0,0.0,0.0,0.0,0.0,0.0,0.0,0.0,0.0,0.0,0.0,0.0,0.0,0.0,0.0,0.0,0.0,0.0,0.0,0.0,0.0,0.0,0.0,0.0,0.0,0.0,0.0,0.0,0.0,0.0,0.0,0.0,0.0,0.0,0.0,0.0,0.0,0.0,0.0,0.0,0.0,0.0,0.0,0.0,0.0,0.0,0.0,0.0,0.0,0.0,0.0,0.0,0.0,0.0,0.0,0.0,0.0,0.0,0.0,0.0,0.0,0.0,0.0,0.0,0.0,0.0,0.0,0.0,0.0,0.0,0.0,0.0,0.0,0.0,0.0,0.0,0.0,0.0,0.0,0.0,0.0,0.0,0.0,0.0,0.0,0.0,0.0,0.0,0.0,0.0,0.0,0.0,0.0,0.0,0.0,0.0,0.0,0.0,0.0,0.0,0.0,0.0,0.0,0.0,0.0,0.0,0.0,0.0,0.0,0.0,0.0,0.0,0.0,0.0,0.0,0.0,0.0,0.0,0.0,0.0,0.0,0.0,0.0,0.0,0.0,0.0,0.0,0.0,0.0,0.0,0.0,0.0,0.0,0.0,0.0,0.0,0.0,0.0,0.0,0.0,0.0,0.0,0.0,0.0,0.0,0.0,0.0,0.0,0.0,0.0,0.0,0.0,0.0,0.0,0.0,0.0,0.0,0.0,0.0,0.0,0.0,0.0,0.0,0.0,0.0,0.0,0.0,0.0,0.0,0.0,0.0,0.0,0.0,0.0,0.0,0.0,0.0,0.0,0.0,0.0,0.0,0.0,0.0,0.0,0.0,0.0,0.0,0.0,0.0,0.0,0.0,0.0,0.0,0.0,0.0,0.0,0.0,0.0,0.0,0.0,0.0,0.0,0.0,0.0,0.0,0.0,0.0,0.0,0.0,0.0,0.0,0.0,0.0,0.0,0.0,0.0,0.0,0.0,0.0,0.0,0.0,0.0,0.0,0.0,0.0,0.0,0.0,0.0,0.0,0.0,0.0,0.0,0.0,0.0,0.0,0.0,0.0,0.0,0.0,0.0,0.0,0.0,0.0,0.0,0.0,0.0,0.0,0.0,0.0,0.0,0.0,0.0,0.0,0.0,0.0,0.0,0.0,0.0,0.0,0.0,0.0,0.0,0.0,0.0,0.0,0.0,0.0,0.0,0.0,0.0,0.0,0.0,0.0,0.0,0.0,0.0,0.0,0.0,0.0,0.0,0.0,0.0,0.0,0.0,0.0,0.0,0.0,0.0,0.0,0.0,0.0,0.0,0.0,0.0,0.0,0.0,0.0,0.0,0.0,0.0,0.0,0.0,0.0,0.0,0.0,0.0,0.0,0.0,0.0,0.0,0.0,0.0,0.0,0.0,0.0,0.0,0.0,0.0,0.0,0.0,0.0,0.0,0.0,0.0,0.0,0.0,0.0,0.0,0.0,0.0,0.0,0.0,0.0,0.0,0.0,0.0,0.0,0.0,0.0,0.0,0.0,0.0,0.0,0.0,0.0,0.0,0.0,0.0,0.0,0.0,0.0,0.0,0.0,0.0,0.0,0.0,0.0,0.0,0.0,0.0,0.0,0.0,0.0,0.0,0.0,0.0,0.0,0.0,0.0,0.0,0.0,0.0,0.0,0.0,0.0,0.0,0.0,0.0,0.0,0.0,0.0,0.0,0.0,0.0,0.0,0.0,0.0,0.0,0.0,0.0,0.0,0.0,0.0,0.0,0.0,0.0,0.0,0.0,0.0,0.0,0.0,0.0,0.0,0.0,0.0,0.0,0.0,0.0,0.0,0.0,0.0,0.0,0.0,0.0,0.0,0.0,0.0,0.0,0.0,0.0,0.0,0.0,0.0,0.0,0.0,0.0,0.0,0.0,0.0,0.0,0.0,0.0,0.0,0.0,0.0,0.0,0.0,0.0,0.0,0.0,0.0,0.0,0.0,0.0,0.0,0.0,0.0,0.0,0.0,0.0,0.0,0.0,0.0,0.0,0.0,0.0,0.0,0.0,0.0,0.0,0.0,0.0,0.0,0.0,0.0,0.0,0.0,0.0,0.0,0.0,0.0,0.0,0.0,0.0,0.0,0.0,0.0,0.0,0.0,0.0,0.0,0.0,0.0,0.0,0.0,0.0,0.0,0.0,0.0,0.0,0.0,0.0,0.0,0.0,0.0,0.0,0.0,0.0,0.0,0.0,0.0,0.0,0.0,0.0,0.0,0.0,0.0,0.0,0.0,0.0,0.0,0.0,0.0,0.0,0.0,0.0,0.0,0.0,0.0,0.0,0.0,0.0,0.0,0.0,0.0,0.0,0.0,0.0,0.0,0.0,0.0,0.0,0.0,0.0,0.0,0.0,0.0,0.0,0.0,0.0,0.0,0.0,0.0,0.0,0.0,0.0,0.0,1.1693,0.0,0.0,0.0,0.0,0.0,0.0,0.0,0.0,0.0,0.0,0.0,0.0,0.0,0.0,0.0,0.0,0.0,0.0,0.0,0.0,0.0,0.0,0.0,0.0,0.0,0.0,0.0,0.0,0.0,0.0,0.0,0.0,0.0,0.0,0.0,0.0,0.0,0.0,0.0,0.0,0.0,0.0,0.0,0.0,0.0,0.0,0.0,0.0,0.0,0.0,0.0,0.0,0.0,0.0,0.0,0.0,0.0,0.0,0.0,0.0,0.0,0.0,0.0,0.0,0.0,0.0,0.0,0.0,0.0,0.0,0.0,0.0,0.0,0.0,0.0,0.0,0.0,0.0,0.0,0.0,0.0,0.0,0.0,0.0,0.0,0.0,0.0,0.0,0.0,0.0,0.0,0.0,0.0,0.0,0.0,0.0,0.0,0.0,0.0,0.0,0.0,0.0,0.0,0.0,0.0,0.0,0.0,0.0,0.0,0.0,0.962,1.0609,1.111,1.1918,1.3179,0.0,0.0,0.0,0.0,0.0,0.0,0.0,0.0,0.0,0.0,0.0,0.0,0.0,0.0,0.0,0.0,0.0,0.0,0.0,0.0,0.0,0.0,0.0,0.0,0.0,0.0,0.0,0.0,0.0,0.0,0.0,0.0,0.0,0.0,0.0,0.0,0.0,0.0,0.0,0.0,0.0,0.0,0.0,0.0,0.0,0.0,0.0,0.0,0.0,0.0,0.0,0.0,0.0,0.0,0.0,0.0,0.0,0.0,0.0,0.0,0.0,0.0,0.0,0.0,0.0,0.0,0.0,0.0,0.0,0.0,0.0,0.0,0.0,0.0,0.0,0.0,0.0,0.0,0.0,0.0,0.0,0.0,0.0,0.0,0.0,0.0,0.0,0.0,0.0,0.0,0.0,0.0,0.0,0.0,0.0,0.0,0.0,0.0,0.0,0.0,0.0,0.0,0.0,0.0,0.0,0.0,0.0,0.0,0.0,0.0,0.0,0.0,1.1746,1.2702,1.4345,0.0,0.0,0.0,0.0,0.0,0.0,0.0,0.0,0.0,0.0,0.0,0.0,0.0,0.0,0.0,0.0,0.0,0.0,0.0,0.0,0.0,0.0,0.0,0.0,0.0,0.0,0.0,0.0,0.0,0.0,0.0,0.0,0.0,0.0,0.0,0.0,0.0,0.0,0.0,0.0,0.0,0.0,0.0,0.0,0.0,0.0,0.0,0.0,0.0,0.0,0.0,0.0,0.0,0.0,0.0,0.0,0.0,0.0,0.0,0.0,0.0,0.0,0.0,0.0,0.0,0.0,0.0,0.0,0.0,0.0,0.0,0.0,0.0,0.0,0.0,0.0,0.0,0.0,0.0,0.0,0.0,0.0,0.0,0.0,0.0,0.0,0.0,0.0,0.0,0.0,0.0,0.0,0.0,0.0,0.0,0.0,0.0,0.0,0.0,0.0,0.0,0.0,0.0,0.0,0.0,0.0,0.0,0.0,0.0,0.0,1.0953,1.2177,1.3211,0.0,1.4308,0.0,0.0,0.0,0.0,0.0,0.0,0.0,0.0,0.0,0.0,0.0,0.0,0.0,0.0,0.0,0.0,0.0,0.0,0.0,0.0,0.0,0.0,0.0,0.0,0.0,0.0,0.0,0.0,0.0,0.0,0.0,0.0,0.0,0.0,0.0,0.0,0.0,0.0,0.0,0.0,0.0,0.0,0.0,0.0,0.0,0.0,0.0,0.0,0.0,0.0,0.0,0.0,0.0,0.0,0.0,0.0,0.0,0.0,0.0,0.0,0.0,0.0,0.0,0.0,0.0,0.0,0.0,0.0,0.0,0.0,0.0,0.0,0.0,0.0,0.0,0.0,0.0,0.0,0.0,0.0,0.0,0.0,0.0,0.0,0.0,0.0,0.0,0.0,0.0,0.0,0.0,0.0,0.0,0.0,0.0,0.0,0.0,0.0,0.0,0.0,0.0,0.0,0.0,0.0,0.0,0.0,0.0,0.0,0.0,0.0,1.1307,1.262,1.3823,1.4501,0.0,0.0,0.0,0.0,0.0,0.0,0.0,0.0,0.0,0.0,0.0,0.0,0.0,0.0,0.0,0.0,0.0,0.0,0.0,0.0,0.0,0.0,0.0,0.0,0.0,0.0,0.0,0.0,0.0,0.0,0.0,0.0,0.0,0.0,0.0,0.0,0.0,0.0,0.0,0.0,0.0,0.0,0.0,0.0,0.0,0.0,0.0,0.0,0.0,0.0,0.0,0.0,0.0,0.0,0.0,0.0,0.0,0.0,0.0,0.0,0.0,0.0,0.0,0.0,0.0,0.0,0.0,0.0,0.0,0.0,0.0,0.0,0.0,0.0,0.0,0.0,0.0,0.0,0.0,0.0,0.0,0.0,0.0,0.0,0.0,0.0,0.0,0.0,0.0,0.0,0.0,0.0,0.0,0.0,0.0,0.0,0.0,0.0,0.0,0.0,0.0,0.0,0.0,0.0,0.0,0.0,0.0,0.0,0.0,0.0,1.1004,1.1896,1.3268,1.4191,1.4668,1.4629,0.0,0.0,0.0,0.0,0.0,0.0,0.0,0.0,0.0,0.0,0.0,0.0,0.0,0.0,0.0,0.0,0.0,0.0,0.0,0.0,0.0,0.0,0.0,0.0,0.0,0.0,0.0,0.0,0.0,0.0,0.0,0.0,0.0,0.0,0.0,0.0,0.0,0.0,0.0,0.0,0.0,0.0,0.0,0.0,0.0,0.0,0.0,0.0,0.0,0.0,0.0,0.0,0.0,0.0,0.0,0.0,0.0,0.0,0.0,0.0,0.0,0.0,0.0,0.0,0.0,0.0,0.0,0.0,0.0,0.0,0.0,0.0,0.0,0.0,0.0,0.0,0.0,0.0,0.0,0.0,0.0,0.0,0.0,0.0,0.0,0.0,0.0,0.0,0.0,0.0,0.0,0.0,0.0,0.0,0.0,0.0,0.0,0.0,0.0,0.0,0.0,0.0,0.0,0.0,0.0,0.0,0.0,0.0,1.1027,1.1979,1.2949,1.4271,1.4379,1.4416,0.0,0.0,0.0,0.0,0.0,0.0,0.0,0.0,0.0,0.0,0.0,0.0,0.0,0.0,0.0,0.0,0.0,0.0,0.0,0.0,0.0,0.0,0.0,0.0,0.0,0.0,0.0,0.0,0.0,0.0,0.0,0.0,0.0,0.0,0.0,0.0,0.0,0.0,0.0,0.0,0.0,0.0,0.0,0.0,0.0,0.0,0.0,0.0,0.0,0.0,0.0,0.0,0.0,0.0,0.0,0.0,0.0,0.0,0.0,0.0,0.0,0.0,0.0,0.0,0.0,0.0,0.0,0.0,0.0,0.0,0.0,0.0,0.0,0.0,0.0,0.0,0.0,0.0,0.0,0.0,0.0,0.0,0.0,0.0,0.0,0.0,0.0,0.0,0.0,0.0,0.0,0.0,0.0,0.0,0.0,0.0,0.0,0.0,0.0,0.0,0.0,0.0,0.0,0.0,0.0,0.0,0.0,0.0,0.0,0.8557,1.1815,1.3818,1.4497,1.4451,1.4451,0.0,0.0,0.0,0.0,0.0,0.0,0.0,0.0,0.0,0.0,0.0,0.0,0.0,0.0,0.0,0.0,0.0,0.0,0.0,0.0,0.0,0.0,0.0,0.0,0.0,0.0,0.0,0.0,0.0,0.0,0.0,0.0,0.0,0.0,0.0,0.0,0.0,0.0,0.0,0.0,0.0,0.0,0.0,0.0,0.0,0.0,0.0,0.0,0.0,0.0,0.0,0.0,0.0,0.0,0.0,0.0,0.0,0.0,0.0,0.0,0.0,0.0,0.0,0.0,0.0,0.0,0.0,0.0,0.0,0.0,0.0,0.0,0.0,0.0,0.0,0.0,0.0,0.0,0.0,0.0,0.0,0.0,0.0,0.0,0.0,0.0,0.0,0.0,0.0,0.0,0.0,0.0,0.0,0.0,0.0,0.0,0.0,0.0,0.0,0.0,0.0,0.0,0.0,0.0,0.0,0.0,0.0,0.0,0.0,0.7435,0.0,1.4237,1.46,1.4446,1.4434,0.0,0.0,0.0,0.0,0.0,0.0,0.0,0.0,0.0,0.0,0.0,0.0,0.0,0.0,0.0,0.0,0.0,0.0,0.0,0.0,0.0,0.0,0.0,0.0,0.0,0.0,0.0,0.0,0.0,0.0,0.0,0.0,0.0,0.0,0.0,0.0,0.0,0.0,0.0,0.0,0.0,0.0,0.0,0.0,0.0,0.0,0.0,0.0,0.0,0.0,0.0,0.0,0.0,0.0,0.0,0.0,0.0,0.0,0.0,0.0,0.0,0.0,0.0,0.0,0.0,0.0,0.0,0.0,0.0,0.0,0.0,0.0,0.0,0.0,0.0,0.0,0.0,0.0,0.0,0.0,0.0,0.0,0.0,0.0,0.0,0.0,0.0,0.0,0.0,0.0,0.0,0.0,0.0,0.0,0.0,0.0,0.0,0.0,0.0,0.0,0.0,0.0,0.0,0.0,0.0,0.0,0.0,0.0,0.0701,0.8031,1.1914,1.3984,1.4603,1.435,1.4342,0.0,0.0,0.0,0.0,0.0,0.0,0.0,0.0,0.0,0.0,0.0,0.0,0.0,0.0,0.0,0.0,0.0,0.0,0.0,0.0,0.0,0.0,0.0,0.0,0.0,0.0,0.0,0.0,0.0,0.0,0.0,0.0,0.0,0.0,0.0,0.0,0.0,0.0,0.0,0.0,0.0,0.0,0.0,0.0,0.0,0.0,0.0,0.0,0.0,0.0,0.0,0.0,0.0,0.0,0.0,0.0,0.0,0.0,0.0,0.0,0.0,0.0,0.0,0.0,0.0,0.0,0.0,0.0,0.0,0.0,0.0,0.0,0.0,0.0,0.0,0.0,0.0,0.0,0.0,0.0,0.0,0.0,0.0,0.0,0.0,0.0,0.0,0.0,0.0,0.0,0.0,0.0,0.0,0.0,0.0,0.0,0.0,0.0,0.0,0.0,0.0,0.0,0.0,0.0,0.0,0.0,0.0,0.0,0.0,0.8227,0.9849,1.0986,1.1827,1.3955,1.5207,0.0,0.0,0.0,0.0,0.0,0.0,0.0,0.0,0.0,0.0,0.0,0.0,0.0,0.0,0.0,0.0,0.0,0.0,0.0,0.0,0.0,0.0,0.0,0.0,0.0,0.0,0.0,0.0,0.0,0.0,0.0,0.0,0.0,0.0,0.0,0.0,0.0,0.0,0.0,0.0,0.0,0.0,0.0,0.0,0.0,0.0,0.0,0.0,0.0,0.0,0.0,0.0,0.0,0.0,0.0,0.0,0.0,0.0,0.0,0.0,0.0,0.0,0.0,0.0,0.0,0.0,0.0,0.0,0.0,0.0,0.0,0.0,0.0,0.0,0.0,0.0,0.0,0.0,0.0,0.0,0.0,0.0,0.0,0.0,0.0,0.0,0.0,0.0,0.0,0.0,0.0,0.0,0.0,0.0,0.0,0.0,0.0,0.0,0.0,0.0,0.0,0.0,0.0,0.0,0.0,0.0,0.0,0.0,0.0,0.6637,0.7031,0.7514,0.8333,1.2057,1.3811,1.3289,0.0,0.0,0.0,0.0,0.0,0.0,0.0,0.0,0.0,0.0,0.0,0.0,0.0,0.0,0.0,0.0,0.0,0.0,0.0,0.0,0.0,0.0,0.0,0.0,0.0,0.0,0.0,0.0,0.0,0.0,0.0,0.0,0.0,0.0,0.0,0.0,0.0,0.0,0.0,0.0,0.0,0.0,0.0,0.0,0.0,0.0,0.0,0.0,0.0,0.0,0.0,0.0,0.0,0.0,0.0,0.0,0.0,0.0,0.0,0.0,0.0,0.0,0.0,0.0,0.0,0.0,0.0,0.0,0.0,0.0,0.0,0.0,0.0,0.0,0.0,0.0,0.0,0.0,0.0,0.0,0.0,0.0,0.0,0.0,0.0,0.0,0.0,0.0,0.0,0.0,0.0,0.0,0.0,0.0,0.0,0.0,0.0,0.0,0.0,0.0,0.0,0.0,0.0,0.0,0.0,0.0,0.0,0.0,0.4071,0.3558,0.3684,0.4637,0.9274,1.088,0.0,0.0,0.0,0.0,0.0,0.0,0.0,0.0,0.0,0.0,0.0,0.0,0.0,0.0,0.0,0.0,0.0,0.0,0.0,0.0,0.0,0.0,0.0,0.0,0.0,0.0,0.0,0.0,0.0,0.0,0.0,0.0,0.0,0.0,0.0,0.0,0.0,0.0,0.0,0.0,0.0,0.0,0.0,0.0,0.0,0.0,0.0,0.0,0.0,0.0,0.0,0.0,0.0,0.0,0.0,0.0,0.0,0.0,0.0,0.0,0.0,0.0,0.0,0.0,0.0,0.0,0.0,0.0,0.0,0.0,0.0,0.0,0.0,0.0,0.0,0.0,0.0,0.0,0.0,0.0,0.0,0.0,0.0,0.0,0.0,0.0,0.0,0.0,0.0,0.0,0.0,0.0,0.0,0.0,0.0,0.0,0.0,0.0,0.0,0.0,0.0,0.0,0.0,0.0,0.0,0.0,0.0,0.0,0.0,0.3951,-0.0522,-0.1297,0.2594,0.8853,1.186,0.0,0.0,0.0,0.0,0.0,0.0,0.0,0.0,0.0,0.0,0.0,0.0,0.0,0.0,0.0,0.0,0.0,0.0,0.0,0.0,0.0,0.0,0.0,0.0,0.0,0.0,0.0,0.0,0.0,0.0,0.0,0.0,0.0,0.0,0.0,0.0,0.0,0.0,0.0,0.0,0.0,0.0,0.0,0.0,0.0,0.0,0.0,0.0,0.0,0.0,0.0,0.0,0.0,0.0,0.0,0.0,0.0,0.0,0.0,0.0,0.0,0.0,0.0,0.0,0.0,0.0,0.0,0.0,0.0,0.0,0.0,0.0,0.0,0.0,0.0,0.0,0.0,0.0,0.0,0.0,0.0,0.0,0.0,0.0,0.0,0.0,0.0,0.0,0.0,0.0,0.0,0.0,0.0,0.0,0.0,0.0,0.0,0.0,0.0,0.0,0.0,0.0,0.0,0.0,0.0,0.0,0.0,0.0,-0.1485,0.1595,-0.275,-0.3547,-0.0357,0.6894,1.0121,0.0,0.0,0.0,0.0,0.0,0.0,0.0,0.0,0.0,0.0,0.0,0.0,0.0,0.0,0.0,0.0,0.0,0.0,0.0,0.0,0.0,0.0,0.0,0.0,0.0,0.0,0.0,0.0,0.0,0.0,0.0,0.0,0.0,0.0,0.0,0.0,0.0,0.0,0.0,0.0,0.0,0.0,0.0,0.0,0.0,0.0,0.0,0.0,0.0,0.0,0.0,0.0,0.0,0.0,0.0,0.0,0.0,0.0,0.0,0.0,0.0,0.0,0.0,0.0,0.0,0.0,0.0,0.0,0.0,0.0,0.0,0.0,0.0,0.0,0.0,0.0,0.0,0.0,0.0,0.0,0.0,0.0,0.0,0.0,0.0,0.0,0.0,0.0,0.0,0.0,0.0,0.0,0.0,0.0,0.0,0.0,0.0,0.0,0.0,0.0,0.0,0.0,0.0,0.0,0.0,0.0,0.0,0.0,-0.2173,-0.2047,-0.358,-0.4074,-0.3217,0.3828,0.6801,0.0,0.0,0.0,0.0,0.0,0.0,0.0,0.0,0.0,0.0,0.0,0.0,0.0,0.0,0.0,0.0,0.0,0.0,0.0,0.0,0.0,0.0,0.0,0.0,0.0,0.0,0.0,0.0,0.0,0.0,0.0,0.0,0.0,0.0,0.0,0.0,0.0,0.0,0.0,0.0,0.0,0.0,0.0,0.0,0.0,0.0,0.0,0.0,0.0,0.0,0.0,0.0,0.0,0.0,0.0,0.0,0.0,0.0,0.0,0.0,0.0,0.0,0.0,0.0,0.0,0.0,0.0,0.0,0.0,0.0,0.0,0.0,0.0,0.0,0.0,0.0,0.0,0.0,0.0,0.0,0.0,0.0,0.0,0.0,0.0,0.0,0.0,0.0,0.0,0.0,0.0,0.0,0.0,0.0,0.0,0.0,0.0,0.0,0.0,0.0,0.0,0.0,0.0,0.0,0.0,0.0,0.0,0.0,-0.4874,-0.1847,-0.343,-0.4189,-0.3917,0.0244,0.3549,0.0,0.0,0.0,0.0,0.0,0.0,0.0,0.0,0.0,0.0,0.0,0.0,0.0,0.0,0.0,0.0,0.0,0.0,0.0,0.0,0.0,0.0,0.0,0.0,0.0,0.0,0.0,0.0,0.0,0.0,0.0,0.0,0.0,0.0,0.0,0.0,0.0,0.0,0.0,0.0,0.0,0.0,0.0,0.0,0.0,0.0,0.0,0.0,0.9801,0.0,0.0,0.0,0.0,0.0,0.0,0.0,0.0,0.0,0.0,0.0,0.0,0.0,0.0,0.0,0.0,0.0,0.0,0.0,0.0,0.0,0.0,0.0,0.0,0.0,0.0,0.0,0.0,0.0,0.0,0.0,0.0,0.0,0.0,0.0,0.0,0.0,0.0,0.0,0.0,0.0,0.0,0.0,0.0,0.0,0.0,0.0,0.0,0.0,0.0,0.0,0.0,0.0,0.0,0.0,0.0,0.0,0.0,0.0,-0.666,-0.4371,-0.4493,-0.4355,-0.3832,-0.2268,0.1211,0.0,0.0,0.0,0.0,0.0,0.0,0.0,0.0,0.0,0.0,0.0,0.0,0.0,0.0,0.0,0.0,0.0,0.0,0.0,0.0,0.0,0.0,0.0,0.0,0.0,0.0,0.0,0.0,0.0,0.0,0.0,0.0,0.0,0.0,0.0,0.0,0.0,0.0,0.0,0.0,0.0,0.0,0.0,0.0,0.0,0.0,0.0,0.0,0.0,0.0,0.0,0.0,0.0,0.0,0.0,0.0,0.0,0.0,0.0,0.0,0.0,0.0,0.0,0.0,0.0,0.0,0.0,0.0,0.0,0.0,0.0,0.0,0.0,0.0,0.0,0.0,0.0,0.0,0.0,0.0,0.0,0.0,0.0,0.0,0.0,0.0,0.0,0.0,0.0,0.0,0.0,0.0,0.0,0.0,0.0,0.0,0.0,0.0,0.0,0.0,0.0,0.0,0.0,0.0,0.0,0.0,0.0,-0.8866,-0.7784,-0.7143,-0.5648,-0.4494,-0.3753,-0.3956,-0.0688,0.6357,0.0,0.0,0.0,0.0,0.0,0.0,0.0,0.0,0.0,0.0,0.0,0.0,0.0,0.0,0.0,0.0,0.0,0.0,0.0,0.0,0.0,0.0,0.0,0.0,0.0,0.0,0.0,0.0,0.0,0.0,0.0,0.0,0.0,0.0,0.0,0.0,0.0,0.0,0.9338,0.8555,0.0,0.0,0.0,0.0,0.0,0.0,0.0,0.0,0.911,0.0,0.0,0.0,0.0,0.0,0.0,0.0,0.0,0.0,0.0,0.0,0.0,0.0,0.0,0.0,0.0,0.0,0.0,0.0,0.0,0.0,0.0,0.0,0.0,0.0,0.0,0.0,0.0,0.0,0.0,0.0,0.0,0.0,0.0,0.0,0.0,0.0,0.0,0.0,0.0,0.0,0.0,0.0,0.0,0.0,0.0,0.0,0.0,0.0,0.0,0.0,0.0,0.0,0.0,0.0,0.0,-0.9136,-0.9024,-0.821,-0.6652,-0.5284,-0.4455,-0.4292,-0.4301,-0.2348,0.1872,0.0,0.0,0.0,0.0,0.0,0.0,0.0,0.0,0.0,0.0,0.0,0.0,0.0,0.0,0.0,0.0,0.0,0.0,0.0,0.0,0.0,0.0,0.0,0.0,0.0,0.0,0.0,0.0,0.0,0.0,0.0,0.0,0.0,0.0,0.0,0.0,0.0,0.0,0.0,0.7253,0.6773,0.0,0.0,0.0,0.0,0.0,0.0,0.0,0.0,0.9672,0.0,0.0,0.0,0.0,0.0,0.0,0.0,0.0,0.0,0.0,0.0,0.0,0.0,0.0,0.0,0.0,0.0,0.0,0.0,0.0,0.0,0.0,0.0,0.0,0.0,0.0,0.0,0.0,0.0,0.0,0.0,0.0,0.0,0.0,0.0,0.0,0.0,0.0,0.0,0.0,0.0,0.0,0.0,0.0,0.0,0.0,0.0,0.0,0.0,0.0,0.0,0.0,0.0,0.0,0.0,-0.9264,-0.8493,-0.7458,-0.6125,-0.5264,-0.455,-0.401,-0.4541,-0.3038,0.0,0.0,0.0,0.0,0.0,0.0,0.0,0.0,0.0,0.0,0.0,0.0,0.0,0.0,0.0,0.0,0.0,0.0,0.0,0.0,0.0,0.0,0.0,0.0,0.0,0.0,0.0,0.0,0.0,0.0,0.0,0.0,0.0,0.0,0.0,0.0,0.0,0.0,0.0,0.0,0.7729,0.7381,0.6854,0.0,0.0,0.0,0.0,0.0,0.0,0.8778,0.8435,0.0,0.0,0.0,0.0,0.0,0.0,0.0,0.0,0.0,0.0,0.0,0.0,0.0,0.0,0.0,0.0,0.0,0.0,0.0,0.0,0.0,0.0,0.0,0.0,0.0,0.0,0.0,0.0,0.0,0.0,0.0,0.0,0.0,0.0,0.0,0.0,0.0,0.0,0.0,0.0,0.0,0.0,0.0,0.0,0.0,0.0,0.0,0.0,0.0,0.0,0.0,0.0,0.0,0.0,0.0,-0.9567,-0.8129,-0.6865,-0.583,-0.5365,-0.4709,-0.3827,-0.5045,-0.4145,0.0,0.0,0.0,0.0,0.0,0.0,0.0,0.0,0.0,0.0,0.0,0.0,0.0,0.0,0.0,0.0,0.0,0.0,0.0,0.0,0.0,0.0,0.0,0.0,0.0,0.0,0.0,0.0,0.0,0.0,0.0,0.0,0.0,0.0,0.0,0.0,0.0,0.0,0.0,0.0,0.0,0.7639,0.7574,0.6658,0.0,0.0,0.0,0.0,0.9286,0.8492,0.0,0.0,0.0,0.0,0.0,0.0,0.0,0.0,0.0,0.0,0.0,0.0,0.0,0.0,0.0,0.0,0.0,0.0,0.0,0.0,0.0,0.0,0.0,0.0,0.0,0.0,0.0,0.0,0.0,0.0,0.0,0.0,0.0,0.0,0.0,0.0,0.0,0.0,0.0,0.0,0.0,0.0,0.0,0.0,0.0,0.0,0.0,0.0,0.0,0.0,0.0,0.0,0.0,0.0,0.0,0.0,-0.9484,-0.8712,-0.7591,-0.6114,-0.5545,-0.4953,-0.4345,-0.6375,-0.6999,0.0,0.0,0.0,0.0,0.0,0.0,0.0,0.0,0.0,0.0,0.0,0.0,0.0,0.0,0.0,0.0,0.0,0.0,0.0,0.0,0.0,0.0,0.0,0.0,0.0,0.0,0.0,0.0,0.0,0.0,0.0,0.0,0.0,0.0,0.0,0.0,0.0,0.0,0.0,0.0,0.0,0.5792,0.5721,0.451,0.4287,0.0,0.0,0.824,0.9986,1.0548,0.0,0.0,0.0,0.0,0.0,0.0,0.0,0.0,0.0,0.0,0.0,0.0,0.0,0.0,0.0,0.0,0.0,0.0,0.0,0.0,0.0,0.0,0.0,0.0,0.0,0.0,0.0,0.0,0.0,0.0,0.0,0.0,0.0,0.0,0.0,0.0,0.0,0.0,0.0,0.0,0.0,0.0,0.0,0.0,0.0,0.0,0.0,0.0,0.0,0.0,0.0,0.0,0.0,0.0,0.0,-1.0739,-0.9621,-0.819,-0.6982,-0.6068,-0.5582,-0.5078,-0.4481,-0.6961,-0.7701,0.0,0.0,0.0,0.0,0.0,0.0,0.0,0.0,0.0,0.0,0.0,0.0,0.0,0.0,0.0,0.0,0.0,0.0,0.0,0.0,0.0,0.0,0.0,0.0,0.0,0.0,0.0,0.0,0.0,0.0,0.0,0.0,0.0,0.0,0.0,0.0,0.0,0.0,0.0,0.0,0.0,0.0,0.3806,0.3241,0.0,0.0,0.0,0.7338,0.8703,0.0,0.0,0.0,0.0,0.0,0.0,0.0,0.0,0.0,0.0,0.0,0.0,0.0,0.0,0.0,0.0,0.0,0.0,0.0,0.0,0.0,0.0,0.0,0.0,0.0,0.0,0.0,0.0,0.0,0.0,0.0,0.0,0.0,0.0,0.0,0.0,0.0,0.0,0.0,0.0,0.0,0.0,0.0,0.0,0.0,0.0,0.0,0.0,0.0,0.0,0.0,0.0,0.0,0.0,0.0,0.0,0.0,-0.9857,-0.7731,-0.6448,-0.6141,-0.5771,-0.5232,-0.4629,-0.6752,0.0,0.0,0.0,0.0,0.0,0.0,0.0,0.0,0.0,0.0,0.0,0.0,0.0,0.0,0.0,0.0,0.0,0.0,0.0,0.0,0.0,0.0,0.0,0.0,0.0,0.0,0.0,1.1673,0.0,0.0,0.0,0.0,0.0,0.0,0.0,0.0,0.0,0.0,0.0,0.0,0.0,0.0,0.6288,0.3449,0.2567,0.2724,0.0,0.0,0.6572,0.8084,0.7889,0.7488,0.0,0.0,0.0,0.0,0.0,0.0,0.0,0.0,0.0,0.0,0.0,0.0,0.0,0.0,0.0,0.0,0.0,0.0,0.0,0.0,0.0,0.0,0.0,0.0,0.0,0.0,0.0,0.0,0.0,0.0,0.0,0.0,0.0,0.0,0.0,0.0,0.0,0.0,0.0,0.0,0.0,0.0,0.0,0.0,0.0,0.0,0.0,0.0,0.0,0.0,0.0,0.0,0.0,0.0,-1.032,-1.011,-0.782,-0.6586,-0.6547,-0.6177,-0.5593,-0.4817,-0.5379,-0.6151,0.0,0.0,0.0,0.0,0.0,0.0,0.0,0.0,0.0,0.0,0.0,0.0,0.0,0.0,0.0,0.0,0.0,0.0,0.0,0.0,0.0,0.0,0.0,0.0,0.0,0.0,0.0,0.0,0.0,0.0,0.0,0.0,0.0,0.0,0.0,0.0,0.0,0.0,0.0,0.0,0.0,0.558,0.5871,0.2603,0.1007,0.0,0.4806,0.6493,0.9242,1.0595,1.0608,0.8537,0.0,0.0,0.0,0.0,0.0,0.0,0.0,0.0,0.0,0.0,0.0,0.0,0.0,0.0,0.0,0.0,0.0,0.0,0.0,0.0,0.0,0.0,0.0,0.0,0.0,0.0,0.0,0.0,0.0,0.0,0.0,0.0,0.0,0.0,0.0,0.0,0.0,0.0,0.0,0.0,0.0,0.0,0.0,0.0,0.0,0.0,0.0,0.0,0.0,0.0,0.0,0.0,0.0,-1.0415,-1.0174,-0.8021,-0.6874,-0.6787,-0.6711,-0.628,-0.543,-0.6491,-0.7158,0.0,0.0,0.0,0.0,0.0,0.0,0.0,0.0,0.0,0.0,0.0,0.0,0.0,0.0,0.0,0.0,0.0,0.0,0.0,0.0,0.0,0.0,0.0,0.0,0.0,0.0,0.0,0.0,1.4065,1.4753,1.5165,0.0,0.0,0.0,0.0,0.0,0.0,0.0,0.0,0.0,0.0,0.3281,0.3344,0.1714,0.0,0.0,0.4264,0.6678,0.8471,0.9059,0.8783,0.7302,0.8207,0.0,0.0,0.0,0.0,0.0,0.0,0.0,0.0,0.0,0.0,0.0,0.0,0.0,0.0,0.0,0.0,0.0,0.0,0.0,0.0,0.0,0.0,0.0,0.0,0.0,0.0,0.0,0.0,0.0,0.0,0.0,0.0,0.0,0.0,0.0,0.0,0.0,0.0,0.0,0.0,0.0,0.0,0.0,0.0,0.0,0.0,0.0,0.0,0.0,0.0,0.0,0.0,-1.0654,-1.057,-0.8284,-0.7042,-0.6957,-0.7131,-0.6817,-0.604,-0.6888,-0.7434,0.0,0.0,0.0,0.0,0.0,0.0,0.0,0.0,0.0,0.0,0.0,0.0,0.0,0.0,0.0,0.0,0.0,0.0,0.0,0.0,0.0,0.0,0.0,0.0,0.0,0.0,0.0,0.0,1.4524,1.5245,1.5324,0.0,0.0,0.0,0.0,0.0,0.0,0.0,0.0,0.0,0.0,0.2059,0.23,0.1792,0.1413,0.1359,0.4042,0.6266,0.6589,0.7413,0.7712,0.6875,0.0,0.0,0.0,0.0,0.0,0.0,0.0,0.0,0.0,0.0,0.0,0.0,0.0,0.0,0.0,0.0,0.0,0.0,0.0,0.0,0.0,0.0,0.0,0.0,0.0,0.0,0.0,-1.0301,0.0,0.0,-1.0181,0.0,0.0,0.0,0.0,0.0,0.0,0.0,0.0,0.0,0.0,0.0,0.0,0.0,0.0,0.0,0.0,0.0,0.0,0.0,0.0,0.0,0.0,-1.1063,-1.1407,-0.8601,-0.712,-0.7131,-0.7364,-0.7166,-0.6441,-0.5999,-0.6436,-0.7809,0.0,0.0,0.0,0.0,0.0,0.0,0.0,0.0,0.0,0.0,0.0,0.0,0.0,0.0,0.0,0.0,0.0,0.0,0.0,0.0,0.0,0.0,0.0,0.0,0.0,0.0,1.4577,1.5129,1.5158,0.0,0.0,0.0,0.0,0.0,0.0,0.0,0.0,0.0,0.6695,0.3725,0.2399,0.3708,0.3166,0.2441,0.2572,0.423,0.4984,0.3659,0.6188,0.8299,0.0,0.0,0.0,0.0,0.0,0.0,0.0,0.0,0.0,0.0,0.0,0.0,0.0,0.0,0.0,0.0,0.0,0.0,0.0,0.0,0.0,0.0,0.0,0.0,0.0,0.0,0.0,-1.2977,-1.3428,0.0,0.0,0.0,0.0,0.0,0.0,0.0,0.0,0.0,0.0,0.0,-1.3986,-1.505,0.0,0.0,0.0,0.0,0.0,0.0,0.0,0.0,0.0,0.0,0.0,0.0,-1.0944,-1.1051,-0.902,-0.8135,-0.8553,-0.886,-0.8636,-0.7835,-0.7554,-0.7503,-0.7627,0.0,0.0,0.0,0.0,0.0,0.0,0.0,0.0,0.0,0.0,0.0,0.0,0.0,0.0,0.0,0.0,0.0,0.0,0.0,0.0,0.0,0.0,0.0,0.0,0.0,0.922,0.0,0.0,0.0,0.0,0.0,0.0,0.0,0.0,0.0,0.0,0.0,0.4734,0.4387,0.1117,-0.0774,0.0413,0.0724,0.0857,0.0,0.0,0.0,0.0,0.0,0.0,0.0,0.0,0.0,0.0,0.0,0.0,0.0,0.0,0.5043,0.343,0.4205,0.5043,0.4578,0.0,0.0,0.0,0.0,0.0,0.0,0.0,0.0,0.0,0.0,0.0,0.0,0.0,0.0,-1.3978,-1.4632,-1.4169,0.0,0.0,0.0,0.0,0.0,0.0,0.0,0.0,-1.4482,-1.5266,-1.5448,-1.601,-1.6261,0.0,-1.5439,-1.5072,0.0,0.0,0.0,0.0,0.0,0.0,0.0,0.0,-1.0913,-1.1269,-0.9169,-0.8373,-0.8996,-0.9378,-0.9328,-0.8852,-0.8549,-0.7946,-0.6962,-0.7504,-0.7503,0.0,0.0,0.0,0.0,0.0,0.0,0.0,0.0,0.0,0.0,0.0,0.0,0.0,0.0,0.0,0.0,0.0,0.0,0.0,0.0,0.0,0.0,0.0,0.8712,0.0,0.0,0.0,0.0,0.0,0.0,0.0,0.0,0.0,0.8083,0.4553,0.1755,0.178,-0.0794,-0.2204,-0.0787,0.0,0.0,0.0,0.0,0.0,0.0,0.0,0.2223,0.1546,0.2062,0.1752,-0.0518,0.012,0.0998,0.116,0.0,0.0,0.1079,0.2089,0.2932,0.2556,0.3982,0.4704,0.2984,0.2391,0.1688,0.0,0.0,0.0,0.0,0.0,0.0,0.0,0.0,-1.3136,-1.3619,0.0,-1.4232,0.0,0.0,0.0,0.0,-1.384,-1.4468,0.0,0.0,-1.5099,-1.559,-1.6661,-1.5755,-1.5413,-1.5679,-1.59,-1.5735,-1.5168,-1.2858,0.0,0.0,0.0,0.0,0.0,0.0,-1.1102,-1.1948,-0.9213,-0.8001,-0.8623,-0.901,-0.9304,-0.951,-0.8949,-0.7821,-0.6162,-0.7338,-0.6918,-0.4532,-0.7085,0.0,0.0,0.0,0.0,0.0,0.0,0.0,0.0,0.0,0.0,0.0,0.0,0.0,0.0,0.0,0.0,0.0,0.0,0.0,0.0,1.2047,0.0,0.0,0.0,0.0,0.0,0.0,0.0,0.0,0.0,0.0,0.1699,0.1618,0.0948,-0.0893,0.0,0.0,0.0,0.0,0.0308,-0.072,-0.0045,-0.0264,-0.2519,-0.0549,0.1153,0.0714,0.0,0.0,0.113,-0.0479,-0.1425,-0.17,-0.0577,0.0892,0.305,0.1226,-0.0479,-0.0569,-0.0642,-0.0874,0.0044,0.0,-0.0639,-1.786,0.0,0.0,0.0,0.0,-1.6251,-1.6629,-1.6477,-1.7073,-1.7404,-1.7529,-1.6957,0.0,0.0,0.0,0.0,0.0,0.0,-1.5307,-1.5125,-1.5531,-1.606,-1.653,-1.5261,-1.4743,-1.489,-1.4194,-1.33,-1.2279,-1.1345,-1.2388,-1.5263,0.0,0.0,0.0,0.0,-1.2245,-1.1715,-1.0471,-1.0118,-1.0699,-1.0842,-1.0725,-1.0366,-0.9654,-0.8756,-0.7718,-0.7569,-0.7287,-0.6747,-0.6806,0.0,0.0,0.0,0.0,0.0,0.0,0.0,0.0,0.0,0.0,0.0,0.0,0.0,0.0,0.0,0.0,0.0,0.0,0.0,0.5329,0.544,0.4703,0.0,0.0,0.0,0.0,0.0,0.0,0.0,0.0,0.0,-0.1909,-0.1919,-0.1797,0.0,0.0,-0.256,-0.0946,-0.1418,-0.1928,-0.202,-0.2004,0.0,-0.2689,-0.2414,-0.2091,-0.1926,-0.0993,-0.0559,-0.1268,-0.1774,-0.1878,-0.1389,-0.094,-0.0176,0.0847,0.1049,0.0851,0.1104,0.1036,0.1106,0.1432,0.1284,0.1053,-1.8351,-1.8345,-1.7868,-1.7386,-1.7043,-1.8306,-1.8493,-1.7952,-1.8776,-1.9075,-1.8984,-1.8525,-1.8182,-1.7852,-1.7018,0.0,0.0,0.0,-1.6092,-1.6017,-1.5712,-1.5987,-1.6591,-1.51,-1.443,-1.4556,-1.3667,-1.2604,-1.1415,-1.1689,-1.2815,-1.4718,0.0,0.0,-1.4001,-1.2851,-1.2127,-1.1831,-1.0942,-1.0727,-1.1275,-1.1417,-1.1265,-1.078,-1.0258,-0.9665,-0.8958,-0.8331,-0.7826,-0.7406,-0.7273,-0.7274,0.0,0.0,0.0,0.0,0.0,0.0,0.0,0.0,0.0,0.0,0.0,-0.4544,-0.3431,0.0,0.0,0.0,0.351,0.3747,0.0532,0.2335,0.0,0.0,0.0,0.0,0.0,0.0,0.0,-0.0888,-0.2437,-0.3543,-0.3498,-0.3523,-0.3039,-0.168,-0.2588,-0.2967,-0.1999,0.0,-0.3283,-0.32,-0.3268,-0.3283,-0.3067,-0.3212,-0.3306,-0.3123,-0.2815,-0.2549,-0.2413,-0.2281,-0.1925,-0.1433,-0.1165,-0.0851,-0.0269,0.0306,0.0816,0.129,0.1433,0.1505,0.1543,0.1684,0.1651,-1.9256,-1.9401,-1.9391,-1.9303,-1.9286,-2.0123,-1.9626,-1.8315,-1.9091,-1.9312,-1.913,-1.9158,-1.9503,-1.9928,-1.9104,0.0,-1.8443,-1.7361,-1.7151,-1.7621,-1.58,-1.5695,-1.6922,-1.5138,-1.434,-1.4454,-1.392,-1.3055,-1.2024,-1.2928,-1.329,-1.2941,-1.1626,-1.1872,-1.3423,-1.1991,-1.1563,-1.2349,-1.1112,-1.0599,-1.0867,-1.1169,-1.1201,-1.0968,-1.0818,-1.0441,-0.9792,-0.9389,-0.8538,-0.7226,-0.8229,-0.8153,-0.6647,0.0,0.0,0.0,0.0,0.0,0.0,0.0,0.0,0.0,0.0,0.0,0.0,0.0,0.0,0.0,0.2998,0.0,-0.2388,0.1653,0.0,0.0,0.0,0.2621,0.1952,-0.1262,-0.3375,-0.3047,0.0,0.0,-0.3751,-0.3695,-0.3161,-0.2126,-0.2744,-0.3187,-0.29,-0.3342,-0.385,-0.4004,-0.3861,-0.3612,-0.349,-0.3255,-0.3078,-0.3214,-0.2954,-0.264,-0.2549,-0.2194,-0.1794,-0.1614,-0.1479,-0.121,-0.0851,-0.0715,-0.0492,0.0269,0.0583,0.0673,0.0761,0.1026,0.1155,-2.1309,-2.1849,-2.1282,-2.0302,-1.9211,-2.0117,-2.0648,-2.0896,-2.1084,-2.0763,-2.0073,-2.0025,-1.9374,-1.8278,-1.8002,-1.7804,-1.7679,-1.7596,-1.7589,-1.7556,-1.6737,-1.638,-1.6313,-1.4673,-1.3727,-1.3367,-1.2696,-1.2007,-1.1419,-1.1443,-1.2101,-1.3222,-1.2804,-1.3506,-1.5365,-1.5081,-1.454,-1.3894,-1.3539,-1.277,-1.154,-1.1527,-1.1511,-1.1423,-1.1242,-1.0916,-1.0422,-1.0095,-0.9514,-0.8623,-0.8756,-0.8827,-0.8795,-0.8518,0.0,0.0,0.0,0.0,0.0,0.0,0.0,0.0,0.0,-0.6369,-0.3491,0.0,-0.7022,0.0,-0.1505,-0.2009,-0.3101,0.068,0.0,0.0,0.0952,0.1148,-0.2029,-0.3449,-0.4026,-0.3703,-0.3649,-0.3652,-0.3795,-0.3562,-0.3372,-0.3396,-0.3438,-0.3453,-0.3308,-0.3361,-0.3443,-0.3556,-0.3427,-0.3267,-0.3293,-0.3123,-0.3034,-0.3078,-0.2768,-0.2549,-0.2549,-0.2284,-0.202,-0.1794,-0.1614,-0.1435,-0.1208,-0.1074,-0.0895,-0.0493,-0.0045,0.036,0.045,0.0674,0.0808,-2.2316,-2.2699,-2.226,-2.1548,-2.0746,-2.1357,-2.1644,-2.1729,-2.2071,-2.1725,-2.0887,-2.0839,-2.0077,-1.8835,-1.8712,-1.8593,-1.8485,-1.8397,-1.821,-1.7968,-1.7082,-1.6512,-1.6198,-1.4778,-1.393,-1.3582,-1.3031,-1.2556,-1.2211,-1.195,-1.2302,-1.3217,-1.2941,-1.3796,-1.567,-1.5955,-1.585,-1.536,-1.463,-1.3382,-1.1741,-1.1444,-1.1658,-1.2298,-1.1899,-1.1836,-1.2155,-1.1455,-1.0837,-1.038,-1.0055,-0.9754,-0.9579,-0.9121,-0.8829,0.0,0.0,0.0,0.0,0.0,0.0,0.0,0.0,0.0,0.0,0.0,-0.7467,-0.3615,-0.3734,-0.3932,-0.358,-0.1492,-0.0967,-0.2965,-0.1308,-0.1032,-0.3504,-0.3726,-0.3698,-0.3661,-0.3512,-0.3462,-0.3599,-0.3398,-0.335,-0.3615,-0.3579,-0.3491,-0.3523,-0.3488,-0.3427,-0.34,-0.3199,-0.3039,-0.3075,-0.2951,-0.286,-0.2815,-0.2637,-0.2504,-0.246,-0.2373,-0.233,-0.2373,-0.2194,-0.2014,-0.201,-0.1789,-0.1521,-0.1252,-0.0984,-0.0583,0.0,0.036,0.0539,-2.3015,-2.3025,-2.3035,-2.3035,-2.3036,-2.3095,-2.2675,-2.1968,-2.2658,-2.2469,-2.1656,-2.1541,-2.107,-2.035,-2.0308,-2.0206,-1.9994,-1.9512,-1.9022,-1.854,-1.7305,-1.652,-1.6157,-1.5026,-1.4381,-1.416,-1.3865,-1.3653,-1.3487,-1.3221,-1.3216,-1.3388,-1.308,-1.383,-1.5565,-1.5971,-1.6272,-1.6539,-1.4903,-1.3343,-1.1902,-1.1724,-1.2239,-1.3386,-1.2784,-1.2884,-1.3899,-1.2852,-1.2124,-1.1947,-1.1584,-1.092,-0.9831,-0.9886,-0.9278,0.0,-0.7885,0.0,0.0,0.0,0.0,0.0,0.0,0.0,0.0,-0.7036,-0.6826,-0.49,-0.4692,-0.4437,-0.3968,-0.3904,-0.3886,-0.3883,-0.35,-0.3314,-0.3581,-0.3324,-0.3217,-0.3514,-0.3388,-0.3344,-0.3619,-0.3483,-0.348,-0.366,-0.3629,-0.3602,-0.3707,-0.3622,-0.3445,-0.335,-0.3143,-0.3018,-0.3007,-0.2881,-0.2797,-0.2779,-0.2771,-0.2593,-0.2549,-0.2637,-0.2815,-0.3084,-0.286,-0.2682,-0.2987,-0.2677,-0.2324,-0.2051,-0.2006,-0.1697,-0.0627,-0.0045,0.0224,-2.4728,-2.4732,-2.4791,-2.4821,-2.4763,-2.4101,-2.3743,-2.3631,-2.3741,-2.3294,-2.2441,-2.1771,-2.1302,-2.1086,-2.1618,-2.1644,-2.1244,-2.0916,-2.0207,-1.913,-1.8258,-1.7052,-1.5573,-1.4836,-1.4142,-1.3516,-1.3423,-1.3397,-1.342,-1.3209,-1.3927,-1.549,-1.5297,-1.5862,-1.7162,0.0,0.0,0.0,-1.5147,-1.4054,-1.3374,-1.4447,-1.4884,-1.4606,-1.4139,0.0,-1.2926,-1.2851,-1.2633,-1.226,-1.2386,0.0,0.0,0.0,0.0,0.0,0.0,0.0,0.0,0.0,0.0,0.0,-0.5471,-0.5616,-0.6029,-0.6048,-0.5684,-0.4933,-0.5174,-0.5159,-0.4581,-0.4488,-0.4289,-0.3934,-0.4057,-0.4065,-0.3883,-0.4314,-0.4582,-0.4391,-0.4526,-0.4613,-0.4613,-0.4578,-0.4535,-0.457,-0.436,-0.4092,-0.4005,-0.3612,-0.3258,-0.3084,-0.3072,-0.315,-0.3404,-0.3169,-0.3242,-0.3701,-0.3527,-0.3262,-0.3214,-0.3429,-0.352,-0.3483,-0.3214,-0.3255,-0.3737,-0.3432,-0.3031,-0.2937,-0.2887,-0.2448,-0.1207,-0.0716,-0.0487,-2.5172,-2.5217,-2.5248,-2.5217,0.0,-2.4725,-2.4575,-2.456,-2.4109,-2.3386,-2.2544,-2.2502,-2.1938,-2.1029,-2.1728,-2.1856,-2.1461,-2.0684,-1.9821,-1.899,-1.8359,-1.7412,-1.6293,-1.6155,-1.5876,-1.5374,-1.5193,-1.5239,-1.5477,-1.4892,-1.5209,-1.6402,-1.5624,-1.5581,-1.6205,-1.5979,-1.5792,-1.5736,-1.5249,-1.4544,-1.3601,-1.4151,-1.4635,-1.4826,-1.4212,0.0,0.0,0.0,0.0,0.0,0.0,0.0,0.0,-1.0396,0.0,-0.8302,-0.6973,-0.62,-0.615,-0.555,-0.5397,-0.5815,-0.6339,-0.6667,-0.6573,-0.6483,-0.6306,-0.6031,-0.5841,-0.5632,-0.5308,-0.5214,-0.5125,-0.4954,-0.4883,-0.4813,-0.4843,-0.4909,-0.4942,-0.4813,-0.4831,-0.4874,-0.4792,-0.4748,-0.4748,-0.487,-0.47,-0.4439,-0.4089,-0.3568,-0.317,-0.2998,-0.3284,-0.346,-0.3567,-0.3732,-0.3737,-0.4099,-0.3961,-0.3785,-0.3825,-0.3997,-0.4172,-0.418,-0.4049,-0.4049,-0.4399,-0.4132,-0.3825,-0.3822,-0.3818,-0.351,-0.2497,-0.1607,-0.089,-2.5156,-2.518,-2.518,-2.5137,-2.5082,-2.5088,-2.5095,-2.5032,-2.4162,0.0,0.0,-2.3256,-2.267,-2.1311,-2.1881,-2.1935,-2.1456,-2.0428,-1.9533,-1.8817,-1.8399,-1.7846,-1.7302,-1.7557,-1.7555,-1.7353,-1.703,-1.7151,-1.759,-1.6764,-1.652,-1.6698,-1.5628,-1.4969,-1.4714,-1.4337,-1.4388,-1.4992,-1.5478,-1.5057,-1.3756,-1.3798,-1.424,-1.5031,-1.4227,-1.4204,-1.5057,-1.39,-1.3325,-1.3553,-1.2804,-1.1918,-1.0952,-1.0446,-0.9464,-0.7841,-0.7373,-0.6807,-0.5965,-0.6152,-0.6419,-0.6592,-0.7702,-0.8039,-0.7231,-0.7306,-0.7336,-0.7107,-0.6435,-0.6028,-0.5976,-0.5936,-0.5921,-0.5965,-0.5713,-0.5653,-0.5885,-0.5611,-0.5511,-0.5524,-0.5496,-0.5313,-0.5363,-0.5285,-0.5173,-0.525,-0.5255,-0.4822,-0.426,-0.3609,-0.3126,-0.3141,-0.3468,-0.3833,-0.3939,-0.4096,-0.4401,-0.4477,-0.4395,-0.4308,-0.4478,-0.4609,-0.4783,-0.4966,-0.4836,-0.4836,-0.5009,-0.4792,-0.4618,-0.4539,-0.4666,-0.4622,-0.3917,-0.2672,-0.169,-2.5149,-2.5113,-2.5113,-2.512,-2.5082,-2.5038,-2.5012,-2.4947,-2.4163,-2.3726,-2.3594,-2.3534,-2.3295,-2.298,-2.3401,-2.3035,-2.202,-2.201,-2.1051,-1.9398,-1.9313,-1.8671,-1.7627,-1.7342,-1.7098,-1.6886,-1.6866,-1.701,-1.7324,-1.74,-1.7266,-1.697,-1.6607,-1.5883,-1.4975,-1.4963,-1.5147,-1.5328,-1.5857,-1.5827,-1.5319,-1.6559,-1.6826,-1.6098,-1.5492,-1.4817,-1.4042,-1.3501,-1.3207,-1.3275,-1.265,-1.185,-1.0854,-0.9967,-0.8814,-0.7398,-0.6552,-0.6073,-0.5983,-0.618,-0.6887,-0.8209,-0.8852,-0.8674,-0.7592,-0.7728,-0.7658,-0.7107,-0.6829,-0.6529,-0.6373,-0.6367,-0.6277,-0.5981,-0.6253,-0.6523,-0.6605,-0.6888,-0.7215,-0.7692,-0.7454,-0.7298,-0.7497,-0.731,-0.7083,-0.7133,-0.641,-0.5728,-0.4836,-0.3734,-0.3255,-0.3407,-0.3602,-0.4031,-0.4546,-0.4554,-0.4811,-0.5479,-0.5183,-0.5005,-0.513,-0.5443,-0.5534,-0.5188,-0.5101,-0.5188,-0.5501,-0.5231,-0.5058,-0.5106,-0.5198,-0.5111,-0.4757,-0.4089,-0.339,-2.5132,-2.5101,-2.5088,-2.5082,-2.5038,-2.5018,-2.4991,-2.4959,-2.4506,-2.4039,-2.3671,-2.3824,-2.3607,-2.3138,-2.3517,-2.3298,-2.2617,-2.1823,-2.0928,-1.9947,-1.9562,-1.8938,-1.8159,-1.8247,-1.8209,-1.7955,-1.7955,-1.8287,-1.8902,-1.8489,-1.8353,-1.8439,-1.7471,-1.6623,-1.6069,-1.5714,-1.5609,-1.5667,-1.5587,-1.5584,-1.5612,-1.6184,-1.6173,-1.5494,-1.5056,-1.4505,-1.3766,-1.3047,-1.2639,-1.2639,-1.2016,-1.1469,-1.0991,-1.0516,-0.9738,-0.8527,-0.8084,-0.775,-0.7523,-0.7939,-0.8739,-0.9982,-1.0003,-0.981,-0.9495,-0.9275,-0.8954,-0.8444,-0.843,-0.8136,-0.7513,-0.7659,-0.7631,-0.7189,-0.7567,-0.7802,-0.7788,-0.8019,-0.8349,-0.8558,-0.8557,-0.8645,-0.8857,-0.8881,-0.8645,-0.8333,-0.7196,-0.6159,-0.5754,-0.4893,-0.4194,-0.4168,-0.4505,-0.4852,-0.5145,-0.541,-0.558,-0.588,-0.5712,-0.5669,-0.5744,-0.6013,-0.5933,-0.5669,-0.5669,-0.5663,-0.5766,-0.5674,-0.5583,-0.5539,-0.5674,-0.5631,-0.5371,-0.4884,-0.4117,-2.5095,-2.5076,-2.5082,-2.5038,-2.4999,-2.4931,-2.495,-2.4983,-2.4723,-2.427,-2.3783,-2.4096,-2.3805,-2.316,-2.3311,-2.3124,-2.2528,-2.1372,-2.0603,-2.0136,-1.9654,-1.9148,-1.872,-1.9082,-1.9139,-1.8936,-1.8936,-1.9479,-2.0181,-1.9636,-1.9479,-1.9732,-1.8411,-1.7552,-1.7301,-1.6838,-1.6576,-1.6462,-1.6025,-1.5846,-1.5919,-1.5728,-1.5485,-1.5148,-1.4594,-1.4078,-1.3715,-1.2779,-1.234,-1.2409,-1.1707,-1.1397,-1.147,-1.1304,-1.0849,-1.0043,-0.9865,-0.9658,-0.9294,-0.9736,-1.0447,-1.1217,-1.1013,-1.097,-1.1268,-1.0891,-1.0337,-0.9851,-0.974,-0.9452,-0.8781,-0.886,-0.8976,-0.8643,-0.881,-0.8881,-0.8912,-0.9125,-0.9368,-0.9415,-0.9652,-0.986,-1.0001,-1.0157,-0.9933,-0.9086,-0.7916,-0.7201,-0.698,-0.6395,-0.589,-0.5574,-0.5625,-0.5591,-0.5494,-0.5848,-0.6107,-0.6036,-0.6119,-0.6119,-0.62,-0.6255,-0.6186,-0.6044,-0.6082,-0.6028,-0.5848,-0.588,-0.5923,-0.5875,-0.5946,-0.5933,-0.5674,-0.528,-0.4587,-2.5051,-2.5004,-2.5018,-2.4999,-2.4964,-2.4798,-2.4832,-2.4922,-2.453,-2.4318,-2.4168,-2.4155,-2.3926,-2.3593,-2.3282,-2.2501,-2.1426,-2.1249,-2.07,-1.9878,-1.9771,-1.9585,-1.9259,-1.9072,-1.8936,-1.8936,-1.9109,-1.963,-2.0364,-2.0652,-2.0636,-2.0319,-1.975,-1.9037,-1.8415,-1.861,-1.8623,-1.8352,-1.8232,-1.7787,-1.6997,-1.6759,-1.6516,-1.6145,-1.4966,-1.4124,-1.3814,-1.2918,-1.2698,-1.3075,-1.224,-1.198,-1.256,-1.2076,-1.1525,-1.1263,-1.1003,-1.0756,-1.0499,-1.0792,-1.1129,-1.1368,-1.165,-1.1841,-1.2073,-1.2012,-1.1464,-1.0488,-0.9927,-0.9752,-0.9487,-0.9579,-0.9592,-0.9448,-0.9522,-0.9571,-0.9761,-1.0049,-1.0532,-1.1192,-1.1095,-1.1254,-1.1463,-1.1286,-1.0847,-1.0179,-0.9631,-0.9085,-0.8607,-0.8303,-0.8041,-0.765,-0.682,-0.5951,-0.5951,-0.5981,-0.6145,-0.6208,-0.6378,-0.6396,-0.6349,-0.6497,-0.662,-0.6085,-0.603,-0.6135,-0.6006,-0.5924,-0.5924,-0.6063,-0.6002,-0.5847,-0.5674,-0.5463,-0.4952,-2.4931,-2.4861,-2.4827,-2.4827,-2.4802,-2.466,-2.4645,-2.4726,-2.4321,-2.406,-2.3928,-2.3801,-2.3653,-2.341,-2.3049,-2.2435,-2.1758,-2.1437,-2.0974,-2.0334,-1.9997,-1.966,-1.9413,-1.9265,-1.9176,-1.925,-1.963,-2.0143,-2.0715,-2.1213,-2.139,-2.1163,-2.0644,-2.0152,-1.9833,-1.9652,-1.9508,-1.9389,-1.9783,-1.9808,-1.9317,-1.8279,-1.7546,-1.7171,-1.6438,-1.5666,-1.5003,-1.4186,-1.3686,-1.3564,-1.2899,-1.2739,-1.3216,-1.2934,-1.2728,-1.2677,-1.2686,-1.2562,-1.2183,-1.2282,-1.2413,-1.247,-1.2227,-1.2194,-1.2568,-1.2406,-1.2111,-1.1903,-1.1458,-1.1006,-1.0394,-1.0556,-1.071,-1.0705,-1.0876,-1.103,-1.1324,-1.1603,-1.1902,-1.21,-1.2243,-1.2317,-1.2348,-1.2059,-1.1662,-1.1186,-1.0658,-0.9939,-0.9683,-0.9318,-0.8978,-0.8758,-0.8016,-0.7283,-0.6767,-0.6605,-0.6483,-0.6318,-0.6402,-0.6451,-0.6423,-0.6545,-0.6582,-0.6107,-0.6174,-0.6132,-0.6008,-0.5991,-0.6012,-0.6147,-0.6102,-0.588,-0.5985,-0.5678,-0.53,-2.4821,-2.476,-2.4676,-2.4642,-2.4645,-2.4476,-2.4442,-2.4425,-2.408,-2.3783,-2.3595,-2.3376,-2.3194,-2.3003,-2.279,-2.2436,-2.1936,-2.1491,-2.1055,-2.0628,-1.998,-1.9603,-1.9508,-1.9339,-1.9398,-1.9675,-2.0124,-2.0699,-2.1259,-2.1735,-2.1974,-2.1903,-2.1507,-2.1267,-2.1172,-2.0793,-2.0584,-2.0545,-2.1103,-2.1356,-2.1089,-1.9922,-1.8983,-1.8453,-1.7599,-1.6807,-1.6059,-1.5183,-1.459,-1.4175,-1.3682,-1.3625,-1.4094,-1.3972,-1.3872,-1.3827,-1.3939,-1.3839,-1.3512,-1.3523,-1.3489,-1.3243,-1.2738,-1.2567,-1.2783,-1.2569,-1.2608,-1.3054,-1.3084,-1.2656,-1.172,-1.177,-1.1967,-1.2063,-1.2144,-1.2261,-1.2459,-1.2647,-1.2735,-1.2813,-1.3062,-1.3314,-1.3236,-1.2869,-1.2483,-1.2381,-1.1556,-1.074,-1.081,-1.0401,-0.9984,-0.9792,-0.9486,-0.8775,-0.7757,-0.7158,-0.6916,-0.6792,-0.6786,-0.6666,-0.6561,-0.6701,-0.6588,-0.622,-0.6266,-0.6165,-0.6054,-0.6002,-0.6087,-0.6259,-0.6164,-0.5963,-0.5935,-0.5749,-0.5574,-2.477,-2.4703,-2.4547,-2.4476,-2.4495,-2.4301,-2.421,-2.4192,-2.379,-2.3512,-2.33,-2.2917,-2.2605,-2.2388,-2.2579,-2.2198,-2.1415,-2.1308,-2.0926,-2.0339,-1.9726,-1.9566,-1.9717,-1.9221,-1.9391,-2.0143,-2.0481,-2.1086,-2.1982,-2.2231,-2.2405,-2.2443,-2.233,-2.2303,-2.2214,-2.2238,-2.2262,-2.1877,-2.209,-2.2192,-2.196,-2.1619,-2.0942,-1.9965,-1.8212,-1.7015,-1.6424,-1.5546,-1.5116,-1.5137,-1.4561,-1.4676,-1.5484,-1.5129,-1.4744,-1.4642,-1.4347,-1.422,-1.4147,-1.4147,-1.3935,-1.3457,-1.3226,-1.313,-1.3064,-1.2754,-1.291,-1.3515,-1.4316,-1.4376,-1.349,-1.3012,-1.2974,-1.303,-1.2918,-1.2812,-1.2725,-1.2957,-1.319,-1.3467,-1.3705,-1.3884,-1.4376,-1.3862,-1.3338,-1.3243,-1.3032,-1.2628,-1.2192,-1.1904,-1.1514,-1.116,-1.0755,-1.0161,-0.8974,-0.8056,-0.7621,-0.7287,-0.7008,-0.6945,-0.6884,-0.6823,-0.6558,-0.6374,-0.6352,-0.6254,-0.6086,-0.604,-0.6106,-0.6219,-0.6219,-0.6101,-0.6061,-0.596,-0.5795,-2.4535,-2.4375,-2.4247,-2.4173,-2.4154,-2.3981,-2.3941,-2.3961,-2.3566,-2.3312,-2.3122,-2.2833,-2.2552,-2.231,-2.2405,-2.2015,-2.1308,-2.1103,-2.0728,-2.027,-1.9854,-1.9696,-1.9752,-1.9573,-1.9737,-2.0296,-2.0777,-2.1451,-2.2163,-2.231,-2.2321,-2.2394,-2.2422,-2.2405,-2.2405,-2.2525,-2.2525,-2.2426,-2.2525,-2.2552,-2.2409,-2.2003,-2.1559,-2.1193,-1.9824,-1.8652,-1.791,-1.698,-1.6365,-1.6039,-1.5524,-1.5413,-1.568,-1.5468,-1.5266,-1.522,-1.5152,-1.5017,-1.472,-1.4628,-1.4398,-1.3836,-1.3658,-1.3573,-1.3525,-1.3324,-1.3478,-1.4093,-1.4697,-1.4789,-1.4316,-1.3647,-1.3266,-1.3362,-1.3228,-1.319,-1.3382,-1.3621,-1.38,-1.3836,-1.3894,-1.3858,-1.3763,-1.3344,-1.3152,-1.321,-1.3007,-1.2813,-1.2715,-1.2471,-1.2199,-1.1992,-1.1531,-1.1033,-1.0948,-0.9408,-0.8346,-0.7582,-0.7182,-0.7051,-0.6968,-0.701,-0.687,-0.6586,-0.6504,-0.6298,-0.6092,-0.596,-0.6091,-0.631,-0.6329,-0.6241,-0.6143,-0.6094,-0.5893,-2.4524,-2.4523,-2.4107,-2.3896,-2.3876,-2.3707,-2.3664,-2.3678,-2.3584,-2.3445,-2.331,-2.3264,-2.3181,-2.2999,-2.2902,-2.2454,-2.1773,-2.1247,-2.0712,-2.0289,-1.9945,-1.9945,-2.007,-2.0,-2.0246,-2.0797,-2.1374,-2.185,-2.2242,-2.2327,-2.2327,-2.2327,-2.2349,-2.2377,-2.2405,-2.2569,-2.2685,-2.2712,-2.2738,-2.2747,-2.2668,-2.2101,-2.1751,-2.1554,-2.0581,-1.9594,-1.8797,-1.7933,-1.7242,-1.6778,-1.6436,-1.6175,-1.6044,-1.5944,-1.5856,-1.5869,-1.5957,-1.5824,-1.5389,-1.5197,-1.4858,-1.4176,-1.3941,-1.3858,-1.3858,-1.3716,-1.3952,-1.4455,-1.4697,-1.48,-1.4512,-1.3894,-1.3563,-1.3668,-1.3467,-1.342,-1.3716,-1.3941,-1.4176,-1.4305,-1.4118,-1.3905,-1.3726,-1.3258,-1.3162,-1.3354,-1.3094,-1.2949,-1.2997,-1.2803,-1.2618,-1.2452,-1.1895,-1.1486,-1.1123,-1.0019,-0.9298,-0.8602,-0.7567,-0.7308,-0.7206,-0.7259,-0.7145,-0.6817,-0.6568,-0.6349,-0.6135,-0.5997,-0.613,-0.6429,-0.6427,-0.6385,-0.6325,-0.6291,-0.6048,-2.4707,-2.5181,-2.4203,-2.3801,-2.3797,-2.3607,-2.3383,-2.3347,-2.3754,-2.3831,-2.3702,-2.4154,-2.4288,-2.432,-2.3981,-2.353,-2.2791,-2.1871,-2.1022,-2.0373,-2.005,-2.0254,-2.0774,-2.059,-2.0988,-2.1859,-2.2195,-2.2372,-2.2502,-2.2451,-2.2429,-2.2378,-2.2327,-2.2366,-2.2405,-2.2642,-2.2842,-2.2893,-2.2893,-2.2893,-2.2782,-2.2022,-2.1598,-2.143,-2.0379,-1.9464,-1.8999,-1.8185,-1.7598,-1.7227,-1.7157,-1.7018,-1.6723,-1.6625,-1.6595,-1.6509,-1.6637,-1.6484,-1.6114,-1.5908,-1.5344,-1.449,-1.4176,-1.4118,-1.4025,-1.3894,-1.4082,-1.4731,-1.4651,-1.443,-1.4373,-1.4104,-1.3915,-1.3962,-1.3668,-1.3563,-1.361,-1.3836,-1.4258,-1.4731,-1.4547,-1.4547,-1.4605,-1.3821,-1.3296,-1.3563,-1.3505,-1.3372,-1.342,-1.3218,-1.289,-1.2569,-1.2199,-1.1822,-1.1202,-1.0557,-1.021,-0.971,-0.8553,-0.7811,-0.7729,-0.7706,-0.7535,-0.7218,-0.6807,-0.6573,-0.6513,-0.6354,-0.6282,-0.6439,-0.6448,-0.6515,-0.6427,-0.6349,-0.6178,-2.5783,-2.5737,-2.481,-2.4377,-2.4283,-2.3772,-2.3424,-2.3329,-2.3781,-2.3908,-2.3898,-2.4274,-2.4496,-2.4506,-2.438,-2.4123,-2.3602,-2.2747,-2.1794,-2.0873,-2.0778,-2.1082,-2.1512,-2.1693,-2.2281,-2.3219,-2.3661,-2.3819,-2.3708,-2.3266,-2.3054,-2.2987,-2.2604,-2.247,-2.259,-2.2782,-2.2952,-2.3109,-2.2977,-2.2799,-2.2537,-2.1866,-2.1354,-2.1039,-2.0085,-1.9398,-1.9221,-1.8344,-1.7747,-1.7625,-1.7352,-1.7115,-1.6964,-1.6921,-1.6866,-1.6879,-1.6866,-1.6782,-1.6527,-1.6324,-1.5888,-1.5175,-1.4994,-1.4823,-1.4547,-1.4547,-1.464,-1.4834,-1.4558,-1.4326,-1.415,-1.4067,-1.3926,-1.3716,-1.3668,-1.3515,-1.3457,-1.3826,-1.4247,-1.449,-1.449,-1.4222,-1.3763,-1.3162,-1.3276,-1.3457,-1.3409,-1.3467,-1.3515,-1.342,-1.3266,-1.288,-1.2482,-1.1999,-1.1423,-1.0831,-1.0391,-0.9991,-0.9047,-0.8315,-0.8209,-0.8119,-0.7926,-0.7691,-0.7248,-0.6986,-0.69,-0.6798,-0.6748,-0.673,-0.6932,-0.6805,-0.6583,-0.6396,-0.6279,-2.6222,-2.6033,-2.5374,-2.4766,-2.4284,-2.3998,-2.3673,-2.3406,-2.3876,-2.4033,-2.4016,-2.4479,-2.4904,-2.5159,-2.5217,-2.5139,-2.4907,-2.4357,-2.3412,-2.2231,-2.1746,-2.2054,-2.2588,-2.2703,-2.3059,-2.3666,-2.3981,-2.4245,-2.4456,-2.3789,-2.3393,-2.3304,-2.279,-2.2561,-2.2721,-2.2968,-2.3182,-2.3188,-2.306,-2.2764,-2.2303,-2.1718,-2.1182,-2.0763,-1.9925,-1.9465,-1.9354,-1.8553,-1.8055,-1.8016,-1.7814,-1.7598,-1.7421,-1.738,-1.7338,-1.7297,-1.7118,-1.6951,-1.6866,-1.6527,-1.6151,-1.5611,-1.5591,-1.5501,-1.5175,-1.5232,-1.5142,-1.496,-1.464,-1.4326,-1.4057,-1.3821,-1.3716,-1.3573,-1.3515,-1.3515,-1.3457,-1.3789,-1.4212,-1.4305,-1.4326,-1.3905,-1.3525,-1.319,-1.3266,-1.3266,-1.3372,-1.3314,-1.3409,-1.3351,-1.316,-1.2929,-1.2608,-1.2166,-1.1719,-1.1158,-1.0608,-1.0051,-0.948,-0.8956,-0.8633,-0.862,-0.8495,-0.8263,-0.7949,-0.7816,-0.7682,-0.7555,-0.7524,-0.7467,-0.7488,-0.7085,-0.6849,-0.6616,-0.646,-2.6231,-2.6171,-2.5965,-2.5122,-2.407,-2.4427,-2.4129,-2.3499,-2.3978,-2.4244,-2.4278,-2.4785,-2.5595,-2.6283,-2.6254,-2.6278,-2.651,-2.6068,-2.5455,-2.4472,-2.3579,-2.3389,-2.4029,-2.4059,-2.4123,-2.4101,-2.4005,-2.4171,-2.4717,-2.4015,-2.3456,-2.3413,-2.3,-2.2747,-2.2884,-2.3253,-2.3324,-2.3188,-2.3109,-2.2747,-2.2158,-2.1612,-2.1119,-2.0761,-1.9925,-1.9428,-1.9302,-1.8774,-1.8439,-1.8478,-1.8347,-1.8149,-1.8069,-1.7963,-1.7788,-1.7747,-1.731,-1.7118,-1.7008,-1.6672,-1.6126,-1.5788,-1.5844,-1.5788,-1.57,-1.5623,-1.5501,-1.513,-1.4766,-1.4362,-1.3952,-1.361,-1.342,-1.3372,-1.3382,-1.3478,-1.3716,-1.381,-1.3952,-1.4222,-1.4093,-1.381,-1.3789,-1.3447,-1.3362,-1.3372,-1.342,-1.3362,-1.3208,-1.317,-1.288,-1.2745,-1.2608,-1.2264,-1.1859,-1.1601,-1.1099,-1.0694,-1.0131,-0.9666,-0.9169,-0.9044,-0.9181,-0.8984,-0.8776,-0.8669,-0.8583,-0.8572,-0.8504,-0.858,-0.8221,-0.7575,-0.7209,-0.6991,-0.6625,-2.7777,-2.7593,-2.6968,-2.6443,-2.5925,-2.5176,-2.4466,-2.4123,-2.4214,-2.4515,-2.4851,-2.5032,-2.5889,-2.7039,-2.6597,-2.665,-2.7005,-2.6696,-2.6685,-2.6648,-2.5917,-2.5468,-2.5747,-2.6234,-2.6474,-2.6372,-2.6014,-2.6038,-2.5647,-2.4893,-2.4253,-2.3687,-2.3354,-2.3151,-2.3289,-2.3277,-2.3348,-2.3312,-2.2985,-2.2478,-2.1877,-2.1486,-2.1023,-2.0426,-1.9904,-1.956,-1.9391,-1.8812,-1.8439,-1.8282,-1.8109,-1.8043,-1.7909,-1.7639,-1.7516,-1.7516,-1.7214,-1.6951,-1.6879,-1.6824,-1.6429,-1.592,-1.6194,-1.612,-1.5712,-1.5944,-1.5635,-1.4994,-1.449,-1.4107,-1.3552,-1.3314,-1.3228,-1.3162,-1.321,-1.3354,-1.3631,-1.3716,-1.3763,-1.3952,-1.3941,-1.3789,-1.3552,-1.3505,-1.3467,-1.3467,-1.3467,-1.3467,-1.3266,-1.3112,-1.2929,-1.2832,-1.2696,-1.2344,-1.2039,-1.1873,-1.1625,-1.1275,-1.0872,-1.0466,-0.9987,-0.9548,-0.9822,-0.9955,-0.9699,-0.9581,-0.9692,-0.9795,-0.9782,-0.9683,-0.9052,-0.8461,-0.7823,-0.7481,-0.6964,-2.8129,-2.7692,-2.7567,-2.7121,-2.6425,-2.5533,-2.5084,-2.4938,-2.4605,-2.4837,-2.535,-2.5506,-2.6242,-2.7333,-2.7049,-2.7299,-2.7857,-2.7455,-2.7423,-2.7584,-2.7278,-2.6841,-2.6592,-2.704,-2.7227,-2.7227,-2.7068,-2.6874,-2.6631,-2.5988,-2.524,-2.4565,-2.4038,-2.3661,-2.3289,-2.3307,-2.3188,-2.3056,-2.2616,-2.2068,-2.152,-2.1179,-2.0698,-2.0135,-1.9762,-1.945,-1.904,-1.8517,-1.8202,-1.8083,-1.8043,-1.7909,-1.7625,-1.7393,-1.7297,-1.7352,-1.6879,-1.6667,-1.6964,-1.6964,-1.6795,-1.6612,-1.6765,-1.6607,-1.6337,-1.6337,-1.5888,-1.4994,-1.4628,-1.4061,-1.3399,-1.318,-1.3104,-1.3027,-1.3085,-1.322,-1.3488,-1.344,-1.3488,-1.3621,-1.3695,-1.3684,-1.3409,-1.3515,-1.3515,-1.3525,-1.3573,-1.3467,-1.3314,-1.3112,-1.3016,-1.2977,-1.288,-1.2628,-1.2472,-1.2365,-1.2089,-1.1783,-1.1525,-1.1174,-1.0856,-1.0332,-1.059,-1.0816,-1.0637,-1.0552,-1.072,-1.0839,-1.0747,-1.0487,-0.9894,-0.9277,-0.8698,-0.7828,-0.7346,-2.7861,-2.7192,-2.7879,-2.7371,-2.6247,-2.5979,-2.5925,-2.5783,-2.5169,-2.5301,-2.5904,-2.6069,-2.6664,-2.752,-2.7538,-2.7966,-2.8601,-2.8183,-2.8066,-2.8063,-2.801,-2.7776,-2.7017,-2.7108,-2.7189,-2.7126,-2.6848,-2.7028,-2.7058,-2.669,-2.6093,-2.5277,-2.4749,-2.4145,-2.3545,-2.334,-2.3028,-2.2616,-2.2147,-2.1718,-2.126,-2.0909,-2.0413,-1.9909,-1.9508,-1.9116,-1.8634,-1.8216,-1.8003,-1.8018,-1.8098,-1.7747,-1.7295,-1.7199,-1.7115,-1.7031,-1.6582,-1.6582,-1.7131,-1.6964,-1.6964,-1.7173,-1.7295,-1.7267,-1.6863,-1.6522,-1.592,-1.4971,-1.4744,-1.4061,-1.3372,-1.3113,-1.3075,-1.2978,-1.3027,-1.3075,-1.3123,-1.3123,-1.321,-1.3372,-1.3409,-1.3457,-1.3563,-1.361,-1.361,-1.3573,-1.3573,-1.3515,-1.3314,-1.316,-1.3112,-1.317,-1.3122,-1.3016,-1.2909,-1.2851,-1.254,-1.2215,-1.2039,-1.1832,-1.1774,-1.1513,-1.1589,-1.1657,-1.1526,-1.1574,-1.1692,-1.172,-1.1616,-1.1334,-1.0736,-1.012,-0.947,-0.8443,-0.7716,-2.8411,-2.7977,-2.8128,-2.8004,-2.7594,-2.7014,-2.6728,-2.6675,-2.5908,-2.6097,-2.6705,-2.6393,-2.7073,-2.8439,-2.784,-2.7809,-2.8543,-2.8434,-2.8282,-2.8416,-2.9026,-2.8748,-2.8148,-2.8031,-2.811,-2.8004,-2.7852,-2.7483,-2.6996,-2.6707,-2.6016,-2.5195,-2.5152,-2.4655,-2.3946,-2.3509,-2.3106,-2.2477,-2.1878,-2.145,-2.1199,-2.076,-2.0308,-1.9797,-1.9288,-1.8889,-1.8556,-1.8242,-1.8303,-1.8325,-1.7942,-1.7552,-1.729,-1.7002,-1.6808,-1.668,-1.6637,-1.6539,-1.6655,-1.7047,-1.7269,-1.7173,-1.7337,-1.7238,-1.6748,-1.6293,-1.5599,-1.4778,-1.4236,-1.3732,-1.3152,-1.2978,-1.2978,-1.3027,-1.3075,-1.3172,-1.3296,-1.3238,-1.3286,-1.3372,-1.342,-1.3457,-1.3573,-1.3621,-1.361,-1.361,-1.361,-1.3563,-1.3409,-1.3208,-1.3266,-1.3314,-1.3266,-1.317,-1.3218,-1.3112,-1.288,-1.2657,-1.2501,-1.2393,-1.2384,-1.2325,-1.2267,-1.2374,-1.2463,-1.2491,-1.253,-1.2209,-1.2003,-1.1792,-1.1569,-1.0914,-1.0132,-0.9077,-0.8309,-2.8451,-2.7766,-2.7893,-2.795,-2.7872,-2.7308,-2.7263,-2.7406,-2.6813,-2.6954,-2.7612,-2.7423,-2.7864,-2.8688,-2.8337,-2.8463,-2.8907,-2.8882,-2.8717,-2.8777,-2.9219,-2.9101,-2.8617,-2.861,-2.8676,-2.8327,-2.7946,-2.7483,-2.7139,-2.6924,-2.6586,-2.5634,-2.5669,-2.4934,-2.3991,-2.3602,-2.2983,-2.2202,-2.1538,-2.1151,-2.1021,-2.0559,-2.01,-1.9632,-1.9139,-1.876,-1.8503,-1.8492,-1.8549,-1.858,-1.8279,-1.7904,-1.7669,-1.7225,-1.6833,-1.6552,-1.6565,-1.668,-1.685,-1.7102,-1.7406,-1.7406,-1.7461,-1.717,-1.6833,-1.6293,-1.5611,-1.4789,-1.4154,-1.361,-1.3065,-1.3055,-1.3055,-1.3104,-1.32,-1.3286,-1.3372,-1.3314,-1.3362,-1.3457,-1.3515,-1.3515,-1.3573,-1.3621,-1.361,-1.361,-1.361,-1.3563,-1.3563,-1.3409,-1.342,-1.3467,-1.3362,-1.3362,-1.3467,-1.3409,-1.317,-1.3045,-1.29,-1.289,-1.288,-1.2822,-1.2812,-1.288,-1.2939,-1.3084,-1.3074,-1.2706,-1.2502,-1.2482,-1.2206,-1.1619,-1.0821,-0.9809,-0.9227,-2.8394,-2.7368,-2.7574,-2.7642,-2.7578,-2.7343,-2.7576,-2.8049,-2.7643,-2.7749,-2.8358,-2.8637,-2.8573,-2.8743,-2.8773,-2.9112,-2.9197,-2.9223,-2.881,-2.8693,-2.9218,-2.9149,-2.8847,-2.8963,-2.8772,-2.7959,-2.7654,-2.743,-2.74,-2.7435,-2.6931,-2.6368,-2.6251,-2.5438,-2.4151,-2.3541,-2.3123,-2.2252,-2.1342,-2.0942,-2.0893,-2.0426,-1.9929,-1.9768,-1.9257,-1.9142,-1.903,-1.8988,-1.8932,-1.8995,-1.9003,-1.8935,-1.864,-1.7931,-1.7333,-1.6985,-1.7204,-1.7295,-1.7372,-1.7529,-1.7792,-1.7881,-1.7767,-1.7336,-1.6853,-1.6372,-1.5688,-1.4789,-1.4025,-1.3525,-1.3162,-1.32,-1.3228,-1.3266,-1.3409,-1.3505,-1.3515,-1.3457,-1.3563,-1.3563,-1.3573,-1.3573,-1.3621,-1.361,-1.361,-1.361,-1.361,-1.361,-1.361,-1.3563,-1.3563,-1.3515,-1.3409,-1.3286,-1.3334,-1.342,-1.3218,-1.319,-1.3104,-1.3152,-1.318,-1.3122,-1.3064,-1.3266,-1.3372,-1.3478,-1.342,-1.316,-1.3064,-1.318,-1.2686,-1.1832,-1.1133,-1.0482,-1.0028,-2.8918,-2.8092,-2.7503,-2.7321,-2.7409,-2.7601,-2.7773,-2.7964,-2.8058,-2.834,-2.8601,-2.8687,-2.8785,-2.8834,-2.8712,-2.8407,-2.8299,-2.8508,-2.8585,-2.8576,-2.9188,-2.9383,-2.9283,-2.9488,-2.9058,-2.8065,-2.7612,-2.7382,-2.7066,-2.7017,-2.6835,-2.6505,-2.6371,-2.5681,-2.4877,-2.4263,-2.3564,-2.271,-2.1714,-2.1198,-2.0989,-2.0491,-2.0212,-2.028,-1.9745,-1.9759,-2.0145,-1.9806,-1.974,-2.0368,-1.988,-1.9886,-1.9857,-1.9197,-1.8668,-1.8466,-1.8649,-1.8508,-1.8096,-1.8508,-1.8275,-1.7932,-1.7792,-1.7455,-1.6733,-1.6196,-1.5417,-1.441,-1.3672,-1.3298,-1.318,-1.3443,-1.3498,-1.3536,-1.3752,-1.3962,-1.3947,-1.3879,-1.3815,-1.3762,-1.3672,-1.361,-1.361,-1.361,-1.361,-1.361,-1.361,-1.361,-1.361,-1.3563,-1.3467,-1.342,-1.3362,-1.3238,-1.3162,-1.3238,-1.318,-1.3152,-1.3113,-1.3123,-1.3152,-1.318,-1.3228,-1.3372,-1.3467,-1.3515,-1.3467,-1.3409,-1.3324,-1.3238,-1.2618,-1.2003,-1.1592,-1.1124,-1.0344,-2.8596,-2.7232,-2.7011,-2.6989,-2.7083,-2.7444,-2.7654,-2.78,-2.8083,-2.8299,-2.8404,-2.8551,-2.8594,-2.8507,-2.8326,-2.8074,-2.8122,-2.8624,-2.8939,-2.921,-2.9711,-2.9757,-2.9519,-2.985,-2.9218,-2.8404,-2.7958,-2.7402,-2.6657,-2.6657,-2.6589,-2.6435,-2.633,-2.5912,-2.5245,-2.4746,-2.4149,-2.3374,-2.2622,-2.2003,-2.1714,-2.0915,-2.0643,-2.057,-2.046,-2.0531,-2.0903,-2.1064,-2.0898,-2.1072,-2.0986,-2.095,-2.0832,-2.0489,-1.9887,-1.9448,-1.9539,-1.936,-1.8645,-1.8768,-1.8482,-1.8164,-1.7953,-1.7533,-1.6787,-1.6021,-1.5004,-1.41,-1.4031,-1.3882,-1.3729,-1.3983,-1.4129,-1.4077,-1.4238,-1.4359,-1.4302,-1.4158,-1.4058,-1.3976,-1.3765,-1.3693,-1.361,-1.361,-1.361,-1.361,-1.361,-1.361,-1.361,-1.3515,-1.342,-1.3467,-1.342,-1.3382,-1.3306,-1.3334,-1.3409,-1.3382,-1.3306,-1.3306,-1.3258,-1.3324,-1.3266,-1.3266,-1.3362,-1.3478,-1.342,-1.3314,-1.3324,-1.3296,-1.2832,-1.2433,-1.2144,-1.1713,-1.0871,-2.8201,-2.6455,-2.6536,-2.664,-2.6741,-2.7147,-2.7365,-2.7565,-2.7869,-2.802,-2.8065,-2.8264,-2.8246,-2.8073,-2.7994,-2.8032,-2.827,-2.8905,-2.9319,-2.9711,-2.998,-2.9914,-2.9861,-2.9772,-2.9621,-2.8805,-2.8622,-2.7848,-2.6897,-2.6699,-2.653,-2.6362,-2.626,-2.5992,-2.5458,-2.5143,-2.4729,-2.4298,-2.3701,-2.3192,-2.241,-2.1664,-2.1214,-2.1332,-2.1351,-2.1629,-2.2309,-2.2196,-2.2129,-2.2076,-2.1928,-2.1894,-2.1589,-2.1458,-2.0914,-2.0111,-2.0057,-1.9763,-1.9368,-1.9146,-1.9114,-1.8669,-1.7969,-1.7664,-1.7159,-1.613,-1.4703,-1.4117,-1.4256,-1.4593,-1.4389,-1.47,-1.485,-1.4857,-1.4817,-1.4836,-1.4833,-1.4757,-1.4541,-1.4342,-1.3948,-1.3765,-1.3683,-1.361,-1.361,-1.361,-1.361,-1.361,-1.361,-1.3467,-1.342,-1.3478,-1.3478,-1.3478,-1.3488,-1.3583,-1.3742,-1.3873,-1.38,-1.3763,-1.361,-1.3505,-1.3409,-1.3276,-1.3238,-1.3296,-1.3286,-1.3276,-1.3238,-1.32,-1.3045,-1.2764,-1.2302,-1.1855,-1.1175,-2.8272,-2.7135,-2.6488,-2.6293,-2.6418,-2.6774,-2.7019,-2.7213,-2.7565,-2.7742,-2.7695,-2.7789,-2.78,-2.7747,-2.79,-2.7828,-2.7992,-2.8394,-2.8971,-2.9483,-2.9596,-2.9862,-3.0203,-3.0377,-2.9945,-2.9268,-2.9185,-2.8456,-2.745,-2.7188,-2.6806,-2.6372,-2.6222,-2.612,-2.5905,-2.5508,-2.5077,-2.4794,-2.4012,-2.3124,-2.2407,-2.2182,-2.2456,-2.2804,-2.3074,-2.3431,-2.3943,-2.3668,-2.3275,-2.3368,-2.2669,-2.2314,-2.2081,-2.1636,-2.1589,-2.1485,-2.1437,-2.1211,-2.0495,-2.0234,-1.9812,-1.919,-1.8609,-1.835,-1.751,-1.6514,-1.541,-1.5247,-1.5067,-1.4881,-1.5008,-1.5369,-1.5461,-1.56,-1.572,-1.5759,-1.569,-1.5074,-1.4878,-1.4626,-1.425,-1.3931,-1.3707,-1.3683,-1.361,-1.361,-1.361,-1.361,-1.3658,-1.361,-1.3478,-1.3525,-1.38,-1.3847,-1.3752,-1.3858,-1.3988,-1.4236,-1.4201,-1.4165,-1.3884,-1.3647,-1.343,-1.3296,-1.3258,-1.3162,-1.3142,-1.3142,-1.3152,-1.3104,-1.3007,-1.2666,-1.2234,-1.1828,-1.1569,-2.8465,-2.7251,-2.6501,-2.6222,-2.633,-2.6505,-2.6624,-2.6808,-2.71,-2.7255,-2.7286,-2.7457,-2.7413,-2.7388,-2.7521,-2.783,-2.8077,-2.8392,-2.8927,-2.9365,-2.941,-2.9572,-2.9815,-2.9737,-2.9461,-2.984,-2.9234,-2.8572,-2.7876,-2.7433,-2.6916,-2.6319,-2.6203,-2.6187,-2.6203,-2.5905,-2.5773,-2.5357,-2.4595,-2.3654,-2.3095,-2.2867,-2.2916,-2.3448,-2.384,-2.4531,-2.4874,-2.4642,-2.4104,-2.4044,-2.3289,-2.2709,-2.2342,-2.1983,-2.1793,-2.1492,-2.1541,-2.1356,-2.107,-2.086,-2.0214,-1.9485,-1.8812,-1.8148,-1.7329,-1.6633,-1.5807,-1.5173,-1.5522,-1.5564,-1.5539,-1.5903,-1.605,-1.6194,-1.6327,-1.6314,-1.6115,-1.5517,-1.5049,-1.4805,-1.453,-1.421,-1.3941,-1.3834,-1.3788,-1.3705,-1.3658,-1.3668,-1.381,-1.3952,-1.3763,-1.3583,-1.3988,-1.434,-1.4165,-1.4118,-1.4269,-1.4433,-1.4444,-1.4362,-1.4082,-1.38,-1.3621,-1.3296,-1.3113,-1.3055,-1.3045,-1.3055,-1.3123,-1.3027,-1.2978,-1.2725,-1.248,-1.2578,-1.2274,-2.8522,-2.7533,-2.6766,-2.6604,-2.6776,-2.6645,-2.6764,-2.7038,-2.73,-2.7369,-2.7317,-2.7448,-2.7332,-2.7249,-2.7456,-2.7802,-2.8458,-2.8623,-2.913,-2.9452,-2.9528,-2.9629,-2.9729,-2.9466,-2.9543,-3.0418,-2.9069,-2.8439,-2.8158,-2.7644,-2.6916,-2.6236,-2.6203,-2.6203,-2.6203,-2.6154,-2.6104,-2.6059,-2.5096,-2.4447,-2.4149,-2.3816,-2.3851,-2.4165,-2.4654,-2.5278,-2.5591,-2.5182,-2.4752,-2.4725,-2.3966,-2.3283,-2.2701,-2.2337,-2.1877,-2.1505,-2.1277,-2.1313,-2.1151,-2.0885,-2.0355,-1.9749,-1.8934,-1.8182,-1.6798,-1.6458,-1.6321,-1.5579,-1.5998,-1.6165,-1.6171,-1.6493,-1.6645,-1.6696,-1.6726,-1.668,-1.6512,-1.5996,-1.5572,-1.53,-1.4987,-1.45,-1.4281,-1.4118,-1.3989,-1.3842,-1.3752,-1.3716,-1.3952,-1.4233,-1.4233,-1.4093,-1.4547,-1.4892,-1.4755,-1.4663,-1.472,-1.4766,-1.4766,-1.4582,-1.4305,-1.4071,-1.3836,-1.3525,-1.3113,-1.3113,-1.3238,-1.3113,-1.3036,-1.2988,-1.2929,-1.2929,-1.2881,-1.2929,-1.252,-2.8445,-2.8279,-2.7533,-2.7533,-2.8063,-2.7574,-2.7711,-2.7977,-2.8306,-2.831,-2.8112,-2.7794,-2.766,-2.7998,-2.767,-2.7865,-2.8653,-2.8692,-2.9065,-2.9484,-2.9766,-2.975,-2.9707,-2.955,-2.9486,-3.0063,-2.8804,-2.8174,-2.8196,-2.7446,-2.6816,-2.6303,-2.6203,-2.6203,-2.6203,-2.6203,-2.6258,-2.6197,-2.5547,-2.531,-2.5244,-2.5159,-2.5209,-2.5394,-2.6034,-2.6522,-2.6452,-2.5684,-2.5424,-2.5661,-2.4652,-2.3853,-2.3226,-2.2818,-2.2273,-2.1532,-2.1339,-2.1362,-2.1189,-2.0881,-2.0693,-2.037,-1.9492,-1.804,-1.6749,-1.6914,-1.6736,-1.6259,-1.6507,-1.6641,-1.6834,-1.7191,-1.7247,-1.7137,-1.7003,-1.6961,-1.6841,-1.6634,-1.618,-1.5844,-1.5413,-1.4914,-1.4805,-1.469,-1.4291,-1.411,-1.4129,-1.4082,-1.4316,-1.4558,-1.4686,-1.4766,-1.5232,-1.5445,-1.5389,-1.5344,-1.5445,-1.549,-1.549,-1.5073,-1.4606,-1.4376,-1.4071,-1.3752,-1.3392,-1.3392,-1.3392,-1.3296,-1.3162,-1.2978,-1.2891,-1.2891,-1.2686,-1.2578,-1.1918,-2.8417,-2.8322,-2.7582,-2.7181,-2.7081,-2.7732,-2.767,-2.7284,-2.8035,-2.8189,-2.7807,-2.7092,-2.7088,-2.7561,-2.7738,-2.7972,-2.8608,-2.8489,-2.8667,-2.8623,-2.8685,-2.8966,-2.8936,-2.8854,-2.8459,-2.9197,-2.8125,-2.7363,-2.7599,-2.7031,-2.6634,-2.627,-2.6203,-2.6203,-2.6203,-2.6239,-2.6347,-2.6285,-2.5866,-2.5495,-2.5639,-2.5609,-2.5609,-2.5676,-2.6269,-2.659,-2.6452,-2.5631,-2.567,-2.5617,-2.4938,-2.4271,-2.3765,-2.3426,-2.2797,-2.1889,-2.1732,-2.1588,-2.1118,-2.0629,-1.9991,-1.898,-1.8147,-1.7301,-1.6637,-1.6797,-1.6751,-1.6637,-1.6705,-1.6818,-1.7078,-1.7357,-1.7567,-1.7368,-1.7256,-1.7145,-1.6968,-1.6727,-1.6528,-1.6081,-1.5685,-1.5258,-1.5265,-1.5282,-1.4833,-1.4435,-1.4463,-1.4501,-1.4686,-1.4926,-1.5096,-1.5355,-1.5812,-1.6076,-1.6051,-1.6107,-1.6132,-1.612,-1.6076,-1.5478,-1.4892,-1.4479,-1.4165,-1.3894,-1.3705,-1.361,-1.3563,-1.3467,-1.3334,-1.3113,-1.2978,-1.2842,-1.2578,-1.2274,-1.1769,-2.8434,-2.8334,-2.7831,-2.733,-2.7015,-2.7942,-2.7942,-2.7446,-2.8274,-2.8439,-2.786,-2.723,-2.7396,-2.7976,-2.7711,-2.8098,-2.8499,-2.8279,-2.8046,-2.7902,-2.7854,-2.8169,-2.8273,-2.8222,-2.8077,-2.8563,-2.7462,-2.6617,-2.7334,-2.6551,-2.6303,-2.622,-2.6203,-2.6203,-2.6239,-2.6345,-2.6521,-2.6472,-2.64,-2.5978,-2.6202,-2.6173,-2.6013,-2.6031,-2.6455,-2.6619,-2.6405,-2.5816,-2.5584,-2.5686,-2.5347,-2.4567,-2.4155,-2.3853,-2.3379,-2.2617,-2.2126,-2.2046,-2.1288,-2.0267,-1.9226,-1.807,-1.7435,-1.6955,-1.6684,-1.6591,-1.6545,-1.6591,-1.6694,-1.6864,-1.7078,-1.7312,-1.7379,-1.7155,-1.72,-1.7145,-1.68,-1.649,-1.6465,-1.6265,-1.6045,-1.601,-1.5829,-1.5836,-1.5373,-1.4981,-1.4949,-1.5006,-1.5096,-1.5322,-1.5546,-1.5888,-1.6293,-1.6552,-1.6765,-1.6595,-1.6423,-1.6219,-1.612,-1.5647,-1.5096,-1.4674,-1.4305,-1.4118,-1.3931,-1.3836,-1.3742,-1.3705,-1.3478,-1.32,-1.3065,-1.2881,-1.2627,-1.2372,-1.2215,-2.8373,-2.8415,-2.8318,-2.8296,-2.8141,-2.8373,-2.8704,-2.8837,-2.9036,-2.9102,-2.892,-2.8357,-2.8771,-2.9362,-2.8217,-2.8169,-2.8503,-2.7876,-2.738,-2.7303,-2.7452,-2.7964,-2.8179,-2.8123,-2.7915,-2.853,-2.7462,-2.6551,-2.7147,-2.6535,-2.6236,-2.627,-2.6319,-2.6286,-2.6272,-2.6589,-2.6775,-2.6841,-2.7158,-2.7075,-2.6914,-2.6865,-2.6703,-2.6506,-2.642,-2.6476,-2.6295,-2.5615,-2.5456,-2.5756,-2.55,-2.467,-2.3743,-2.4399,-2.3582,-2.1574,-2.2153,-2.2044,-2.13,-2.0005,-1.872,-1.7567,-1.6944,-1.6842,-1.6534,-1.6431,-1.6431,-1.6591,-1.6705,-1.6807,-1.692,-1.7032,-1.7043,-1.6987,-1.7043,-1.6976,-1.6631,-1.644,-1.6425,-1.6436,-1.6824,-1.7005,-1.6673,-1.6398,-1.5892,-1.5589,-1.5516,-1.5501,-1.5513,-1.5635,-1.5856,-1.625,-1.668,-1.6976,-1.7102,-1.6892,-1.668,-1.6466,-1.6132,-1.5691,-1.5187,-1.472,-1.4444,-1.4305,-1.3978,-1.3705,-1.38,-1.3894,-1.3563,-1.32,-1.3017,-1.2832,-1.2627,-1.2421,-1.2274,-2.6965,-2.6991,-2.7479,-2.7682,-2.7843,-2.9218,-2.9433,-2.8704,-2.829,-2.8274,-2.8506,-2.7997,-2.8141,-2.8523,-2.843,-2.8053,-2.8194,-2.7944,-2.7334,-2.6688,-2.7206,-2.7982,-2.8231,-2.7943,-2.7752,-2.7997,-2.7098,-2.6316,-2.6535,-2.6327,-2.625,-2.6253,-2.6611,-2.6617,-2.6521,-2.6716,-2.7039,-2.6826,-2.6939,-2.7004,-2.6923,-2.7023,-2.6909,-2.6536,-2.6208,-2.6085,-2.6005,-2.5274,-2.5088,-2.5461,-2.5168,-2.4491,-2.3934,-2.4591,-2.3982,-2.2777,-2.3178,-2.263,-2.1403,-2.0013,-1.8759,-1.7575,-1.6782,-1.6736,-1.6545,-1.642,-1.6477,-1.6591,-1.6648,-1.6807,-1.7088,-1.7155,-1.7155,-1.6931,-1.6874,-1.6772,-1.6524,-1.6467,-1.6477,-1.6581,-1.6821,-1.7087,-1.7007,-1.6808,-1.6382,-1.5951,-1.5816,-1.5824,-1.5869,-1.5901,-1.6076,-1.6509,-1.6934,-1.731,-1.7434,-1.7131,-1.7005,-1.6879,-1.638,-1.5836,-1.5322,-1.4857,-1.4684,-1.4625,-1.4067,-1.3525,-1.3752,-1.3847,-1.3478,-1.32,-1.3017,-1.2832,-1.2676,-1.248,-1.2274,-2.6842,-2.7161,-2.7537,-2.7959,-2.8522,-2.9648,-2.945,-2.8456,-2.8092,-2.8058,-2.7909,-2.7516,-2.7618,-2.7947,-2.7859,-2.7816,-2.7823,-2.7514,-2.7282,-2.6596,-2.7237,-2.7951,-2.8081,-2.7726,-2.7729,-2.7722,-2.7049,-2.6323,-2.6194,-2.6379,-2.6276,-2.6346,-2.6967,-2.6885,-2.6867,-2.7168,-2.783,-2.7674,-2.7657,-2.743,-2.7366,-2.7216,-2.6996,-2.6324,-2.5897,-2.5643,-2.5314,-2.4838,-2.4341,-2.4697,-2.4597,-2.4104,-2.4026,-2.4161,-2.389,-2.3486,-2.3067,-2.2553,-2.1504,-2.0205,-1.8964,-1.7785,-1.7017,-1.667,-1.6644,-1.6467,-1.6452,-1.6534,-1.6591,-1.6694,-1.6864,-1.6987,-1.6931,-1.6705,-1.6658,-1.6488,-1.642,-1.6306,-1.6203,-1.6373,-1.6781,-1.7025,-1.7272,-1.711,-1.6835,-1.6426,-1.61,-1.61,-1.61,-1.6088,-1.6163,-1.6552,-1.6976,-1.7352,-1.7421,-1.7284,-1.7201,-1.7256,-1.6637,-1.5848,-1.5633,-1.5234,-1.5061,-1.4807,-1.3973,-1.3511,-1.3773,-1.3752,-1.3539,-1.3288,-1.2958,-1.2822,-1.2676,-1.2578,-1.2431,-2.7925,-2.8763,-2.851,-2.9141,-3.0129,-2.9748,-2.9152,-2.8506,-2.9036,-2.8522,-2.735,-2.7367,-2.7427,-2.7535,-2.7348,-2.7343,-2.7457,-2.7223,-2.7069,-2.7101,-2.7456,-2.7947,-2.8092,-2.7795,-2.7685,-2.7388,-2.6896,-2.6222,-2.6066,-2.6481,-2.6481,-2.6411,-2.7186,-2.7267,-2.7496,-2.8031,-2.8574,-2.8376,-2.7862,-2.764,-2.7538,-2.7521,-2.6897,-2.6188,-2.5706,-2.5473,-2.5119,-2.4511,-2.4162,-2.4194,-2.4189,-2.3392,-2.322,-2.3687,-2.306,-2.2604,-2.2361,-2.2153,-2.1657,-2.0417,-1.9429,-1.8354,-1.7522,-1.7168,-1.6863,-1.6557,-1.6341,-1.6378,-1.6446,-1.6394,-1.642,-1.6477,-1.6534,-1.6431,-1.6431,-1.6306,-1.6181,-1.6042,-1.591,-1.6105,-1.665,-1.6997,-1.7286,-1.7213,-1.7,-1.6421,-1.6044,-1.5969,-1.5969,-1.5969,-1.612,-1.6466,-1.6892,-1.7297,-1.7325,-1.7242,-1.7034,-1.7005,-1.6461,-1.582,-1.5658,-1.5556,-1.5236,-1.4725,-1.3793,-1.3479,-1.3828,-1.3903,-1.3796,-1.3448,-1.3116,-1.2939,-1.284,-1.29,-1.2871,-2.7199,-2.7734,-2.8196,-2.876,-2.942,-2.9928,-2.9781,-2.9152,-2.8853,-2.8146,-2.7317,-2.7317,-2.7104,-2.6944,-2.7588,-2.7391,-2.7286,-2.7271,-2.7149,-2.7288,-2.7674,-2.8059,-2.7939,-2.7592,-2.747,-2.7349,-2.6936,-2.6325,-2.6572,-2.6879,-2.6863,-2.6803,-2.7492,-2.7769,-2.8304,-2.9025,-2.8956,-2.867,-2.803,-2.7739,-2.7458,-2.7234,-2.6646,-2.6206,-2.5753,-2.5501,-2.5047,-2.464,-2.4268,-2.391,-2.336,-2.2801,-2.3459,-2.2958,-2.231,-2.2931,-2.2782,-2.2502,-2.1746,-2.1005,-2.0002,-1.8631,-1.7594,-1.7431,-1.7134,-1.6675,-1.6191,-1.6219,-1.6236,-1.6155,-1.6192,-1.6249,-1.6316,-1.6316,-1.6259,-1.6134,-1.5999,-1.5911,-1.578,-1.6069,-1.6605,-1.7025,-1.7313,-1.7323,-1.7053,-1.6369,-1.5969,-1.5949,-1.5881,-1.5881,-1.6001,-1.6337,-1.668,-1.7047,-1.724,-1.7199,-1.6934,-1.6637,-1.6279,-1.6071,-1.6033,-1.5854,-1.5377,-1.4807,-1.4053,-1.3848,-1.3975,-1.3991,-1.3942,-1.361,-1.3285,-1.315,-1.3074,-1.3195,-1.355,-2.7252,-2.7848,-2.8044,-2.849,-2.9192,-3.0094,-2.9963,-2.9052,-2.8539,-2.7997,-2.7317,-2.6965,-2.652,-2.6197,-2.7089,-2.73,-2.6503,-2.7578,-2.7823,-2.7796,-2.7997,-2.8389,-2.818,-2.7661,-2.7583,-2.7425,-2.7092,-2.6619,-2.6822,-2.69,-2.6854,-2.7167,-2.7816,-2.8361,-2.8842,-2.928,-2.956,-2.9125,-2.8543,-2.7973,-2.754,-2.7185,-2.6997,-2.6346,-2.5995,-2.5768,-2.5148,-2.4777,-2.4327,-2.3747,-2.2989,-2.2837,-2.3093,-2.2333,-2.2326,-2.2737,-2.2253,-2.2134,-2.1703,-2.0296,-1.9448,-1.8437,-1.7359,-1.6927,-1.6778,-1.6397,-1.6167,-1.6095,-1.6042,-1.5961,-1.6077,-1.6134,-1.6144,-1.6202,-1.6077,-1.6009,-1.5961,-1.5846,-1.5958,-1.6172,-1.659,-1.7042,-1.7286,-1.7338,-1.7159,-1.6596,-1.6194,-1.6098,-1.5957,-1.5836,-1.5925,-1.6132,-1.6436,-1.6765,-1.6956,-1.7196,-1.6964,-1.6823,-1.6831,-1.6644,-1.6468,-1.6003,-1.5441,-1.4976,-1.4413,-1.4387,-1.448,-1.4267,-1.4149,-1.3912,-1.382,-1.3777,-1.3698,-1.372,-1.4226,-2.783,-2.8658,-2.81,-2.8521,-2.948,-3.0013,-2.9599,-2.8489,-2.8323,-2.7914,-2.7151,-2.6465,-2.581,-2.5719,-2.6651,-2.6876,-2.6842,-2.7668,-2.8268,-2.835,-2.8544,-2.8763,-2.856,-2.8349,-2.7749,-2.7473,-2.7211,-2.6872,-2.6862,-2.7081,-2.7473,-2.7611,-2.8231,-2.8807,-2.9254,-2.9527,-2.9832,-3.0054,-2.9566,-2.9032,-2.8476,-2.8243,-2.787,-2.6626,-2.6473,-2.6473,-2.5288,-2.4642,-2.4313,-2.3761,-2.3221,-2.2951,-2.2352,-2.1997,-2.226,-2.2185,-2.1668,-2.1491,-2.1072,-1.9796,-1.8792,-1.7927,-1.7002,-1.6454,-1.6135,-1.6059,-1.5841,-1.6078,-1.6049,-1.6153,-1.6239,-1.6138,-1.6087,-1.6144,-1.6077,-1.5961,-1.5798,-1.5788,-1.5931,-1.6172,-1.6687,-1.7103,-1.7416,-1.7435,-1.719,-1.6737,-1.6486,-1.6305,-1.6245,-1.602,-1.6142,-1.6264,-1.6409,-1.6773,-1.7118,-1.7264,-1.708,-1.6995,-1.7131,-1.7026,-1.6799,-1.6165,-1.5457,-1.517,-1.4929,-1.4975,-1.4955,-1.5046,-1.5053,-1.4715,-1.4627,-1.4544,-1.4404,-1.4297,-1.4966,-2.7865,-2.8333,-2.8221,-2.8849,-2.9693,-2.9154,-2.9036,-2.9052,-2.7976,-2.7164,-2.6482,-2.5959,-2.5689,-2.5756,-2.6326,-2.658,-2.6993,-2.7458,-2.8207,-2.8348,-2.8525,-2.8558,-2.8306,-2.7922,-2.7593,-2.7524,-2.7349,-2.7309,-2.7583,-2.7915,-2.8264,-2.8451,-2.8952,-2.9345,-2.9763,-2.9963,-3.017,-3.0551,-3.0369,-2.9346,-2.8199,-2.7572,-2.6954,-2.6533,-2.654,-2.666,-2.5884,-2.5555,-2.5015,-2.4401,-2.3403,-2.2605,-2.1643,-2.1517,-2.1551,-2.1546,-2.1123,-2.0891,-2.0385,-1.931,-1.8295,-1.736,-1.6553,-1.6029,-1.5633,-1.5527,-1.5615,-1.5919,-1.6247,-1.6406,-1.641,-1.6151,-1.6039,-1.6087,-1.6107,-1.5944,-1.5712,-1.5788,-1.5826,-1.6321,-1.6775,-1.7174,-1.7451,-1.7461,-1.7159,-1.693,-1.6678,-1.657,-1.662,-1.6594,-1.6827,-1.6849,-1.6578,-1.6812,-1.7205,-1.7436,-1.7331,-1.7323,-1.7448,-1.7281,-1.7105,-1.6457,-1.5844,-1.5629,-1.5489,-1.5603,-1.5928,-1.6524,-1.6369,-1.5739,-1.5083,-1.4817,-1.4885,-1.4844,-1.5745,-2.8025,-2.8187,-2.8262,-2.8579,-2.8884,-2.8527,-2.8439,-2.8307,-2.7595,-2.6746,-2.601,-2.587,-2.5823,-2.5815,-2.6212,-2.6487,-2.6823,-2.7245,-2.77,-2.7989,-2.8152,-2.8186,-2.7875,-2.7677,-2.775,-2.7709,-2.7834,-2.7979,-2.8352,-2.881,-2.9132,-2.9361,-2.9717,-2.9995,-3.0368,-3.0384,-3.0384,-3.0568,-3.0651,-2.9593,-2.8107,-2.7747,-2.7606,-2.7393,-2.7052,-2.6984,-2.6542,-2.6168,-2.5734,-2.4993,-2.4007,-2.3378,-2.2509,-2.1864,-2.143,-2.1176,-2.0756,-2.0176,-1.9708,-1.8827,-1.7777,-1.6958,-1.5976,-1.5388,-1.5537,-1.541,-1.5439,-1.5861,-1.7183,-1.7511,-1.6746,-1.6335,-1.6284,-1.6311,-1.6163,-1.591,-1.5752,-1.5662,-1.5874,-1.628,-1.686,-1.7422,-1.7698,-1.7926,-1.7591,-1.7123,-1.6871,-1.6644,-1.6751,-1.7147,-1.7411,-1.7435,-1.7159,-1.7051,-1.7338,-1.7569,-1.7654,-1.7676,-1.7649,-1.7571,-1.7368,-1.6697,-1.6167,-1.6042,-1.6099,-1.6363,-1.6824,-1.7213,-1.6978,-1.6171,-1.5515,-1.4907,-1.5089,-1.5262,-1.6059,-2.8182,-2.8205,-2.8219,-2.8099,-2.791,-2.8072,-2.7869,-2.7363,-2.711,-2.6517,-2.5749,-2.6124,-2.5894,-2.5828,-2.5978,-2.6202,-2.648,-2.6799,-2.721,-2.7509,-2.779,-2.789,-2.7989,-2.8008,-2.8057,-2.8271,-2.8513,-2.8685,-2.8919,-2.9406,-2.9892,-3.0251,-3.0435,-3.0559,-3.0797,-3.0895,-3.0814,-3.0757,-3.0549,-2.9773,-2.9163,-2.8666,-2.8353,-2.8076,-2.7762,-2.728,-2.6886,-2.6527,-2.6228,-2.5583,-2.467,-2.3797,-2.2997,-2.2049,-2.1351,-2.0942,-2.0207,-1.9789,-1.928,-1.8058,-1.732,-1.6616,-1.5604,-1.5205,-1.5371,-1.542,-1.5449,-1.6028,-1.7301,-1.7687,-1.6909,-1.6618,-1.6566,-1.6519,-1.6236,-1.6069,-1.5899,-1.571,-1.6046,-1.6368,-1.7024,-1.7633,-1.7898,-1.8135,-1.784,-1.7399,-1.7099,-1.6859,-1.6871,-1.7471,-1.7918,-1.7879,-1.7677,-1.7621,-1.7541,-1.7485,-1.7592,-1.762,-1.7508,-1.7653,-1.7589,-1.7034,-1.6641,-1.6528,-1.6652,-1.6944,-1.7168,-1.7446,-1.6989,-1.6482,-1.584,-1.5177,-1.4819,-1.5158,-1.6032,-2.8182,-2.8172,-2.7936,-2.7938,-2.8064,-2.7402,-2.7088,-2.7114,-2.629,-2.5799,-2.5847,-2.5785,-2.5691,-2.5364,-2.52,-2.5497,-2.6165,-2.64,-2.6558,-2.6901,-2.7473,-2.7675,-2.7875,-2.8171,-2.8414,-2.8717,-2.9041,-2.9422,-2.9512,-2.9995,-3.0309,-3.0351,-3.0757,-3.0814,-3.0757,-3.0878,-3.1061,-3.1061,-3.1004,-3.0572,-3.0153,-2.9361,-2.7992,-2.755,-2.7255,-2.736,-2.729,-2.6856,-2.6587,-2.6094,-2.5296,-2.4202,-2.3221,-2.2339,-2.147,-2.0756,-1.9986,-1.9592,-1.8944,-1.7969,-1.7418,-1.6874,-1.6006,-1.5341,-1.543,-1.5381,-1.5381,-1.543,-1.6445,-1.6979,-1.6583,-1.668,-1.6655,-1.668,-1.6522,-1.6465,-1.6306,-1.6275,-1.6389,-1.6877,-1.7479,-1.7852,-1.8089,-1.8071,-1.7784,-1.7484,-1.7376,-1.7183,-1.7327,-1.7893,-1.8382,-1.8246,-1.8084,-1.7839,-1.7594,-1.7292,-1.725,-1.7311,-1.7429,-1.7682,-1.7699,-1.7424,-1.7146,-1.7034,-1.7213,-1.7567,-1.7678,-1.7567,-1.7045,-1.6539,-1.6026,-1.5497,-1.501,-1.4893,-1.5633]}]]